[[{"header":{"parameterUnit":"m.s-1","parameterCategory":1,"la1":31.0,"la2":29.5877,"lo1":-88.7671,"lo2":-86.6584,"dy":0.0162,"dx":0.0185,"nx":115,"ny":88,"refTime":"2024-07-07T06:00:00:Z","depth":0,"parameterNumber":2,"parameterNumberName":"U-component_of_WINDS"},"data":[0.0,0.0,0.0,0.0,0.0,0.0,0.0,0.0,0.0,0.0,0.0,0.0,0.0,0.0,0.0,0.0,0.0,0.0,0.0,0.0,0.0,0.0,0.0,0.0,0.0,0.0,0.0,0.0,0.0,0.0,0.0,0.0,0.0,0.0,0.0,0.0,0.0,0.0,0.0,0.0,0.0,0.0,0.0,0.0,0.0,0.0,0.0,0.0,0.0,0.0,0.0,0.0,0.0,0.0,0.0,0.0,0.0,0.0,0.0,0.0,0.0,0.0,0.0,0.0,0.0,0.0,0.0,0.0,0.0,0.0,0.0,0.0,0.0,0.0,0.0,0.0,0.0,0.0,0.0,0.0,0.0,0.0,0.0,0.0,0.0,0.0,0.0,0.0,0.0,0.0,0.0,0.0,0.0,0.0,0.0,0.0,0.0,0.0,0.0,0.0,0.0,0.0,0.0,0.0,0.0,0.0,0.0,0.0,0.0,0.0,0.0,0.0,0.0,0.0,0.0,0.0,0.0,0.0,0.0,0.0,0.0,0.0,0.0,0.0,0.0,0.0,0.0,0.0,0.0,0.0,0.0,0.0,0.0,0.0,0.0,0.0,0.0,0.0,0.0,0.0,0.0,0.0,0.0,0.0,0.0,0.0,0.0,0.0,0.0,0.0,0.0,0.0,0.0,0.0,0.0,0.0,0.0,0.0,0.0,0.0,0.0,0.0,0.0,0.0,0.0,0.0,0.0,0.0,0.0,0.0,0.0,0.0,0.0,0.0,0.0,0.0,0.0,0.0,0.0,0.0,0.0,0.0,0.0,0.0,0.0,0.0,0.0,0.0,0.0,0.0,0.0,0.0,0.0,0.0,0.0,0.0,0.0,0.0,0.0,0.0,0.0,0.0,0.0,0.0,0.0,0.0,0.0,0.0,0.0,0.0,0.0,0.0,0.0,0.0,0.0,0.0,0.0,0.0,0.0,0.0,0.0,0.0,0.0,0.0,0.0,0.0,0.0,0.0,0.0,0.0,0.0,0.0,0.0,0.0,0.0,0.0,0.0,0.0,0.0,0.0,0.0,0.0,0.0,0.0,0.0,0.0,0.0,0.0,0.0,0.0,0.0,0.0,0.0,0.0,0.0,0.0,0.0,0.0,0.0,0.0,0.0,0.0,0.0,0.0,0.0,0.0,0.0,0.0,0.0,0.0,0.0,0.0,0.0,0.0,0.0,0.0,0.0,0.0,0.0,0.0,0.0,0.0,0.0,0.0,0.0,0.0,0.0,0.0,0.0,0.0,0.0,0.0,0.0,0.0,0.0,0.0,0.0,0.0,0.0,0.0,0.0,0.0,0.0,0.0,0.0,0.0,0.0,0.0,0.0,0.0,0.0,0.0,0.0,0.0,0.0,0.0,0.0,0.0,0.0,0.0,0.0,0.0,0.0,0.0,0.0,0.0,0.0,0.0,0.0,0.0,0.0,0.0,0.0,0.0,0.0,0.0,0.0,0.0,0.0,0.0,0.0,0.0,0.0,0.0,0.0,0.0,0.0,0.0,0.0,0.0,0.0,0.0,0.0,0.0,0.0,0.0,0.0,0.0,0.0,0.0,0.0,0.0,0.0,0.0,0.0,0.0,0.0,0.0,0.0,0.0,0.0,0.0,0.0,0.0,0.0,0.0,0.0,0.0,0.0,0.0,0.0,0.0,0.0,0.0,0.0,0.0,0.0,0.0,0.0,0.0,0.0,0.0,0.0,0.0,0.0,0.0,0.0,0.0,0.0,0.0,0.0,0.0,0.0,0.0,0.0,0.0,0.0,0.0,0.0,0.0,0.0,0.0,0.0,0.0,0.0,0.0,0.0,0.0,0.0,0.0,0.0,0.0,0.0,0.0,0.0,0.0,0.0,0.0,0.0,0.0,0.0,0.0,0.0,0.0,0.0,0.0,0.0,0.0,0.0,0.0,0.0,0.0,0.0,0.0,0.0,0.0,0.0,0.0,0.0,0.0,0.0,0.0,0.0,0.0,0.0,0.0,0.0,0.0,0.0,0.0,0.0,0.0,0.0,0.0,0.0,0.0,0.0,0.0,0.0,0.0,0.0,0.0,0.0,0.0,0.0,0.0,0.0,0.0,0.0,0.0,0.0,0.0,0.0,0.0,0.0,0.0,0.0,0.0,0.0,0.0,0.0,0.0,0.0,0.0,0.0,0.0,0.0,0.0,0.0,0.0,0.0,0.0,0.0,0.0,0.0,0.0,0.0,0.0,0.0,0.0,0.0,0.0,0.0,0.0,0.0,0.0,0.0,0.0,0.0,0.0,0.0,0.0,0.0,0.0,0.0,0.0,0.0,0.0,0.0,0.0,0.0,0.0,0.0,0.0,0.0,0.0,0.0,0.0,0.0,0.0,0.0,0.0,0.0,0.0,0.0,0.0,0.0,0.0,0.0,0.0,0.0,0.0,0.0,0.0,0.0,0.0,0.0,0.0,0.0,0.0,0.0,0.0,0.0,0.0,0.0,0.0,0.0,0.0,0.0,0.0,0.0,0.0,0.0,0.0,0.0,0.0,0.0,0.0,0.0,0.0,0.0,0.0,0.0,0.0,0.0,0.0,0.0,0.0,0.0,0.0,0.0,0.0,0.0,0.0,0.0,0.0,0.0,0.0,0.0,0.0,0.0,0.0,0.0,0.0,0.0,0.0,0.0,0.0,0.0,0.0,0.0,0.0,0.0,0.0,0.0,0.0,0.0,0.0,0.0,0.0,0.0,0.0,0.0,0.0,0.0,0.0,0.0,0.0,0.0,0.0,0.0,0.0,0.0,0.0,0.0,0.0,0.0,0.0,0.0,0.0,0.0,0.0,0.0,0.0,0.0,0.0,0.0,0.0,0.0,0.0,0.0,0.0,0.0,0.0,0.0,0.0,0.0,0.0,0.0,0.0,0.0,0.0,0.0,0.0,0.0,0.0,0.0,0.0,0.0,0.0,0.0,0.0,0.0,0.0,0.0,0.0,0.0,0.0,0.0,0.0,0.0,0.0,0.0,0.0,0.0,0.0,0.0,0.0,0.0,0.0,0.0,0.0,0.0,0.0,0.0,0.0,0.0,0.0,0.0,0.0,0.0,0.0,0.0,0.0,0.0,0.0,0.0,0.0,0.0,0.0,0.0,0.0,0.0,0.0,0.0,0.0,0.0,0.0,0.0,0.0,0.0,0.0,0.0,0.0,0.0,0.0,0.0,0.0,0.0,0.0,0.0,0.0,0.0,0.0,0.0,0.0,0.0,0.0,0.0,0.0,0.0,0.0,0.0,0.0,0.0,0.0,0.0,0.0,0.0,0.0,0.0,0.0,0.0,0.0,0.0,0.0,0.0,0.0,0.0,0.0,0.0,0.0,0.0,0.0,0.0,0.0,0.0,0.0,0.0,0.0,0.0,0.0,0.0,0.0,0.0,0.0,0.0,0.0,0.0,0.0,0.0,0.0,0.0,0.0,0.0,0.0,0.0,0.0,0.0,0.0,0.0,0.0,0.0,0.0,0.0,0.0,0.0,0.0,0.0,0.0,0.0,0.0,0.0,0.0,0.0,0.0,0.0,0.0,0.0,0.0,0.0,0.0,0.0,0.0,0.0,0.0,0.0,0.0,0.0,0.0,0.0,0.0,0.0,0.0,0.0,0.0,0.0,0.0,0.0,0.0,0.0,0.0,0.0,0.0,0.0,0.0,0.0,0.0,0.0,0.0,0.0,0.0,0.0,0.0,0.0,0.0,0.0,0.0,0.0,0.0,0.0,0.0,0.0,0.0,0.0,0.0,0.0,0.0,0.0,0.0,0.0,0.0,0.0,0.0,0.0,0.0,0.0,0.0,0.0,0.0,0.0,0.0,0.0,0.0,0.0,0.0,0.0,0.0,0.0,0.0,0.0,0.0,0.0,0.0,0.0,0.0,0.0,0.0,0.0,0.0,0.0,0.0,0.0,0.0,0.0,0.0,0.0,0.0,0.0,0.0,0.0,0.0,0.0,0.0,0.0,0.0,0.0,0.0,0.0,0.0,0.0,0.0,0.0,0.0,0.0,0.0,0.0,0.0,0.0,0.0,0.0,0.0,0.0,0.0,0.0,0.0,0.0,0.0,0.0,0.0,0.0,0.0,0.0,0.0,0.0,0.0,0.0,0.0,0.0,0.0,0.0,0.0,0.0,0.0,0.0,0.0,0.0,0.0,0.0,0.0,0.0,0.0,0.0,0.0,0.0,0.0,0.0,0.0,0.0,0.0,0.0,0.0,0.0,0.0,0.0,0.0,-4.7005,0.0,0.0,0.0,0.0,0.0,0.0,0.0,0.0,0.0,0.0,0.0,0.0,0.0,0.0,0.0,0.0,0.0,0.0,0.0,0.0,0.0,0.0,0.0,0.0,0.0,0.0,0.0,0.0,0.0,0.0,0.0,0.0,0.0,0.0,0.0,0.0,0.0,0.0,0.0,0.0,0.0,0.0,0.0,0.0,0.0,0.0,0.0,0.0,0.0,0.0,0.0,0.0,0.0,0.0,0.0,0.0,0.0,0.0,0.0,0.0,0.0,0.0,0.0,0.0,0.0,0.0,0.0,0.0,0.0,0.0,0.0,0.0,0.0,0.0,0.0,0.0,0.0,0.0,0.0,0.0,0.0,0.0,0.0,0.0,0.0,0.0,0.0,0.0,0.0,0.0,0.0,0.0,0.0,0.0,0.0,0.0,0.0,0.0,0.0,0.0,0.0,0.0,0.0,0.0,0.0,0.0,0.0,0.0,0.0,0.0,-4.8184,-4.7951,-5.0398,-5.0343,-4.7429,0.0,0.0,0.0,0.0,0.0,0.0,0.0,0.0,0.0,0.0,0.0,0.0,0.0,0.0,0.0,0.0,0.0,0.0,0.0,0.0,0.0,0.0,0.0,0.0,0.0,0.0,0.0,0.0,0.0,0.0,0.0,0.0,0.0,0.0,0.0,0.0,0.0,0.0,0.0,0.0,0.0,0.0,0.0,0.0,0.0,0.0,0.0,0.0,0.0,0.0,0.0,0.0,0.0,0.0,0.0,0.0,0.0,0.0,0.0,0.0,0.0,0.0,0.0,0.0,0.0,0.0,0.0,0.0,0.0,0.0,0.0,0.0,0.0,0.0,0.0,0.0,0.0,0.0,0.0,0.0,0.0,0.0,0.0,0.0,0.0,0.0,0.0,0.0,0.0,0.0,0.0,0.0,0.0,0.0,0.0,0.0,0.0,0.0,0.0,0.0,0.0,0.0,0.0,0.0,0.0,0.0,0.0,0.0,0.0,0.0,0.0,0.0,-5.134,-5.1155,-4.8877,0.0,0.0,0.0,0.0,0.0,0.0,0.0,0.0,0.0,0.0,0.0,0.0,0.0,0.0,0.0,0.0,0.0,0.0,0.0,0.0,0.0,0.0,0.0,0.0,0.0,0.0,0.0,0.0,0.0,0.0,0.0,0.0,0.0,0.0,0.0,0.0,0.0,0.0,0.0,0.0,0.0,0.0,0.0,0.0,0.0,0.0,0.0,0.0,0.0,0.0,0.0,0.0,0.0,0.0,0.0,0.0,0.0,0.0,0.0,0.0,0.0,0.0,0.0,0.0,0.0,0.0,0.0,0.0,0.0,0.0,0.0,0.0,0.0,0.0,0.0,0.0,0.0,0.0,0.0,0.0,0.0,0.0,0.0,0.0,0.0,0.0,0.0,0.0,0.0,0.0,0.0,0.0,0.0,0.0,0.0,0.0,0.0,0.0,0.0,0.0,0.0,0.0,0.0,0.0,0.0,0.0,0.0,0.0,0.0,0.0,-4.9152,-5.1799,-5.2092,0.0,-5.1762,0.0,0.0,0.0,0.0,0.0,0.0,0.0,0.0,0.0,0.0,0.0,0.0,0.0,0.0,0.0,0.0,0.0,0.0,0.0,0.0,0.0,0.0,0.0,0.0,0.0,0.0,0.0,0.0,0.0,0.0,0.0,0.0,0.0,0.0,0.0,0.0,0.0,0.0,0.0,0.0,0.0,0.0,0.0,0.0,0.0,0.0,0.0,0.0,0.0,0.0,0.0,0.0,0.0,0.0,0.0,0.0,0.0,0.0,0.0,0.0,0.0,0.0,0.0,0.0,0.0,0.0,0.0,0.0,0.0,0.0,0.0,0.0,0.0,0.0,0.0,0.0,0.0,0.0,0.0,0.0,0.0,0.0,0.0,0.0,0.0,0.0,0.0,0.0,0.0,0.0,0.0,0.0,0.0,0.0,0.0,0.0,0.0,0.0,0.0,0.0,0.0,0.0,0.0,0.0,0.0,0.0,0.0,0.0,0.0,0.0,-4.9656,-5.2166,-5.2203,-5.1819,0.0,0.0,0.0,0.0,0.0,0.0,0.0,0.0,0.0,0.0,0.0,0.0,0.0,0.0,0.0,0.0,0.0,0.0,0.0,0.0,0.0,0.0,0.0,0.0,0.0,0.0,0.0,0.0,0.0,0.0,0.0,0.0,0.0,0.0,0.0,0.0,0.0,0.0,0.0,0.0,0.0,0.0,0.0,0.0,0.0,0.0,0.0,0.0,0.0,0.0,0.0,0.0,0.0,0.0,0.0,0.0,0.0,0.0,0.0,0.0,0.0,0.0,0.0,0.0,0.0,0.0,0.0,0.0,0.0,0.0,0.0,0.0,0.0,0.0,0.0,0.0,0.0,0.0,0.0,0.0,0.0,0.0,0.0,0.0,0.0,0.0,0.0,0.0,0.0,0.0,0.0,0.0,0.0,0.0,0.0,0.0,0.0,0.0,0.0,0.0,0.0,0.0,0.0,0.0,0.0,0.0,0.0,0.0,0.0,0.0,-4.9824,-5.086,-5.2933,-5.237,-5.1563,-5.0676,0.0,0.0,0.0,0.0,0.0,0.0,0.0,0.0,0.0,0.0,0.0,0.0,0.0,0.0,0.0,0.0,0.0,0.0,0.0,0.0,0.0,0.0,0.0,0.0,0.0,0.0,0.0,0.0,0.0,0.0,0.0,0.0,0.0,0.0,0.0,0.0,0.0,0.0,0.0,0.0,0.0,0.0,0.0,0.0,0.0,0.0,0.0,0.0,0.0,0.0,0.0,0.0,0.0,0.0,0.0,0.0,0.0,0.0,0.0,0.0,0.0,0.0,0.0,0.0,0.0,0.0,0.0,0.0,0.0,0.0,0.0,0.0,0.0,0.0,0.0,0.0,0.0,0.0,0.0,0.0,0.0,0.0,0.0,0.0,0.0,0.0,0.0,0.0,0.0,0.0,0.0,0.0,0.0,0.0,0.0,0.0,0.0,0.0,0.0,0.0,0.0,0.0,0.0,0.0,0.0,0.0,0.0,0.0,-5.4781,-5.3097,-5.3134,-5.52,-5.2819,-5.1658,0.0,0.0,0.0,0.0,0.0,0.0,0.0,0.0,0.0,0.0,0.0,0.0,0.0,0.0,0.0,0.0,0.0,0.0,0.0,0.0,0.0,0.0,0.0,0.0,0.0,0.0,0.0,0.0,0.0,0.0,0.0,0.0,0.0,0.0,0.0,0.0,0.0,0.0,0.0,0.0,0.0,0.0,0.0,0.0,0.0,0.0,0.0,0.0,0.0,0.0,0.0,0.0,0.0,0.0,0.0,0.0,0.0,0.0,0.0,0.0,0.0,0.0,0.0,0.0,0.0,0.0,0.0,0.0,0.0,0.0,0.0,0.0,0.0,0.0,0.0,0.0,0.0,0.0,0.0,0.0,0.0,0.0,0.0,0.0,0.0,0.0,0.0,0.0,0.0,0.0,0.0,0.0,0.0,0.0,0.0,0.0,0.0,0.0,0.0,0.0,0.0,0.0,0.0,0.0,0.0,0.0,0.0,0.0,0.0,-5.1986,-5.3502,-5.5,-5.6389,-5.4423,-5.3433,0.0,0.0,0.0,0.0,0.0,0.0,0.0,0.0,0.0,0.0,0.0,0.0,0.0,0.0,0.0,0.0,0.0,0.0,0.0,0.0,0.0,0.0,0.0,0.0,0.0,0.0,0.0,0.0,0.0,0.0,0.0,0.0,0.0,0.0,0.0,0.0,0.0,0.0,0.0,0.0,0.0,0.0,0.0,0.0,0.0,0.0,0.0,0.0,0.0,0.0,0.0,0.0,0.0,0.0,0.0,0.0,0.0,0.0,0.0,0.0,0.0,0.0,0.0,0.0,0.0,0.0,0.0,0.0,0.0,0.0,0.0,0.0,0.0,0.0,0.0,0.0,0.0,0.0,0.0,0.0,0.0,0.0,0.0,0.0,0.0,0.0,0.0,0.0,0.0,0.0,0.0,0.0,0.0,0.0,0.0,0.0,0.0,0.0,0.0,0.0,0.0,0.0,0.0,0.0,0.0,0.0,0.0,0.0,0.0,-5.2264,0.0,-5.7441,-5.7505,-5.5544,-5.4102,0.0,0.0,0.0,0.0,0.0,0.0,0.0,0.0,0.0,0.0,0.0,0.0,0.0,0.0,0.0,0.0,0.0,0.0,0.0,0.0,0.0,0.0,0.0,0.0,0.0,0.0,0.0,0.0,0.0,0.0,0.0,0.0,0.0,0.0,0.0,0.0,0.0,0.0,0.0,0.0,0.0,0.0,0.0,0.0,0.0,0.0,0.0,0.0,0.0,0.0,0.0,0.0,0.0,0.0,0.0,0.0,0.0,0.0,0.0,0.0,0.0,0.0,0.0,0.0,0.0,0.0,0.0,0.0,0.0,0.0,0.0,0.0,0.0,0.0,0.0,0.0,0.0,0.0,0.0,0.0,0.0,0.0,0.0,0.0,0.0,0.0,0.0,0.0,0.0,0.0,0.0,0.0,0.0,0.0,0.0,0.0,0.0,0.0,0.0,0.0,0.0,0.0,0.0,0.0,0.0,0.0,0.0,0.0,-5.1465,-5.6475,-5.9456,-6.0267,-5.8785,-5.6161,-5.3564,0.0,0.0,0.0,0.0,0.0,0.0,0.0,0.0,0.0,0.0,0.0,0.0,0.0,0.0,0.0,0.0,0.0,0.0,0.0,0.0,0.0,0.0,0.0,0.0,0.0,0.0,0.0,0.0,0.0,0.0,0.0,0.0,0.0,0.0,0.0,0.0,0.0,0.0,0.0,0.0,0.0,0.0,0.0,0.0,0.0,0.0,0.0,0.0,0.0,0.0,0.0,0.0,0.0,0.0,0.0,0.0,0.0,0.0,0.0,0.0,0.0,0.0,0.0,0.0,0.0,0.0,0.0,0.0,0.0,0.0,0.0,0.0,0.0,0.0,0.0,0.0,0.0,0.0,0.0,0.0,0.0,0.0,0.0,0.0,0.0,0.0,0.0,0.0,0.0,0.0,0.0,0.0,0.0,0.0,0.0,0.0,0.0,0.0,0.0,0.0,0.0,0.0,0.0,0.0,0.0,0.0,0.0,0.0,0.0,-5.6956,-5.97,-6.1725,-6.2646,-5.8419,-5.6131,0.0,0.0,0.0,0.0,0.0,0.0,0.0,0.0,0.0,0.0,0.0,0.0,0.0,0.0,0.0,0.0,0.0,0.0,0.0,0.0,0.0,0.0,0.0,0.0,0.0,0.0,0.0,0.0,0.0,0.0,0.0,0.0,0.0,0.0,0.0,0.0,0.0,0.0,0.0,0.0,0.0,0.0,0.0,0.0,0.0,0.0,0.0,0.0,0.0,0.0,0.0,0.0,0.0,0.0,0.0,0.0,0.0,0.0,0.0,0.0,0.0,0.0,0.0,0.0,0.0,0.0,0.0,0.0,0.0,0.0,0.0,0.0,0.0,0.0,0.0,0.0,0.0,0.0,0.0,0.0,0.0,0.0,0.0,0.0,0.0,0.0,0.0,0.0,0.0,0.0,0.0,0.0,0.0,0.0,0.0,0.0,0.0,0.0,0.0,0.0,0.0,0.0,0.0,0.0,0.0,0.0,0.0,0.0,0.0,-5.9186,-6.1584,-6.3408,-6.4578,-5.9947,-5.7289,-5.6899,0.0,0.0,0.0,0.0,0.0,0.0,0.0,0.0,0.0,0.0,0.0,0.0,0.0,0.0,0.0,0.0,0.0,0.0,0.0,0.0,0.0,0.0,0.0,0.0,0.0,0.0,0.0,0.0,0.0,0.0,0.0,0.0,0.0,0.0,0.0,0.0,0.0,0.0,0.0,0.0,0.0,0.0,0.0,0.0,0.0,0.0,0.0,0.0,0.0,0.0,0.0,0.0,0.0,0.0,0.0,0.0,0.0,0.0,0.0,0.0,0.0,0.0,0.0,0.0,0.0,0.0,0.0,0.0,0.0,0.0,0.0,0.0,0.0,0.0,0.0,0.0,0.0,0.0,0.0,0.0,0.0,0.0,0.0,0.0,0.0,0.0,0.0,0.0,0.0,0.0,0.0,0.0,0.0,0.0,0.0,0.0,0.0,0.0,0.0,0.0,0.0,0.0,0.0,0.0,0.0,0.0,0.0,0.0,-6.237,-6.4566,-6.5334,-6.4638,-6.0825,-5.7369,0.0,0.0,0.0,0.0,0.0,0.0,0.0,0.0,0.0,0.0,0.0,0.0,0.0,0.0,0.0,0.0,0.0,0.0,0.0,0.0,0.0,0.0,0.0,0.0,0.0,0.0,0.0,0.0,0.0,0.0,0.0,0.0,0.0,0.0,0.0,0.0,0.0,0.0,0.0,0.0,0.0,0.0,0.0,0.0,0.0,0.0,0.0,0.0,0.0,0.0,0.0,0.0,0.0,0.0,0.0,0.0,0.0,0.0,0.0,0.0,0.0,0.0,0.0,0.0,0.0,0.0,0.0,0.0,0.0,0.0,0.0,0.0,0.0,0.0,0.0,0.0,0.0,0.0,0.0,0.0,0.0,0.0,0.0,0.0,0.0,0.0,0.0,0.0,0.0,0.0,0.0,0.0,0.0,0.0,0.0,0.0,0.0,0.0,0.0,0.0,0.0,0.0,0.0,0.0,0.0,0.0,0.0,0.0,0.0,-6.1662,-6.4297,-6.5883,-6.6143,-6.1976,-5.8645,0.0,0.0,0.0,0.0,0.0,0.0,0.0,0.0,0.0,0.0,0.0,0.0,0.0,0.0,0.0,0.0,0.0,0.0,0.0,0.0,0.0,0.0,0.0,0.0,0.0,0.0,0.0,0.0,0.0,0.0,0.0,0.0,0.0,0.0,0.0,0.0,0.0,0.0,0.0,0.0,0.0,0.0,0.0,0.0,0.0,0.0,0.0,0.0,0.0,0.0,0.0,0.0,0.0,0.0,0.0,0.0,0.0,0.0,0.0,0.0,0.0,0.0,0.0,0.0,0.0,0.0,0.0,0.0,0.0,0.0,0.0,0.0,0.0,0.0,0.0,0.0,0.0,0.0,0.0,0.0,0.0,0.0,0.0,0.0,0.0,0.0,0.0,0.0,0.0,0.0,0.0,0.0,0.0,0.0,0.0,0.0,0.0,0.0,0.0,0.0,0.0,0.0,0.0,0.0,0.0,0.0,0.0,0.0,-6.0688,-6.2716,-6.4971,-6.6255,-6.6374,-6.3134,-5.991,0.0,0.0,0.0,0.0,0.0,0.0,0.0,0.0,0.0,0.0,0.0,0.0,0.0,0.0,0.0,0.0,0.0,0.0,0.0,0.0,0.0,0.0,0.0,0.0,0.0,0.0,0.0,0.0,0.0,0.0,0.0,0.0,0.0,0.0,0.0,0.0,0.0,0.0,0.0,0.0,0.0,0.0,0.0,0.0,0.0,0.0,0.0,0.0,0.0,0.0,0.0,0.0,0.0,0.0,0.0,0.0,0.0,0.0,0.0,0.0,0.0,0.0,0.0,0.0,0.0,0.0,0.0,0.0,0.0,0.0,0.0,0.0,0.0,0.0,0.0,0.0,0.0,0.0,0.0,0.0,0.0,0.0,0.0,0.0,0.0,0.0,0.0,0.0,0.0,0.0,0.0,0.0,0.0,0.0,0.0,0.0,0.0,0.0,0.0,0.0,0.0,0.0,0.0,0.0,0.0,0.0,0.0,0.0,-6.1913,-6.4316,-6.5899,-6.6339,-6.5568,-6.3956,-6.0945,0.0,0.0,0.0,0.0,0.0,0.0,0.0,0.0,0.0,0.0,0.0,0.0,0.0,0.0,0.0,0.0,0.0,0.0,0.0,0.0,0.0,0.0,0.0,0.0,0.0,0.0,0.0,0.0,0.0,0.0,0.0,0.0,0.0,0.0,0.0,0.0,0.0,0.0,0.0,0.0,0.0,0.0,0.0,0.0,0.0,0.0,0.0,0.0,0.0,0.0,0.0,0.0,0.0,0.0,0.0,0.0,0.0,0.0,0.0,0.0,0.0,0.0,0.0,0.0,0.0,0.0,0.0,0.0,0.0,0.0,0.0,0.0,0.0,0.0,0.0,0.0,0.0,0.0,0.0,0.0,0.0,0.0,0.0,0.0,0.0,0.0,0.0,0.0,0.0,0.0,0.0,0.0,0.0,0.0,0.0,0.0,0.0,0.0,0.0,0.0,0.0,0.0,0.0,0.0,0.0,0.0,0.0,0.0,-6.1359,-6.2826,-6.485,-6.5561,-6.485,-6.3205,-6.0598,0.0,0.0,0.0,0.0,0.0,0.0,0.0,0.0,0.0,0.0,0.0,0.0,0.0,0.0,0.0,0.0,0.0,0.0,0.0,0.0,0.0,0.0,0.0,0.0,0.0,0.0,0.0,0.0,0.0,0.0,0.0,0.0,0.0,0.0,0.0,0.0,0.0,0.0,0.0,0.0,0.0,0.0,0.0,0.0,0.0,0.0,0.0,0.0,-5.1799,0.0,0.0,0.0,0.0,0.0,0.0,0.0,0.0,0.0,0.0,0.0,0.0,0.0,0.0,0.0,0.0,0.0,0.0,0.0,0.0,0.0,0.0,0.0,0.0,0.0,0.0,0.0,0.0,0.0,0.0,0.0,0.0,0.0,0.0,0.0,0.0,0.0,0.0,0.0,0.0,0.0,0.0,0.0,0.0,0.0,0.0,0.0,0.0,0.0,0.0,0.0,0.0,0.0,0.0,0.0,0.0,0.0,0.0,0.0,-6.1865,-6.2928,-6.4377,-6.4986,-6.458,-6.3412,-6.0964,0.0,0.0,0.0,0.0,0.0,0.0,0.0,0.0,0.0,0.0,0.0,0.0,0.0,0.0,0.0,0.0,0.0,0.0,0.0,0.0,0.0,0.0,0.0,0.0,0.0,0.0,0.0,0.0,0.0,0.0,0.0,0.0,0.0,0.0,0.0,0.0,0.0,0.0,0.0,0.0,0.0,0.0,0.0,0.0,0.0,0.0,0.0,0.0,0.0,0.0,0.0,0.0,0.0,0.0,0.0,0.0,0.0,0.0,0.0,0.0,0.0,0.0,0.0,0.0,0.0,0.0,0.0,0.0,0.0,0.0,0.0,0.0,0.0,0.0,0.0,0.0,0.0,0.0,0.0,0.0,0.0,0.0,0.0,0.0,0.0,0.0,0.0,0.0,0.0,0.0,0.0,0.0,0.0,0.0,0.0,0.0,0.0,0.0,0.0,0.0,0.0,0.0,0.0,0.0,0.0,0.0,0.0,-6.0324,-6.233,-6.3469,-6.4106,-6.4444,-6.4444,-6.3734,-6.1385,-5.7332,0.0,0.0,0.0,0.0,0.0,0.0,0.0,0.0,0.0,0.0,0.0,0.0,0.0,0.0,0.0,0.0,0.0,0.0,0.0,0.0,0.0,0.0,0.0,0.0,0.0,0.0,0.0,0.0,0.0,0.0,0.0,0.0,0.0,0.0,0.0,0.0,0.0,0.0,-5.2404,-5.4289,0.0,0.0,0.0,0.0,0.0,0.0,0.0,0.0,-5.4319,0.0,0.0,0.0,0.0,0.0,0.0,0.0,0.0,0.0,0.0,0.0,0.0,0.0,0.0,0.0,0.0,0.0,0.0,0.0,0.0,0.0,0.0,0.0,0.0,0.0,0.0,0.0,0.0,0.0,0.0,0.0,0.0,0.0,0.0,0.0,0.0,0.0,0.0,0.0,0.0,0.0,0.0,0.0,0.0,0.0,0.0,0.0,0.0,0.0,0.0,0.0,0.0,0.0,0.0,0.0,0.0,-5.8025,-5.9212,-6.0971,-6.3429,-6.3632,-6.37,-6.37,-6.2956,-6.0799,-5.7146,0.0,0.0,0.0,0.0,0.0,0.0,0.0,0.0,0.0,0.0,0.0,0.0,0.0,0.0,0.0,0.0,0.0,0.0,0.0,0.0,0.0,0.0,0.0,0.0,0.0,0.0,0.0,0.0,0.0,0.0,0.0,0.0,0.0,0.0,0.0,0.0,0.0,0.0,0.0,-5.5703,-5.6275,0.0,0.0,0.0,0.0,0.0,0.0,0.0,0.0,-5.3231,0.0,0.0,0.0,0.0,0.0,0.0,0.0,0.0,0.0,0.0,0.0,0.0,0.0,0.0,0.0,0.0,0.0,0.0,0.0,0.0,0.0,0.0,0.0,0.0,0.0,0.0,0.0,0.0,0.0,0.0,0.0,0.0,0.0,0.0,0.0,0.0,0.0,0.0,0.0,0.0,0.0,0.0,0.0,0.0,0.0,0.0,0.0,0.0,0.0,0.0,0.0,0.0,0.0,0.0,0.0,-5.7677,-5.9804,-6.1555,-6.2854,-6.2956,-6.2922,-6.2888,-6.139,-5.9324,0.0,0.0,0.0,0.0,0.0,0.0,0.0,0.0,0.0,0.0,0.0,0.0,0.0,0.0,0.0,0.0,0.0,0.0,0.0,0.0,0.0,0.0,0.0,0.0,0.0,0.0,0.0,0.0,0.0,0.0,0.0,0.0,0.0,0.0,0.0,0.0,0.0,0.0,0.0,0.0,-5.6157,-5.6787,-5.6269,0.0,0.0,0.0,0.0,0.0,0.0,-5.3732,-5.3212,0.0,0.0,0.0,0.0,0.0,0.0,0.0,0.0,0.0,0.0,0.0,0.0,0.0,0.0,0.0,0.0,0.0,0.0,0.0,0.0,0.0,0.0,0.0,0.0,0.0,0.0,0.0,0.0,0.0,0.0,0.0,0.0,0.0,0.0,0.0,0.0,0.0,0.0,0.0,0.0,0.0,0.0,0.0,0.0,0.0,0.0,0.0,0.0,0.0,0.0,0.0,0.0,0.0,0.0,0.0,-5.75,-6.0339,-6.2058,-6.2381,-6.255,-6.255,-6.2381,-6.0448,-5.8543,0.0,0.0,0.0,0.0,0.0,0.0,0.0,0.0,0.0,0.0,0.0,0.0,0.0,0.0,0.0,0.0,0.0,0.0,0.0,0.0,0.0,0.0,0.0,0.0,0.0,0.0,0.0,0.0,0.0,0.0,0.0,0.0,0.0,0.0,0.0,0.0,0.0,0.0,0.0,0.0,0.0,-5.7128,-5.5981,-5.6901,0.0,0.0,0.0,0.0,-5.4622,-5.4058,0.0,0.0,0.0,0.0,0.0,0.0,0.0,0.0,0.0,0.0,0.0,0.0,0.0,0.0,0.0,0.0,0.0,0.0,0.0,0.0,0.0,0.0,0.0,0.0,0.0,0.0,0.0,0.0,0.0,0.0,0.0,0.0,0.0,0.0,0.0,0.0,0.0,0.0,0.0,0.0,0.0,0.0,0.0,0.0,0.0,0.0,0.0,0.0,0.0,0.0,0.0,0.0,0.0,0.0,0.0,0.0,-5.8029,-5.9356,-6.0802,-6.2352,-6.3024,-6.3057,-6.2415,-6.1775,-5.9927,0.0,0.0,0.0,0.0,0.0,0.0,0.0,0.0,0.0,0.0,0.0,0.0,0.0,0.0,0.0,0.0,0.0,0.0,0.0,0.0,0.0,0.0,0.0,0.0,0.0,0.0,0.0,0.0,0.0,0.0,0.0,0.0,0.0,0.0,0.0,0.0,0.0,0.0,0.0,0.0,0.0,-5.7429,-5.5758,-5.6685,-5.6882,0.0,0.0,-5.5332,-5.462,-5.4352,0.0,0.0,0.0,0.0,0.0,0.0,0.0,0.0,0.0,0.0,0.0,0.0,0.0,0.0,0.0,0.0,0.0,0.0,0.0,0.0,0.0,0.0,0.0,0.0,0.0,0.0,0.0,0.0,0.0,0.0,0.0,0.0,0.0,0.0,0.0,0.0,0.0,0.0,0.0,0.0,0.0,0.0,0.0,0.0,0.0,0.0,0.0,0.0,0.0,0.0,0.0,0.0,0.0,0.0,0.0,-5.6918,-5.8142,-6.0579,-6.2237,-6.299,-6.3328,-6.3362,-6.3024,-6.0513,-5.8318,0.0,0.0,0.0,0.0,0.0,0.0,0.0,0.0,0.0,0.0,0.0,0.0,0.0,0.0,0.0,0.0,0.0,0.0,0.0,0.0,0.0,0.0,0.0,0.0,0.0,0.0,0.0,0.0,0.0,0.0,0.0,0.0,0.0,0.0,0.0,0.0,0.0,0.0,0.0,0.0,0.0,0.0,-5.574,-5.6396,0.0,0.0,0.0,-5.5055,-5.4621,0.0,0.0,0.0,0.0,0.0,0.0,0.0,0.0,0.0,0.0,0.0,0.0,0.0,0.0,0.0,0.0,0.0,0.0,0.0,0.0,0.0,0.0,0.0,0.0,0.0,0.0,0.0,0.0,0.0,0.0,0.0,0.0,0.0,0.0,0.0,0.0,0.0,0.0,0.0,0.0,0.0,0.0,0.0,0.0,0.0,0.0,0.0,0.0,0.0,0.0,0.0,0.0,0.0,0.0,0.0,0.0,0.0,-5.801,-6.1446,-6.3226,-6.3226,-6.3599,-6.3558,-6.3079,-5.9756,0.0,0.0,0.0,0.0,0.0,0.0,0.0,0.0,0.0,0.0,0.0,0.0,0.0,0.0,0.0,0.0,0.0,0.0,0.0,0.0,0.0,0.0,0.0,0.0,0.0,0.0,0.0,-4.6679,0.0,0.0,0.0,0.0,0.0,0.0,0.0,0.0,0.0,0.0,0.0,0.0,0.0,0.0,-5.578,-5.5377,-5.5888,-5.6092,0.0,0.0,-5.4843,-5.4779,-5.4036,-5.3061,0.0,0.0,0.0,0.0,0.0,0.0,0.0,0.0,0.0,0.0,0.0,0.0,0.0,0.0,0.0,0.0,0.0,0.0,0.0,0.0,0.0,0.0,0.0,0.0,0.0,0.0,0.0,0.0,0.0,0.0,0.0,0.0,0.0,0.0,0.0,0.0,0.0,0.0,0.0,0.0,0.0,0.0,0.0,0.0,0.0,0.0,0.0,0.0,0.0,0.0,0.0,0.0,0.0,0.0,-5.6916,-5.7877,-6.0898,-6.2482,-6.2516,-6.3835,-6.3714,-6.2138,-6.0867,-5.9227,0.0,0.0,0.0,0.0,0.0,0.0,0.0,0.0,0.0,0.0,0.0,0.0,0.0,0.0,0.0,0.0,0.0,0.0,0.0,0.0,0.0,0.0,0.0,0.0,0.0,0.0,0.0,0.0,0.0,0.0,0.0,0.0,0.0,0.0,0.0,0.0,0.0,0.0,0.0,0.0,0.0,-5.5364,-5.4442,-5.49,-5.5384,0.0,-5.4997,-5.4933,-5.514,-5.51,-5.428,-5.1964,0.0,0.0,0.0,0.0,0.0,0.0,0.0,0.0,0.0,0.0,0.0,0.0,0.0,0.0,0.0,0.0,0.0,0.0,0.0,0.0,0.0,0.0,0.0,0.0,0.0,0.0,0.0,0.0,0.0,0.0,0.0,0.0,0.0,0.0,0.0,0.0,0.0,0.0,0.0,0.0,0.0,0.0,0.0,0.0,0.0,0.0,0.0,0.0,0.0,0.0,0.0,0.0,0.0,-5.6885,-5.8185,-6.1129,-6.2623,-6.2731,-6.4102,-6.4094,-6.2501,-6.0974,-5.9211,0.0,0.0,0.0,0.0,0.0,0.0,0.0,0.0,0.0,0.0,0.0,0.0,0.0,0.0,0.0,0.0,0.0,0.0,0.0,0.0,0.0,0.0,0.0,0.0,0.0,0.0,0.0,0.0,-4.7266,-4.7846,-4.942,0.0,0.0,0.0,0.0,0.0,0.0,0.0,0.0,0.0,0.0,-5.4931,-5.4618,-5.4977,0.0,0.0,-5.509,-5.513,-5.52,-5.4491,-5.3522,-5.221,-5.152,0.0,0.0,0.0,0.0,0.0,0.0,0.0,0.0,0.0,0.0,0.0,0.0,0.0,0.0,0.0,0.0,0.0,0.0,0.0,0.0,0.0,0.0,0.0,0.0,0.0,0.0,0.0,0.0,0.0,0.0,0.0,0.0,0.0,0.0,0.0,0.0,0.0,0.0,0.0,0.0,0.0,0.0,0.0,0.0,0.0,0.0,0.0,0.0,0.0,0.0,0.0,0.0,-5.6745,-5.8312,-6.106,-6.268,-6.3115,-6.4153,-6.4044,-6.2732,-6.0796,-5.9005,0.0,0.0,0.0,0.0,0.0,0.0,0.0,0.0,0.0,0.0,0.0,0.0,0.0,0.0,0.0,0.0,0.0,0.0,0.0,0.0,0.0,0.0,0.0,0.0,0.0,0.0,0.0,0.0,-4.8074,-4.8748,-4.99,0.0,0.0,0.0,0.0,0.0,0.0,0.0,0.0,0.0,0.0,-5.4735,-5.4855,-5.5079,-5.5209,-5.5209,-5.5209,-5.5209,-5.5209,-5.4401,-5.3503,-5.2636,0.0,0.0,0.0,0.0,0.0,0.0,0.0,0.0,0.0,0.0,0.0,0.0,0.0,0.0,0.0,0.0,0.0,0.0,0.0,0.0,0.0,0.0,0.0,0.0,0.0,0.0,0.0,-4.9165,0.0,0.0,-4.9304,0.0,0.0,0.0,0.0,0.0,0.0,0.0,0.0,0.0,0.0,0.0,0.0,0.0,0.0,0.0,0.0,0.0,0.0,0.0,0.0,0.0,0.0,-5.6462,-5.8097,-6.0472,-6.2405,-6.3777,-6.3911,-6.3459,-6.2449,-6.0384,-5.8897,-5.8256,0.0,0.0,0.0,0.0,0.0,0.0,0.0,0.0,0.0,0.0,0.0,0.0,0.0,0.0,0.0,0.0,0.0,0.0,0.0,0.0,0.0,0.0,0.0,0.0,0.0,0.0,-5.0878,-5.0654,-5.0152,0.0,0.0,0.0,0.0,0.0,0.0,0.0,0.0,0.0,0.0,-5.4205,-5.4916,-5.4898,-5.5079,-5.5209,-5.5209,-5.5209,-5.5209,-5.5209,-5.5149,-5.47,0.0,0.0,0.0,0.0,0.0,0.0,0.0,0.0,0.0,0.0,0.0,0.0,0.0,0.0,0.0,0.0,0.0,0.0,0.0,0.0,0.0,0.0,0.0,0.0,0.0,0.0,0.0,-4.9655,-4.9444,0.0,0.0,0.0,0.0,0.0,0.0,0.0,0.0,0.0,0.0,0.0,-5.4043,-5.4814,0.0,0.0,0.0,0.0,0.0,0.0,0.0,0.0,0.0,0.0,0.0,0.0,-5.5707,-5.7698,-6.0077,-6.1526,-6.2058,-6.3454,-6.342,-6.16,-6.0381,-5.884,-5.6951,0.0,0.0,0.0,0.0,0.0,0.0,0.0,0.0,0.0,0.0,0.0,0.0,0.0,0.0,0.0,0.0,0.0,0.0,0.0,0.0,0.0,0.0,0.0,0.0,0.0,-4.9177,0.0,0.0,0.0,0.0,0.0,0.0,0.0,0.0,0.0,0.0,0.0,-5.3565,-5.425,-5.4683,-5.4952,-5.506,-5.513,-5.5209,0.0,0.0,0.0,0.0,0.0,0.0,0.0,0.0,0.0,0.0,0.0,0.0,0.0,0.0,-5.3075,-5.1773,-5.1531,-5.1484,-5.1484,0.0,0.0,0.0,0.0,0.0,0.0,0.0,0.0,0.0,0.0,0.0,0.0,0.0,0.0,-5.1459,0.0,-5.0894,0.0,0.0,0.0,0.0,0.0,0.0,0.0,0.0,-5.5699,-5.6183,-5.61,-5.6872,-5.7105,0.0,-5.6445,-5.5425,0.0,0.0,0.0,0.0,0.0,0.0,0.0,0.0,-5.6264,-5.8249,-6.0144,-6.1351,-6.1881,-6.3007,-6.2941,-6.1516,-6.0258,-5.8568,-5.6453,-5.5332,-5.4506,0.0,0.0,0.0,0.0,0.0,0.0,0.0,0.0,0.0,0.0,0.0,0.0,0.0,0.0,0.0,0.0,0.0,0.0,0.0,0.0,0.0,0.0,0.0,-4.966,0.0,0.0,0.0,0.0,0.0,0.0,0.0,0.0,0.0,-5.3888,-5.3779,-5.4021,-5.4782,-5.4933,-5.5069,-5.532,0.0,0.0,0.0,0.0,0.0,0.0,0.0,-5.47,-5.47,-5.4261,-5.3803,-5.3563,-5.4102,-5.4491,-5.4251,0.0,0.0,-5.2911,-5.2618,-5.2577,-5.2623,-5.2957,-5.323,-5.323,-5.323,-5.3108,0.0,0.0,0.0,0.0,0.0,0.0,0.0,0.0,-5.3904,-5.4047,0.0,-5.3359,0.0,0.0,0.0,0.0,0.0,-5.4995,0.0,0.0,-5.9458,-6.0041,-5.838,-5.9012,-5.8946,-5.8313,-5.8474,-5.8485,-5.8351,-5.6345,0.0,0.0,0.0,0.0,0.0,0.0,-5.8098,-5.9588,-6.061,-6.1781,-6.3073,-6.2586,-6.2146,-6.2013,-6.0018,-5.8206,-5.6767,-5.5686,-5.4567,-5.3193,-5.3024,0.0,0.0,0.0,0.0,0.0,0.0,0.0,0.0,0.0,0.0,0.0,0.0,0.0,0.0,0.0,0.0,0.0,0.0,0.0,0.0,-5.0375,0.0,0.0,0.0,0.0,0.0,0.0,0.0,0.0,0.0,0.0,-5.3803,-5.4561,-5.511,-5.4977,0.0,0.0,0.0,0.0,-5.6405,-5.602,-5.6525,-5.6707,-5.607,-5.5731,-5.5581,-5.5581,0.0,0.0,-5.4341,-5.476,-5.497,-5.4371,-5.476,-5.51,-5.4658,-5.4189,-5.391,-5.391,-5.391,-5.3958,-5.3958,-5.3971,-5.391,-6.0165,0.0,0.0,0.0,0.0,-5.6167,-5.6343,-5.689,-5.6122,-5.5662,-5.5368,-5.4933,0.0,0.0,0.0,0.0,0.0,0.0,-5.7253,-5.8358,-5.9717,-6.0564,-6.1036,-6.1808,-6.1998,-6.1799,-6.1351,-6.1127,-6.106,-5.9956,-5.8386,-5.6493,0.0,0.0,0.0,0.0,-5.7983,-5.9303,-6.0521,-6.1318,-6.1715,-6.2013,-6.1438,-5.9876,-5.9254,-5.8232,-5.6724,-5.5467,-5.4557,-5.4168,-5.2724,0.0,0.0,0.0,0.0,0.0,0.0,0.0,0.0,0.0,0.0,0.0,0.0,0.0,0.0,0.0,0.0,0.0,0.0,0.0,-5.0987,-5.0381,-5.0802,0.0,0.0,0.0,0.0,0.0,0.0,0.0,0.0,0.0,-5.5117,-5.5204,-5.542,0.0,0.0,-5.578,-5.588,-5.5882,-5.5842,-5.5711,-5.5682,0.0,-5.5461,-5.5381,-5.528,-5.533,-5.5229,-5.5119,-5.494,-5.5059,-5.5119,-5.494,-5.5059,-5.517,-5.504,-5.491,-5.486,-5.481,-5.481,-5.481,-5.481,-5.481,-5.466,-6.3257,-6.0976,-5.9477,-5.9098,-5.9381,-5.8911,-5.9257,-5.9926,-5.9238,-5.8601,-5.8171,-5.7608,-5.6906,-5.6249,-5.6065,0.0,0.0,0.0,-5.9392,-6.0861,-6.1169,-6.1781,-6.2652,-6.3116,-6.3315,-6.3239,-6.2851,-6.2818,-6.3007,-6.2013,-6.0912,-5.9658,0.0,0.0,-5.7557,-5.8146,-5.8831,-5.9651,-6.0613,-6.1119,-6.1119,-6.1264,-6.0693,-5.9382,-5.8756,-5.8052,-5.7153,-5.5522,-5.4505,-5.4246,-5.2754,-5.1845,0.0,0.0,0.0,0.0,0.0,0.0,0.0,0.0,0.0,0.0,0.0,-5.1059,-5.0895,0.0,0.0,0.0,-5.039,-5.1046,-5.1824,-5.1515,0.0,0.0,0.0,0.0,0.0,0.0,0.0,-5.6397,-5.6295,-5.6067,-5.5971,-5.5857,-5.5768,-5.567,-5.5681,-5.5731,-5.583,0.0,-5.5933,-5.5761,-5.5872,-5.5832,-5.5591,-5.5431,-5.533,-5.5229,-5.5209,-5.5299,-5.5538,-5.5359,-5.5299,-5.5478,-5.5359,-5.5209,-5.5209,-5.5209,-5.5209,-5.5209,-5.5209,-5.5209,-5.5209,-5.5209,-5.5059,-6.5755,-6.6042,-6.3587,-6.2392,-6.223,-6.2121,-6.257,-6.3348,-6.2619,-6.2288,-6.2188,-6.0854,-5.9893,-5.9198,-5.8535,0.0,-6.1285,-6.1285,-6.198,-6.3315,-6.3338,-6.3382,-6.3415,-6.3438,-6.3438,-6.3481,-6.3481,-6.3802,-6.4365,-6.3107,-6.2752,-6.3249,-6.1459,-6.0265,-5.9689,-6.0131,-6.0417,-6.0377,-6.0878,-6.1119,-6.1002,-6.0292,-5.9881,-5.9697,-5.8426,-5.7693,-5.7511,-5.5677,-5.4331,-5.3729,-5.2934,-5.1904,-5.0806,0.0,0.0,0.0,0.0,0.0,0.0,0.0,0.0,0.0,0.0,0.0,0.0,0.0,0.0,0.0,-5.0943,0.0,-5.2293,-5.3239,0.0,0.0,0.0,-5.487,-5.4518,-5.5364,-5.5998,-5.6076,0.0,0.0,-5.6311,-5.6262,-5.5967,-5.528,-5.5259,-5.536,-5.5581,-5.6144,-5.6375,-5.602,-5.6414,-5.6627,-5.6072,-5.5892,-5.5701,-5.5529,-5.5299,-5.5508,-5.6038,-5.5718,-5.5568,-5.5897,-5.5628,-5.5239,-5.5209,-5.5209,-5.5209,-5.5299,-5.5239,-5.5209,-5.5209,-5.5209,-5.5209,-6.7045,-6.7423,-6.6057,-6.5238,-6.4839,-6.41,-6.3924,-6.4078,-6.3338,-6.305,-6.3017,-6.2643,-6.2411,-6.2212,-6.2047,-6.2245,-6.2775,-6.2742,-6.2941,-6.3348,-6.3868,-6.41,-6.4133,-6.4664,-6.4895,-6.4929,-6.4895,-6.4995,-6.516,-6.4829,-6.4167,-6.3348,-6.2828,-6.2058,-6.0998,-6.1213,-6.1313,-6.1117,-6.1276,-6.0969,-6.0259,-5.9564,-5.8652,-5.7571,-5.7231,-5.6524,-5.5472,-5.4467,-5.3896,-5.3652,-5.2061,-5.1231,-5.1393,-5.093,0.0,0.0,0.0,0.0,0.0,0.0,0.0,0.0,0.0,-5.2612,-5.2379,0.0,-5.2359,0.0,-5.2038,-5.1923,-5.2256,-5.2991,0.0,0.0,-5.5374,-5.5576,-5.6513,-5.5871,-5.5773,-5.6758,-5.6414,-5.6066,-5.6017,-5.6017,-5.58,-5.528,-5.5531,-5.583,-5.588,-5.5851,-5.5812,-5.5741,-5.5712,-5.5741,-5.6101,-5.65,-5.6719,-5.6697,-5.6256,-5.6017,-5.6218,-5.6098,-5.5837,-5.5538,-5.5748,-5.5718,-5.5299,-5.5209,-5.5418,-5.5777,-5.5538,-5.5209,-5.5209,-5.5209,-5.5329,-6.8323,-6.8726,-6.8188,-6.7135,-6.5721,-6.5116,-6.4862,-6.4796,-6.4399,-6.4067,-6.3736,-6.3448,-6.3471,-6.3813,-6.3813,-6.3935,-6.4233,-6.4233,-6.4233,-6.4233,-6.4664,-6.4862,-6.4862,-6.5227,-6.5425,-6.5425,-6.5425,-6.5425,-6.5425,-6.5425,-6.5028,-6.4233,-6.4233,-6.38,-6.2882,-6.1916,-6.1375,-6.1252,-6.0928,-6.0515,-6.0001,-5.8953,-5.8001,-5.7155,-5.6804,-5.6215,-5.5331,-5.4677,-5.4348,-5.4286,-5.2978,-5.2258,-5.2251,-5.2018,-5.1891,0.0,0.0,0.0,0.0,0.0,0.0,0.0,0.0,0.0,0.0,0.0,-5.3575,-5.3978,-5.3345,-5.3206,-5.3899,-5.4467,-5.5173,-5.6101,-5.5824,-5.579,-5.6365,-5.5682,-5.5474,-5.6134,-5.5849,-5.5601,-5.5601,-5.5601,-5.5501,-5.5259,-5.5701,-5.5963,-5.5691,-5.5481,-5.5521,-5.5822,-5.573,-5.5837,-5.6496,-5.6855,-5.7094,-5.7064,-5.6795,-5.6585,-5.6585,-5.6398,-5.6137,-5.6047,-5.6158,-5.6166,-5.6047,-5.6047,-5.6064,-5.5804,-5.5976,-5.5906,-5.5688,-5.524,-5.4968,-6.937,-6.9765,-6.9699,-6.8239,-6.6002,-6.5676,-6.5303,-6.4949,-6.4949,-6.4729,-6.4288,-6.3802,-6.3945,-6.4498,-6.4498,-6.4829,-6.5392,-6.5425,-6.5425,-6.5425,-6.5425,-6.5425,-6.5425,-6.5425,-6.5425,-6.5425,-6.5425,-6.5425,-6.5425,-6.5425,-6.5359,-6.5293,-6.526,-6.4951,-6.4295,-6.2264,-6.1143,-6.1002,-6.0335,-5.9914,-5.9827,-5.8546,-5.7694,-5.7331,-5.6724,-5.6196,-5.5847,-5.526,-5.4944,-5.4944,-5.4324,-5.3692,-5.305,-5.3464,-5.3471,0.0,-5.3251,0.0,0.0,0.0,0.0,0.0,0.0,0.0,0.0,-5.4666,-5.4965,-5.5083,-5.4618,-5.464,-5.5701,-5.6203,-5.6311,-5.5869,-5.5819,-5.5651,-5.5229,-5.5209,-5.5209,-5.5209,-5.5209,-5.5179,-5.5229,-5.5239,-5.5329,-5.5388,-5.5948,-5.6158,-5.5649,-5.5559,-5.5769,-5.6278,-5.6376,-5.6675,-5.7124,-5.7281,-5.7371,-5.7393,-5.7251,-5.7191,-5.7244,-5.6825,-5.6585,-5.6915,-5.6735,-5.6615,-5.7034,-5.7064,-5.675,-5.5987,-5.6326,-5.6429,-5.5656,-5.4978,-5.4371,-6.9403,-6.9732,-6.9136,-6.8261,-6.7209,-6.6606,-6.4844,-6.2529,-6.2529,-6.3015,-6.3833,-6.4652,-6.5094,-6.5227,-6.5227,-6.5293,-6.5425,-6.5425,-6.5425,-6.5425,-6.5425,-6.5425,-6.5425,-6.5425,-6.5425,-6.5425,-6.5425,-6.5425,-6.5425,-6.5425,-6.5127,-6.4597,-6.4564,-6.3945,-6.2728,0.0,0.0,0.0,-6.0001,-5.9476,-5.8882,-5.8395,-5.7565,-5.6499,-5.6334,0.0,-5.4534,-5.4356,-5.4292,-5.4261,-5.3629,0.0,0.0,0.0,0.0,0.0,0.0,0.0,0.0,0.0,0.0,0.0,-5.443,-5.4493,-5.4567,-5.5283,-5.5317,-5.4307,-5.4983,-5.5255,-5.4616,-5.5139,-5.5481,-5.533,-5.533,-5.528,-5.5179,-5.5209,-5.5209,-5.5209,-5.5209,-5.5209,-5.5269,-5.5628,-5.5957,-5.6017,-5.6526,-5.6855,-5.6735,-5.6675,-5.6765,-5.6944,-5.7334,-5.7752,-5.7902,-5.8137,-5.8375,-5.8573,-5.8047,-5.7696,-5.7819,-5.7812,-5.7513,-5.7274,-5.7453,-5.7543,-5.7214,-5.7094,-5.7228,-5.7494,-5.6603,-5.5209,-5.3568,-5.3859,-5.4128,-6.9561,0.0,-6.9368,-6.8267,0.0,-6.6331,-6.4538,-6.1977,-6.3113,-6.392,-6.4539,-6.5126,-6.5425,-6.5392,-6.4895,-6.4685,-6.4685,-6.4221,-6.4266,-6.4685,-6.4685,-6.4928,-6.5425,-6.5425,-6.5425,-6.5425,-6.5425,-6.5425,-6.5425,-6.5425,-6.5227,-6.4895,-6.4416,-6.3785,-6.3031,-6.1833,-6.0789,-5.9968,-5.9399,-5.8683,-5.7855,-5.7464,-5.6949,-5.6136,-5.621,0.0,0.0,0.0,0.0,0.0,0.0,0.0,0.0,0.0,0.0,-5.3664,-5.4084,-5.4229,-5.4009,-5.4501,-5.4804,-5.4746,-5.5253,-5.5392,-5.4931,-5.566,-5.5645,-5.4696,-5.546,-5.5691,-5.484,-5.4999,-5.5209,-5.5209,-5.5209,-5.5209,-5.5209,-5.5478,-5.5658,-5.5718,-5.5927,-5.6137,-5.6137,-5.6406,-5.6615,-5.6675,-5.7184,-5.7603,-5.7573,-5.7304,-5.7184,-5.7543,-5.8171,-5.859,-5.8567,-5.8589,-5.8803,-5.8961,-5.856,-5.8232,-5.8118,-5.8141,-5.7992,-5.7693,-5.7902,-5.8052,-5.8141,-5.8082,-5.7922,-5.7355,-5.6957,-5.5474,-5.2575,-5.2212,-5.2546,-6.9898,-6.9798,-6.9798,-6.8484,-6.6297,-6.6166,-6.4754,-6.2639,0.0,0.0,0.0,-6.5315,-6.5425,-6.5348,-6.4619,-6.4233,-6.42,-6.3451,-6.3528,-6.4233,-6.4233,-6.4652,-6.5392,-6.5425,-6.5425,-6.5425,-6.5425,-6.5425,-6.5425,-6.5425,-6.5336,-6.5078,-6.4314,-6.3671,-6.3159,-6.1074,-5.9708,-5.9075,-5.8619,-5.7963,-5.7053,-5.6748,-5.6488,-5.6233,-5.6466,-5.6148,-5.5323,-5.526,-5.5007,-5.4514,-5.4482,-5.466,-5.5096,-5.5172,-5.538,-5.5812,-5.5757,-5.5547,-5.5163,-5.5499,-5.5534,-5.505,-5.5983,-5.6305,-5.564,-5.6093,-5.6107,-5.5568,-5.6017,-5.6107,-5.5598,-5.5538,-5.5538,-5.5538,-5.5508,-5.5538,-5.5568,-5.5987,-5.6316,-5.6376,-5.6735,-5.7094,-5.7034,-5.7184,-5.7274,-5.7363,-5.7872,-5.8291,-5.8231,-5.7872,-5.7752,-5.8231,-5.871,-5.9069,-5.9045,-5.8773,-5.8773,-5.8991,-5.8828,-5.851,-5.8363,-5.8291,-5.8291,-5.8321,-5.8291,-5.8501,-5.8949,-5.8673,-5.8115,-5.6654,-5.6497,-5.5649,-5.2011,-5.0628,-5.0405,-7.0394,-6.9798,-6.9798,-6.9235,-6.8247,-6.7619,-6.6415,-6.4871,-6.4141,-6.3842,-6.392,-6.4949,-6.5425,-6.5425,-6.5248,-6.5215,-6.5215,-6.5071,-6.5071,-6.5215,-6.5215,-6.5281,-6.5392,-6.5425,-6.5425,-6.5425,-6.5425,-6.5425,-6.5425,-6.5425,-6.4988,-6.4175,-6.3941,-6.2824,-6.0805,-5.9744,-5.8483,-5.707,-5.7621,-5.7621,-5.7084,-5.7417,-5.7402,-5.7081,-5.705,-5.6762,-5.6018,-5.5942,-5.5923,-5.5828,-5.5828,-5.5682,-5.5371,-5.5371,-5.5206,-5.4962,-5.5441,-5.5703,-5.5608,-5.6015,-5.6073,-5.559,-5.6002,-5.6522,-5.7088,-5.7062,-5.6944,-5.6825,-5.6885,-5.6944,-5.6825,-5.6795,-5.6765,-5.6795,-5.6795,-5.6825,-5.6765,-5.6885,-5.6974,-5.6974,-5.7034,-5.7154,-5.7244,-5.7633,-5.7962,-5.8082,-5.8471,-5.8919,-5.889,-5.889,-5.886,-5.8949,-5.9039,-5.9099,-5.9045,-5.8609,-5.8609,-5.8991,-5.8634,-5.847,-5.8811,-5.889,-5.886,-5.8919,-5.883,-5.889,-5.8955,-5.7778,-5.6874,-5.6142,-5.4482,-5.2097,-5.0884,-4.9756,-4.8737,-7.0693,-7.0328,-6.9964,-6.9368,-6.8606,-6.7479,-6.6651,-6.591,-6.5003,-6.4584,-6.4617,-6.5171,-6.5425,-6.5348,-6.4862,-6.4652,-6.4619,-6.4122,-6.4155,-6.4619,-6.4652,-6.4895,-6.5392,-6.5425,-6.5425,-6.5425,-6.5425,-6.5425,-6.5425,-6.5425,-6.4897,-6.3894,-6.2729,-6.1139,-5.9153,-5.8715,-5.792,-5.6614,-5.7095,-5.7005,-5.6342,-5.6779,-5.696,-5.6776,-5.6886,-5.6622,-5.5937,-5.5875,-5.5719,-5.5376,-5.5345,-5.544,-5.555,-5.555,-5.5642,-5.5807,-5.5971,-5.6076,-5.6076,-5.5993,-5.6083,-5.6423,-5.6599,-5.7176,-5.8301,-5.7925,-5.7483,-5.7154,-5.7423,-5.7483,-5.7154,-5.7094,-5.7094,-5.7094,-5.7094,-5.7094,-5.7154,-5.7453,-5.7663,-5.7693,-5.7962,-5.8171,-5.8171,-5.8471,-5.865,-5.868,-5.8979,-5.9099,-5.9099,-5.9099,-5.9099,-5.9099,-5.9099,-5.9099,-5.9099,-5.8773,-5.8719,-5.9045,-5.8719,-5.8664,-5.8991,-5.9099,-5.8949,-5.865,-5.859,-5.8411,-5.8141,-5.6844,-5.5925,-5.5134,-5.3635,-5.1821,-5.056,-4.9147,-4.8315,-7.1024,-7.0825,-7.0096,-6.9368,-6.8606,-6.7479,-6.685,-6.6485,-6.5844,-6.5558,-6.5425,-6.5425,-6.5425,-6.5315,-6.4619,-6.4299,-6.4233,-6.3561,-6.3627,-6.4266,-6.4299,-6.4685,-6.5315,-6.5425,-6.5425,-6.5425,-6.5425,-6.5425,-6.5425,-6.5425,-6.4761,-6.3483,-6.164,-5.9792,-5.8141,-5.8141,-5.7588,-5.6687,-5.6849,-5.661,-5.583,-5.6176,-5.6421,-5.6519,-5.6713,-5.6532,-5.5992,-5.593,-5.5684,-5.5253,-5.5191,-5.5438,-5.5899,-5.593,-5.6176,-5.67,-5.6567,-5.6323,-5.6225,-5.583,-5.5962,-5.6817,-5.7004,-5.7603,-5.868,-5.856,-5.8141,-5.7693,-5.8052,-5.8112,-5.7723,-5.7603,-5.7543,-5.7543,-5.7543,-5.7633,-5.7603,-5.8022,-5.8351,-5.8411,-5.88,-5.9069,-5.9099,-5.9099,-5.9069,-5.9069,-5.9099,-5.9099,-5.9099,-5.9099,-5.9099,-5.9099,-5.9099,-5.9099,-5.9099,-5.8828,-5.8828,-5.9045,-5.8882,-5.8738,-5.8841,-5.886,-5.862,-5.8082,-5.7902,-5.7723,-5.7139,-5.5752,-5.4736,-5.4007,-5.2517,-5.1011,-4.9751,-4.8868,-4.823,-7.1488,-7.0825,-7.0096,-6.9368,-6.8738,-6.8506,-6.7711,-6.6573,-6.6452,-6.6022,-6.5425,-6.5425,-6.5425,-6.5425,-6.5281,-6.5215,-6.5248,-6.5138,-6.5138,-6.5215,-6.5281,-6.5315,-6.5425,-6.5425,-6.5425,-6.5425,-6.5425,-6.5425,-6.5425,-6.5381,-6.4407,-6.2534,-6.1286,-5.9875,-5.8361,-5.8141,-5.7641,-5.6606,-5.6809,-5.6724,-5.6354,-5.6372,-5.6519,-5.6761,-5.6761,-5.6779,-5.6656,-5.6717,-5.6686,-5.6625,-5.6594,-5.6625,-5.6686,-5.6686,-5.6748,-5.681,-5.6567,-5.6176,-5.5731,-5.5631,-5.5842,-5.6248,-5.6907,-5.7453,-5.8231,-5.871,-5.8979,-5.886,-5.8949,-5.8919,-5.8919,-5.886,-5.877,-5.874,-5.877,-5.8919,-5.886,-5.8979,-5.9009,-5.9009,-5.9039,-5.9099,-5.9099,-5.9099,-5.9099,-5.9099,-5.9099,-5.9099,-5.9099,-5.9099,-5.9099,-5.9099,-5.9099,-5.9099,-5.9045,-5.8882,-5.8798,-5.9015,-5.8882,-5.856,-5.8304,-5.8171,-5.7992,-5.7393,-5.7184,-5.7124,-5.6466,-5.5002,-5.3073,-5.271,-5.1068,-4.8716,-4.8405,-4.8289,-4.8172,-7.1819,-7.1421,-7.0295,-6.9633,-6.9301,-6.8871,-6.8109,-6.7135,-6.6639,-6.6088,-6.5459,-6.5425,-6.5425,-6.5425,-6.5425,-6.5425,-6.5425,-6.5425,-6.5425,-6.5425,-6.5425,-6.5425,-6.5425,-6.5425,-6.5425,-6.5425,-6.5425,-6.5425,-6.5303,-6.4773,-6.4081,-6.3148,-6.1539,-6.0371,-5.9657,-5.9161,-5.8603,-5.7989,-5.8237,-5.8206,-5.7783,-5.7015,-5.6713,-5.6761,-5.681,-5.681,-5.681,-5.681,-5.681,-5.681,-5.681,-5.681,-5.681,-5.681,-5.681,-5.681,-5.6713,-5.6654,-5.6705,-5.6655,-5.694,-5.7587,-5.7836,-5.8234,-5.862,-5.8949,-5.9099,-5.9099,-5.9099,-5.9099,-5.9099,-5.9099,-5.9099,-5.9099,-5.9099,-5.9099,-5.9099,-5.9099,-5.9099,-5.9099,-5.9099,-5.9099,-5.9099,-5.9099,-5.9099,-5.9099,-5.9099,-5.9099,-5.9099,-5.9099,-5.9099,-5.9099,-5.9099,-5.9099,-5.9099,-5.8991,-5.8841,-5.8596,-5.8423,-5.8184,-5.767,-5.7513,-5.7304,-5.6645,-5.6555,-5.6376,-5.5957,-5.4028,-5.2068,-5.1516,-5.0227,-4.8172,-4.8172,-4.8172,-4.8172,-7.2183,-7.1786,-7.0428,-6.9798,-6.9732,-6.9235,-6.8572,-6.7877,-6.7148,-6.6419,-6.5724,-6.5525,-6.5425,-6.5425,-6.5425,-6.5425,-6.5425,-6.5425,-6.5425,-6.5425,-6.5425,-6.5425,-6.5425,-6.5425,-6.5425,-6.5425,-6.5425,-6.5425,-6.5303,-6.4715,-6.4035,-6.3292,-6.1891,-6.0877,-6.0337,-5.9766,-5.9357,-5.9066,-5.9265,-5.9185,-5.8681,-5.7857,-5.7364,-5.7364,-5.7364,-5.7364,-5.7364,-5.7364,-5.7364,-5.7364,-5.721,-5.7087,-5.7087,-5.6933,-5.6854,-5.6959,-5.699,-5.715,-5.7545,-5.7556,-5.7872,-5.8467,-5.8444,-5.855,-5.8943,-5.8949,-5.8949,-5.9099,-5.9099,-5.9099,-5.9099,-5.9099,-5.9099,-5.9099,-5.9099,-5.9099,-5.9099,-5.9099,-5.9099,-5.9099,-5.9099,-5.9099,-5.9099,-5.9099,-5.9099,-5.9099,-5.9099,-5.9099,-5.9099,-5.9099,-5.9099,-5.9099,-5.9099,-5.9099,-5.9099,-5.8806,-5.862,-5.8291,-5.7999,-5.755,-5.7004,-5.6855,-5.6615,-5.6047,-5.5957,-5.5786,-5.5364,-5.3559,-5.1265,-5.0601,-4.9388,-4.8172,-4.8172,-4.8172,-4.8172,-7.2647,-7.1819,-7.0394,-6.9831,-6.9798,-6.9732,-6.9301,-6.8539,-6.7877,-6.7148,-6.6386,-6.5757,-6.5425,-6.5425,-6.5425,-6.5425,-6.5425,-6.5425,-6.5425,-6.5425,-6.5425,-6.5425,-6.5425,-6.5425,-6.5425,-6.5425,-6.5425,-6.5425,-6.5381,-6.5336,-6.4328,-6.2534,-6.2288,-6.1337,-5.9978,-5.9636,-5.9463,-5.9469,-5.946,-5.9277,-5.8916,-5.8762,-5.8701,-5.8701,-5.867,-5.8577,-5.8639,-5.867,-5.8639,-5.867,-5.8054,-5.7746,-5.7734,-5.721,-5.7033,-5.7327,-5.737,-5.7575,-5.7953,-5.7973,-5.8174,-5.8437,-5.8113,-5.8068,-5.8883,-5.856,-5.853,-5.9069,-5.9099,-5.9099,-5.9099,-5.9099,-5.9099,-5.9099,-5.9099,-5.9099,-5.9099,-5.9099,-5.9099,-5.9099,-5.9099,-5.9099,-5.9099,-5.9099,-5.9099,-5.9099,-5.9099,-5.9069,-5.9009,-5.9039,-5.9009,-5.8949,-5.8949,-5.9069,-5.9009,-5.868,-5.8291,-5.7902,-5.7453,-5.6944,-5.6526,-5.6137,-5.5777,-5.5538,-5.5448,-5.5257,-5.4803,-5.3337,-5.1044,-4.9786,-4.8957,-4.8172,-4.8172,-4.8172,-4.8172,-7.2382,-7.1256,-7.0726,-7.0229,-6.9798,-6.9798,-6.9368,-6.8672,-6.844,-6.7612,-6.6618,-6.622,-6.5856,-6.5425,-6.5425,-6.5425,-6.5425,-6.5425,-6.5425,-6.5425,-6.5425,-6.5425,-6.5425,-6.5425,-6.5425,-6.5425,-6.5425,-6.5425,-6.5425,-6.5425,-6.4773,-6.3673,-6.2875,-6.194,-6.0887,-6.0294,-6.0097,-6.0041,-6.0218,-6.0198,-6.0055,-6.0086,-6.0086,-6.0024,-5.9224,-5.8793,-5.8793,-5.8793,-5.8793,-5.8793,-5.8547,-5.8473,-5.8393,-5.8177,-5.8146,-5.8293,-5.8123,-5.8298,-5.8756,-5.8693,-5.8607,-5.8587,-5.8384,-5.8219,-5.8374,-5.8291,-5.8381,-5.8919,-5.9099,-5.9099,-5.9099,-5.9099,-5.9099,-5.9099,-5.9099,-5.9099,-5.9099,-5.9099,-5.9099,-5.9099,-5.9099,-5.9099,-5.9069,-5.9099,-5.9099,-5.9099,-5.9099,-5.889,-5.856,-5.8471,-5.8381,-5.7962,-5.7812,-5.7812,-5.7812,-5.8082,-5.7992,-5.7453,-5.6915,-5.6316,-5.5807,-5.5658,-5.5388,-5.5359,-5.5209,-5.5078,-5.4692,-5.3045,-5.0768,-4.916,-4.8347,-4.8172,-4.8172,-4.8172,-4.8172,-7.2382,-7.1289,-7.0991,-7.0494,-6.9831,-6.9798,-6.95,-6.9036,-6.8771,-6.8009,-6.6982,-6.6651,-6.6076,-6.5492,-6.5425,-6.5425,-6.5425,-6.5425,-6.5425,-6.5425,-6.5425,-6.5425,-6.5425,-6.5425,-6.5425,-6.5425,-6.5425,-6.5425,-6.5425,-6.5425,-6.4852,-6.3768,-6.3052,-6.2171,-6.1246,-6.0607,-6.0429,-6.0534,-6.069,-6.0794,-6.0794,-6.0794,-6.0794,-6.0671,-5.9901,-5.9439,-5.9439,-5.9439,-5.9439,-5.9408,-5.9224,-5.9008,-5.8824,-5.8793,-5.8885,-5.8969,-5.8797,-5.9001,-5.9478,-5.9392,-5.907,-5.8648,-5.8384,-5.8159,-5.7835,-5.7633,-5.7932,-5.853,-5.88,-5.883,-5.9069,-5.9099,-5.9099,-5.9099,-5.9099,-5.9099,-5.9099,-5.9099,-5.9099,-5.9099,-5.9099,-5.9039,-5.883,-5.88,-5.865,-5.8501,-5.862,-5.8501,-5.7962,-5.7992,-5.7872,-5.7274,-5.7184,-5.7214,-5.7184,-5.7334,-5.7304,-5.6795,-5.6346,-5.5718,-5.5418,-5.5269,-5.5209,-5.5209,-5.5128,-5.4976,-5.4097,-5.2484,-5.0796,-4.9045,-4.8405,-4.8172,-4.8172,-4.8172,-4.8172,-7.268,-7.1885,-7.1223,-7.0461,-6.9831,-6.9798,-6.9798,-6.9599,-6.9036,-6.8307,-6.7479,-6.6883,-6.622,-6.5525,-6.5425,-6.5425,-6.5425,-6.5425,-6.5425,-6.5425,-6.5425,-6.5425,-6.5425,-6.5425,-6.5425,-6.5425,-6.5425,-6.5425,-6.5425,-6.5348,-6.4545,-6.31,-6.2778,-6.2022,-6.0481,-6.0481,-6.0534,-6.0742,-6.0794,-6.0794,-6.0794,-6.0794,-6.0794,-6.0794,-6.0671,-6.064,-6.0701,-6.0671,-6.0609,-6.0609,-6.0116,-5.9501,-5.9039,-5.8978,-5.9031,-5.943,-5.942,-5.9631,-5.9917,-5.9895,-5.9433,-5.8535,-5.7962,-5.7527,-5.7116,-5.6675,-5.6855,-5.7842,-5.8148,-5.8381,-5.8919,-5.9069,-5.9099,-5.9099,-5.9099,-5.9099,-5.9099,-5.9099,-5.9099,-5.9099,-5.9039,-5.88,-5.8351,-5.8141,-5.7962,-5.7723,-5.7902,-5.7992,-5.7453,-5.7663,-5.7723,-5.7184,-5.6765,-5.6615,-5.6615,-5.6615,-5.6376,-5.6158,-5.5718,-5.5269,-5.5299,-5.5209,-5.5209,-5.5209,-5.5209,-5.4976,-5.3442,-5.1892,-5.074,-4.9247,-4.8784,-4.823,-4.8172,-4.8172,-4.8172,-7.268,-7.1951,-7.1189,-7.0461,-6.9831,-6.9798,-6.9798,-6.9765,-6.9533,-6.8771,-6.7698,-6.7334,-6.6573,-6.5624,-6.5425,-6.5425,-6.5425,-6.5425,-6.5425,-6.5425,-6.5425,-6.5425,-6.5425,-6.5425,-6.5425,-6.5425,-6.5425,-6.5425,-6.5425,-6.5425,-6.4545,-6.3292,-6.3004,-6.2171,-6.0742,-6.069,-6.0742,-6.0794,-6.0794,-6.0794,-6.0794,-6.0794,-6.0794,-6.0794,-6.0794,-6.0794,-6.0794,-6.0794,-6.0794,-6.0794,-6.0609,-6.0363,-6.0209,-6.0178,-6.027,-6.0352,-6.0175,-6.0028,-5.9925,-5.9743,-5.9047,-5.7903,-5.7371,-5.6989,-5.6577,-5.6308,-5.6526,-5.7363,-5.7812,-5.8231,-5.8441,-5.886,-5.9069,-5.9099,-5.9099,-5.9099,-5.9099,-5.9099,-5.9099,-5.9039,-5.871,-5.8351,-5.8082,-5.7812,-5.7573,-5.7693,-5.7932,-5.7842,-5.7334,-5.7274,-5.6915,-5.6047,-5.5927,-5.5957,-5.5957,-5.5957,-5.5807,-5.5718,-5.5418,-5.5209,-5.5209,-5.5209,-5.5209,-5.5128,-5.5128,-5.4406,-5.2886,-5.162,-5.0629,-4.9418,-4.8611,-4.8289,-4.823,-4.8172,-4.8172,-7.268,-7.1951,-7.1223,-7.0461,-6.9831,-6.9798,-6.9798,-6.9798,-6.9798,-6.9136,-6.8142,-6.7744,-6.6937,-6.5955,-6.5558,-6.5425,-6.5425,-6.5425,-6.5425,-6.5425,-6.5425,-6.5425,-6.5425,-6.5425,-6.5425,-6.5425,-6.5425,-6.5425,-6.5425,-6.5348,-6.4591,-6.334,-6.31,-6.2351,-6.0949,-6.0794,-6.0794,-6.0794,-6.0794,-6.0794,-6.0794,-6.0794,-6.0794,-6.0794,-6.0794,-6.0794,-6.0794,-6.0794,-6.0794,-6.0794,-6.0794,-6.0794,-6.0794,-6.0763,-6.0742,-6.0638,-6.0481,-6.0272,-5.9986,-5.972,-5.8904,-5.7633,-5.7146,-5.6675,-5.6047,-5.5807,-5.6077,-5.6705,-5.7334,-5.7842,-5.8171,-5.871,-5.9069,-5.9099,-5.9099,-5.9099,-5.9099,-5.9099,-5.9099,-5.9039,-5.877,-5.8321,-5.7782,-5.7752,-5.7363,-5.7543,-5.7812,-5.7723,-5.7154,-5.6944,-5.6286,-5.5658,-5.5418,-5.5388,-5.5269,-5.5239,-5.5239,-5.5269,-5.5269,-5.5209,-5.5209,-5.5209,-5.5179,-5.4926,-5.4845,-5.4252,-5.2804,-5.2082,-5.1155,-4.9872,-4.8784,-4.8611,-4.8611,-4.823,-4.8172,-7.2647,-7.1918,-7.1156,-7.0394,-6.9831,-6.9798,-6.9798,-6.9798,-6.9798,-6.9368,-6.8606,-6.8009,-6.7301,-6.6552,-6.5922,-6.5591,-6.5492,-6.5425,-6.5425,-6.5425,-6.5425,-6.5425,-6.5425,-6.5425,-6.5425,-6.5425,-6.5425,-6.5425,-6.5425,-6.5381,-6.4623,-6.3244,-6.3052,-6.2351,-6.1072,-6.0794,-6.0794,-6.0794,-6.0794,-6.0794,-6.0794,-6.0794,-6.0794,-6.0794,-6.0794,-6.0794,-6.0794,-6.0794,-6.0794,-6.0794,-6.0794,-6.0794,-6.0794,-6.0794,-6.069,-6.0481,-6.0429,-6.0302,-6.0039,-5.9827,-5.9123,-5.7954,-5.7453,-5.6667,-5.579,-5.5589,-5.5769,-5.6226,-5.6825,-5.7423,-5.8052,-5.871,-5.9069,-5.9099,-5.9099,-5.9099,-5.9099,-5.9099,-5.9099,-5.9099,-5.9009,-5.862,-5.7483,-5.7723,-5.7363,-5.7124,-5.7513,-5.7483,-5.7064,-5.6855,-5.6436,-5.5927,-5.5418,-5.5209,-5.5209,-5.5209,-5.5209,-5.5209,-5.5209,-5.5209,-5.5209,-5.5209,-5.5209,-5.4926,-5.4641,-5.3912,-5.3203,-5.2512,-5.1648,-5.0573,-4.9816,-4.9388,-4.8988,-4.8726,-4.8347,-7.2183,-7.1885,-7.0626,-6.9964,-6.9798,-6.9798,-6.9798,-6.9798,-6.9798,-6.9401,-6.8771,-6.8506,-6.7976,-6.7235,-6.6539,-6.622,-6.6121,-6.5657,-6.5425,-6.5425,-6.5425,-6.5425,-6.5425,-6.5425,-6.5425,-6.5425,-6.5425,-6.5425,-6.5425,-6.5425,-6.4591,-6.3148,-6.3052,-6.2351,-6.1021,-6.0794,-6.0794,-6.0794,-6.0794,-6.0794,-6.0794,-6.0794,-6.0794,-6.0794,-6.0794,-6.0794,-6.0794,-6.0794,-6.0794,-6.0794,-6.0794,-6.0794,-6.0794,-6.0794,-6.0742,-6.069,-6.069,-6.0586,-6.0324,-6.0167,-5.9635,-5.8811,-5.8286,-5.7617,-5.6353,-5.608,-5.6068,-5.6338,-5.6735,-5.7393,-5.8052,-5.871,-5.9039,-5.9099,-5.9099,-5.9099,-5.9099,-5.9099,-5.9099,-5.9069,-5.871,-5.8261,-5.7932,-5.7633,-5.7543,-5.7603,-5.7812,-5.8052,-5.7513,-5.7124,-5.6855,-5.6166,-5.5658,-5.5359,-5.5209,-5.5209,-5.5209,-5.5209,-5.5209,-5.5209,-5.5209,-5.5209,-5.5209,-5.5128,-5.5027,-5.4458,-5.3808,-5.3097,-5.2162,-5.1292,-5.1127,-5.074,-4.9985,-4.9475,-4.8873,-7.2018,-7.1885,-7.0394,-6.9798,-6.9798,-6.9798,-6.9798,-6.9798,-6.9798,-6.9566,-6.9136,-6.8804,-6.8473,-6.8009,-6.7268,-6.6937,-6.6883,-6.622,-6.5889,-6.5889,-6.5922,-6.5724,-6.5492,-6.5425,-6.5425,-6.5425,-6.5425,-6.5425,-6.5425,-6.5425,-6.4545,-6.3388,-6.31,-6.227,-6.0897,-6.0794,-6.0794,-6.0794,-6.0794,-6.0794,-6.0794,-6.0794,-6.0794,-6.0794,-6.0794,-6.0794,-6.0794,-6.0794,-6.0794,-6.0794,-6.0794,-6.0794,-6.0794,-6.0794,-6.0794,-6.0794,-6.0794,-6.0742,-6.0586,-6.0481,-6.0019,-5.9314,-5.8932,-5.8179,-5.729,-5.6895,-5.6792,-5.6697,-5.7154,-5.7663,-5.8112,-5.871,-5.9039,-5.9099,-5.9099,-5.9099,-5.9099,-5.9099,-5.9099,-5.9009,-5.88,-5.8381,-5.8201,-5.7962,-5.7992,-5.8141,-5.8321,-5.8321,-5.8082,-5.7723,-5.7304,-5.6675,-5.6107,-5.5777,-5.5508,-5.5418,-5.5239,-5.5209,-5.5209,-5.5209,-5.5209,-5.5209,-5.5209,-5.5209,-5.5209,-5.4976,-5.42,-5.3571,-5.3097,-5.2566,-5.2459,-5.1729,-5.0685,-4.9901,-4.9331,-7.2018,-7.1885,-7.0394,-6.9798,-6.9798,-6.9798,-6.9798,-6.9798,-6.9798,-6.9765,-6.9599,-6.9069,-6.8871,-6.8738,-6.8076,-6.7744,-6.7678,-6.6738,-6.6519,-6.6386,-6.6287,-6.6055,-6.5922,-6.5724,-6.5591,-6.5459,-6.5425,-6.5425,-6.5425,-6.5425,-6.4545,-6.3436,-6.31,-6.2252,-6.1072,-6.0794,-6.0794,-6.0794,-6.0794,-6.0794,-6.0794,-6.0794,-6.0794,-6.0794,-6.0794,-6.0794,-6.0794,-6.0794,-6.0794,-6.0794,-6.0794,-6.0794,-6.0794,-6.0794,-6.0794,-6.0794,-6.0794,-6.0794,-6.0742,-6.0555,-6.0215,-5.9674,-5.9344,-5.872,-5.7997,-5.7661,-5.7453,-5.7214,-5.7782,-5.8082,-5.8351,-5.88,-5.9039,-5.9099,-5.9099,-5.9099,-5.9099,-5.9099,-5.9099,-5.9099,-5.9099,-5.88,-5.859,-5.865,-5.889,-5.8501,-5.868,-5.868,-5.8441,-5.8112,-5.7723,-5.7304,-5.6765,-5.6308,-5.5987,-5.5688,-5.5418,-5.5239,-5.5209,-5.5209,-5.5209,-5.5209,-5.5209,-5.5209,-5.5209,-5.4926,-5.4304,-5.386,-5.3704,-5.3495,-5.315,-5.2,-5.0851,-5.0182,-4.9532,-7.2018,-7.1885,-7.0394,-6.9798,-6.9798,-6.9798,-6.9798,-6.9798,-6.9798,-6.9798,-6.9765,-6.9599,-6.9533,-6.9467,-6.8804,-6.844,-6.8274,-6.7214,-6.6519,-6.6452,-6.5856,-6.6353,-6.6684,-6.6519,-6.5955,-6.5591,-6.5425,-6.5425,-6.5425,-6.5213,-6.4591,-6.3292,-6.2939,-6.2351,-6.1021,-6.0794,-6.0794,-6.0794,-6.0794,-6.0794,-6.0794,-6.0794,-6.0794,-6.0794,-6.0794,-6.0794,-6.0794,-6.0794,-6.0794,-6.0794,-6.0794,-6.0794,-6.0794,-6.0794,-6.0794,-6.0794,-6.0794,-6.0794,-6.0794,-6.0711,-6.0628,-6.0423,-5.9967,-5.95,-5.878,-5.8271,-5.8008,-5.7902,-5.8052,-5.8381,-5.877,-5.8979,-5.9099,-5.9099,-5.9099,-5.9099,-5.9099,-5.9099,-5.9099,-5.9099,-5.9099,-5.9039,-5.889,-5.8919,-5.9009,-5.8919,-5.8919,-5.9009,-5.877,-5.8441,-5.8201,-5.7902,-5.7393,-5.6885,-5.6555,-5.6137,-5.5598,-5.5299,-5.5209,-5.5209,-5.5209,-5.5209,-5.5209,-5.5209,-5.5209,-5.4794,-5.4458,-5.4641,-5.459,-5.4252,-5.3756,-5.2644,-5.1565,-5.074,-4.9562,-7.2316,-7.1885,-7.0759,-7.0096,-6.9831,-6.9798,-6.9798,-6.9798,-6.9798,-6.9798,-6.9798,-6.9798,-6.9798,-6.9765,-6.9401,-6.9202,-6.8871,-6.7711,-6.7049,-6.6883,-6.6353,-6.6386,-6.6771,-6.6751,-6.6254,-6.5922,-6.5558,-6.5425,-6.5336,-6.4988,-6.4268,-6.3148,-6.2793,-6.1985,-6.1,-6.0794,-6.0794,-6.0794,-6.0794,-6.0794,-6.0794,-6.0794,-6.0794,-6.0794,-6.0794,-6.0794,-6.0794,-6.0794,-6.0794,-6.0794,-6.0794,-6.0794,-6.0794,-6.0794,-6.0794,-6.0794,-6.0794,-6.0794,-6.0794,-6.0794,-6.0742,-6.0638,-6.0355,-5.9879,-5.9342,-5.8881,-5.8751,-5.8644,-5.862,-5.877,-5.9069,-5.9099,-5.9099,-5.9099,-5.9099,-5.9099,-5.9099,-5.9099,-5.9099,-5.9099,-5.9099,-5.9099,-5.9099,-5.9099,-5.9099,-5.9009,-5.9009,-5.9069,-5.9069,-5.88,-5.874,-5.8441,-5.7932,-5.7483,-5.7154,-5.6585,-5.5807,-5.5478,-5.5209,-5.5209,-5.5209,-5.5209,-5.5209,-5.5209,-5.5209,-5.5209,-5.4976,-5.5179,-5.5179,-5.4845,-5.4252,-5.3256,-5.2269,-5.1237,-4.9872,-7.2746,-7.2084,-7.1256,-7.0527,-6.9997,-6.9864,-6.9798,-6.9798,-6.9798,-6.9798,-6.9798,-6.9798,-6.9798,-6.9765,-6.9765,-6.9699,-6.9036,-6.8109,-6.7135,-6.7069,-6.6407,-6.6618,-6.685,-6.6618,-6.6452,-6.6506,-6.5823,-6.5459,-6.5213,-6.4636,-6.3988,-6.31,-6.2383,-6.1664,-6.1,-6.0794,-6.0794,-6.0794,-6.0794,-6.0794,-6.0794,-6.0794,-6.0794,-6.0794,-6.0794,-6.0794,-6.0794,-6.0794,-6.0794,-6.0794,-6.0794,-6.0794,-6.0794,-6.0794,-6.0794,-6.0794,-6.0794,-6.0794,-6.0794,-6.0742,-6.0638,-6.0377,-6.0272,-6.0008,-5.9576,-5.9332,-5.9171,-5.9093,-5.9039,-5.9039,-5.9099,-5.9099,-5.9099,-5.9099,-5.9099,-5.9099,-5.9099,-5.9099,-5.9099,-5.9099,-5.9099,-5.9099,-5.9099,-5.9099,-5.9099,-5.9099,-5.9099,-5.9099,-5.9099,-5.9099,-5.8979,-5.8949,-5.8471,-5.7723,-5.7304,-5.6406,-5.5718,-5.5508,-5.5209,-5.5209,-5.5209,-5.5209,-5.5209,-5.5209,-5.5209,-5.5209,-5.5209,-5.5209,-5.5179,-5.5179,-5.4539,-5.3361,-5.2484,-5.1702,-5.021,-7.3045,-7.2813,-7.1455,-7.0825,-7.0626,-7.0063,-6.9798,-6.9798,-6.9798,-6.9798,-6.9798,-6.9798,-6.9798,-6.9798,-6.9798,-6.9202,-6.8274,-6.7314,-6.6738,-6.6651,-6.6121,-6.632,-6.7314,-6.6353,-6.6287,-6.6817,-6.6154,-6.5425,-6.5213,-6.4636,-6.38,-6.3052,-6.2284,-6.1512,-6.1,-6.0794,-6.0794,-6.0794,-6.0794,-6.0794,-6.0794,-6.0794,-6.0794,-6.0794,-6.0794,-6.0794,-6.0794,-6.0794,-6.0794,-6.0794,-6.0794,-6.0794,-6.0794,-6.0794,-6.0794,-6.0794,-6.0794,-6.0794,-6.0742,-6.0586,-6.0481,-6.0324,-6.0008,-5.969,-5.9476,-5.9315,-5.9207,-5.9153,-5.9099,-5.9099,-5.9099,-5.9099,-5.9099,-5.9099,-5.9099,-5.9099,-5.9099,-5.9099,-5.9099,-5.9099,-5.9099,-5.9099,-5.9099,-5.9099,-5.9099,-5.9099,-5.9099,-5.9099,-5.9099,-5.9099,-5.9069,-5.9069,-5.9009,-5.8141,-5.7334,-5.6226,-5.5388,-5.5359,-5.5209,-5.5209,-5.5209,-5.5209,-5.5209,-5.5209,-5.5209,-5.5209,-5.5209,-5.5209,-5.5179,-5.5179,-5.4304,-5.3413,-5.2591,-5.1729,-5.0266,-7.321,-7.2481,-7.1753,-7.1024,-7.0328,-6.9964,-6.9798,-6.9798,-6.9798,-6.9798,-6.9798,-6.9798,-6.9798,-6.9798,-6.9798,-6.9169,-6.8109,-6.6982,-6.6585,-6.6353,-6.5889,-6.5823,-6.7049,-6.5823,-6.5922,-6.6121,-6.5724,-6.5425,-6.5258,-6.4175,-6.3531,-6.2955,-6.2035,-6.1155,-6.0897,-6.0794,-6.0794,-6.0794,-6.0794,-6.0794,-6.0794,-6.0794,-6.0794,-6.0794,-6.0794,-6.0794,-6.0794,-6.0794,-6.0794,-6.0794,-6.0794,-6.0794,-6.0794,-6.0794,-6.0794,-6.0794,-6.0794,-6.0742,-6.0638,-6.0429,-6.0272,-5.9955,-5.9636,-5.9422,-5.9315,-5.9153,-5.9099,-5.9099,-5.9099,-5.9099,-5.9099,-5.9099,-5.9099,-5.9099,-5.9099,-5.9099,-5.9099,-5.9099,-5.9099,-5.9099,-5.9099,-5.9099,-5.9099,-5.9099,-5.9099,-5.9099,-5.9099,-5.9099,-5.9099,-5.9099,-5.9099,-5.886,-5.871,-5.7932,-5.7094,-5.6196,-5.5329,-5.5209,-5.5209,-5.5209,-5.5209,-5.5209,-5.5209,-5.5209,-5.5209,-5.5209,-5.5209,-5.5209,-5.5209,-5.5209,-5.4692,-5.4016,-5.2857,-5.1674,-5.0296,-7.3276,-7.2216,-7.1885,-7.109,-7.0096,-6.9831,-6.9798,-6.9798,-6.9798,-6.9798,-6.9798,-6.9798,-6.9798,-6.9699,-6.9368,-6.8871,-6.8175,-6.6784,-6.6287,-6.6121,-6.5724,-6.5492,-6.5579,-6.5492,-6.5624,-6.5955,-6.5525,-6.5425,-6.5123,-6.3909,-6.3244,-6.2744,-6.1582,-6.0794,-6.0794,-6.0794,-6.0794,-6.0794,-6.0794,-6.0794,-6.0794,-6.0794,-6.0794,-6.0794,-6.0794,-6.0794,-6.0794,-6.0794,-6.0794,-6.0794,-6.0794,-6.0794,-6.0794,-6.0794,-6.0794,-6.0794,-6.0794,-6.0638,-6.0481,-6.0324,-6.0061,-5.9636,-5.9476,-5.9315,-5.9207,-5.9153,-5.9099,-5.9099,-5.9099,-5.9099,-5.9099,-5.9099,-5.9099,-5.9099,-5.9099,-5.9099,-5.9099,-5.9099,-5.9099,-5.9099,-5.9099,-5.9099,-5.9099,-5.9099,-5.9099,-5.9099,-5.9099,-5.9099,-5.9099,-5.9099,-5.9009,-5.859,-5.8171,-5.7513,-5.6795,-5.6196,-5.5508,-5.5209,-5.5209,-5.5209,-5.5209,-5.5209,-5.5209,-5.5239,-5.5209,-5.5209,-5.5209,-5.5209,-5.5209,-5.5209,-5.5209,-5.459,-5.3308,-5.1963,-5.0601,-7.3144,-7.2846,-7.1587,-7.0924,-7.0626,-7.0063,-6.9798,-6.9798,-6.9798,-6.9798,-6.9798,-6.9798,-6.9765,-6.9467,-6.8374,-6.7546,-6.6784,-6.6121,-6.569,-6.5657,-6.5525,-6.569,-6.6121,-6.5657,-6.5757,-6.5922,-6.5624,-6.5459,-6.4988,-6.3768,-6.31,-6.2761,-6.1652,-6.0794,-6.0794,-6.0794,-6.0794,-6.0794,-6.0794,-6.0794,-6.0794,-6.0794,-6.0794,-6.0794,-6.0794,-6.0794,-6.0794,-6.0794,-6.0794,-6.0794,-6.0794,-6.0794,-6.0794,-6.0794,-6.0794,-6.0794,-6.0794,-6.069,-6.0377,-6.0197,-5.9933,-5.9529,-5.9315,-5.9153,-5.9099,-5.9099,-5.9099,-5.9099,-5.9099,-5.9099,-5.9099,-5.9099,-5.9099,-5.9099,-5.9099,-5.9099,-5.9099,-5.9099,-5.9099,-5.9099,-5.9099,-5.9099,-5.9099,-5.9099,-5.9099,-5.9099,-5.9099,-5.9099,-5.9039,-5.8979,-5.886,-5.8441,-5.7633,-5.6915,-5.6555,-5.5957,-5.5598,-5.5209,-5.5209,-5.5209,-5.5209,-5.5209,-5.5269,-5.5269,-5.5269,-5.5329,-5.5388,-5.5388,-5.5269,-5.5209,-5.5209,-5.4539,-5.3571,-5.2198,-5.0704,-7.2117,-7.2382,-7.1322,-7.0626,-7.0229,-6.9931,-6.9798,-6.9798,-6.9798,-6.9798,-6.9798,-6.9798,-6.9566,-6.8904,-6.7645,-6.6883,-6.6386,-6.5757,-6.5425,-6.5425,-6.5425,-6.5591,-6.5724,-6.5591,-6.569,-6.5724,-6.5535,-6.5111,-6.4545,-6.3847,-6.31,-6.281,-6.1633,-6.0794,-6.0794,-6.0794,-6.0794,-6.0794,-6.0794,-6.0794,-6.0794,-6.0794,-6.0794,-6.0794,-6.0794,-6.0794,-6.0794,-6.0794,-6.0794,-6.0794,-6.0794,-6.0794,-6.0794,-6.0794,-6.0794,-6.0794,-6.0794,-6.0586,-6.025,-6.0039,-5.9773,-5.9422,-5.9153,-5.9099,-5.9099,-5.9099,-5.9099,-5.9099,-5.9099,-5.9099,-5.9099,-5.9099,-5.9099,-5.9099,-5.9099,-5.9099,-5.9099,-5.9099,-5.9099,-5.9099,-5.9099,-5.9099,-5.9099,-5.9099,-5.9099,-5.9099,-5.9099,-5.9069,-5.889,-5.865,-5.8471,-5.8231,-5.7304,-5.6398,-5.6107,-5.5748,-5.5478,-5.5209,-5.5209,-5.5209,-5.5209,-5.5209,-5.5299,-5.5568,-5.5748,-5.5777,-5.5688,-5.5478,-5.5329,-5.5239,-5.5209,-5.4692,-5.4038,-5.2076,-5.0369,-7.1223,-7.1653,-7.0924,-7.0295,-6.9798,-6.9798,-6.9798,-6.9798,-6.9798,-6.9699,-6.95,-6.9268,-6.8771,-6.8076,-6.7082,-6.6452,-6.6187,-6.5657,-6.5459,-6.5425,-6.5425,-6.5425,-6.5492,-6.5425,-6.5425,-6.5425,-6.5459,-6.5033,-6.4314,-6.3531,-6.3004,-6.2793,-6.1481,-6.0897,-6.0794,-6.0794,-6.0794,-6.0794,-6.0794,-6.0794,-6.0794,-6.0794,-6.0794,-6.0794,-6.0794,-6.0794,-6.0794,-6.0794,-6.0794,-6.0794,-6.0794,-6.0794,-6.0794,-6.0794,-6.0794,-6.0794,-6.0794,-6.0586,-6.0302,-5.9986,-5.9667,-5.9345,-5.9099,-5.9099,-5.9099,-5.9099,-5.9099,-5.9099,-5.9099,-5.9099,-5.9099,-5.9099,-5.9099,-5.9099,-5.9099,-5.9099,-5.9099,-5.9099,-5.9099,-5.9099,-5.9099,-5.9099,-5.9099,-5.9099,-5.9099,-5.9099,-5.9069,-5.9009,-5.865,-5.8261,-5.7842,-5.7513,-5.6705,-5.5888,-5.5688,-5.5478,-5.5269,-5.5209,-5.5209,-5.5209,-5.5209,-5.5299,-5.5418,-5.5718,-5.6137,-5.6017,-5.5807,-5.5598,-5.5359,-5.5269,-5.5209,-5.5209,-5.4361,-5.2219,-4.9681,-7.0924,-7.0924,-7.0196,-6.9864,-6.9798,-6.9798,-6.9798,-6.9798,-6.9798,-6.9401,-6.8804,-6.8109,-6.7479,-6.685,-6.6585,-6.6088,-6.5525,-6.5425,-6.5425,-6.5425,-6.5425,-6.5425,-6.5425,-6.5425,-6.5425,-6.5425,-6.5381,-6.4988,-6.4268,-6.3436,-6.2744,-6.2035,-6.1206,-6.0897,-6.0794,-6.0794,-6.0794,-6.0794,-6.0794,-6.0794,-6.0794,-6.0794,-6.0794,-6.0794,-6.0794,-6.0794,-6.0794,-6.0794,-6.0794,-6.0794,-6.0794,-6.0794,-6.0794,-6.0794,-6.0794,-6.0794,-6.0794,-6.0638,-6.0324,-6.0092,-5.9667,-5.9345,-5.9099,-5.9099,-5.9099,-5.9099,-5.9099,-5.9099,-5.9099,-5.9099,-5.9099,-5.9099,-5.9099,-5.9099,-5.9099,-5.9099,-5.9099,-5.9099,-5.9099,-5.9099,-5.9099,-5.9099,-5.9099,-5.9099,-5.9099,-5.9099,-5.88,-5.871,-5.8082,-5.7633,-5.7034,-5.6526,-5.5867,-5.5388,-5.5329,-5.5209,-5.5209,-5.5209,-5.5209,-5.5209,-5.5209,-5.5329,-5.5628,-5.6017,-5.6376,-5.6166,-5.6017,-5.6047,-5.5897,-5.5418,-5.5099,-5.4857,-5.3684,-5.1569,-4.8749,-7.0494,-7.0825,-7.0096,-6.9798,-6.9798,-6.9798,-6.9798,-6.9798,-6.9798,-6.9368,-6.8606,-6.7512,-6.6784,-6.6452,-6.5989,-6.5724,-6.5425,-6.5425,-6.5425,-6.5425,-6.5425,-6.5425,-6.5425,-6.5425,-6.5425,-6.5425,-6.5336,-6.4682,-6.3578,-6.3148,-6.2302,-6.1481,-6.0949,-6.0845,-6.0794,-6.0794,-6.0794,-6.0794,-6.0794,-6.0794,-6.0794,-6.0794,-6.0794,-6.0794,-6.0794,-6.0794,-6.0794,-6.0794,-6.0794,-6.0794,-6.0794,-6.0794,-6.0794,-6.0794,-6.0794,-6.0794,-6.0794,-6.069,-6.0429,-6.0144,-5.972,-5.9291,-5.9099,-5.9099,-5.9099,-5.9099,-5.9099,-5.9099,-5.9099,-5.9099,-5.9099,-5.9099,-5.9099,-5.9099,-5.9099,-5.9099,-5.9099,-5.9099,-5.9099,-5.9099,-5.9099,-5.9099,-5.9099,-5.9099,-5.9099,-5.9069,-5.871,-5.8291,-5.7693,-5.7094,-5.6555,-5.6107,-5.5538,-5.5269,-5.5209,-5.5209,-5.5209,-5.5209,-5.5209,-5.5269,-5.5329,-5.5718,-5.6047,-5.6406,-5.6735,-5.6705,-5.6705,-5.6735,-5.6316,-5.5508,-5.4777,-5.4154,-5.2632,-5.0772,-4.8177,-7.0096,-7.0494,-6.9997,-6.9798,-6.9798,-6.9798,-6.9798,-6.9798,-6.9798,-6.9368,-6.8606,-6.738,-6.6639,-6.6374,-6.6055,-6.5591,-6.5492,-6.5425,-6.5425,-6.5425,-6.5425,-6.5425,-6.5425,-6.5425,-6.5425,-6.5348,-6.5033,-6.4314,-6.3196,-6.2939,-6.2003,-6.1175,-6.0794,-6.0794,-6.0794,-6.0794,-6.0794,-6.0794,-6.0794,-6.0794,-6.0794,-6.0794,-6.0794,-6.0794,-6.0794,-6.0794,-6.0794,-6.0794,-6.0794,-6.0794,-6.0794,-6.0794,-6.0794,-6.0794,-6.0794,-6.0794,-6.0794,-6.069,-6.0481,-6.0092,-5.9667,-5.9207,-5.9099,-5.9099,-5.9099,-5.9099,-5.9099,-5.9099,-5.9099,-5.9099,-5.9099,-5.9099,-5.9099,-5.9099,-5.9099,-5.9099,-5.9099,-5.9099,-5.9099,-5.9099,-5.9099,-5.9099,-5.9099,-5.9099,-5.9099,-5.8979,-5.856,-5.8052,-5.7393,-5.6795,-5.6226,-5.5807,-5.5448,-5.5269,-5.5209,-5.5209,-5.5209,-5.5209,-5.5239,-5.5418,-5.5598,-5.5957,-5.6555,-5.7124,-5.7363,-5.7393,-5.7034,-5.6555,-5.5987,-5.5359,-5.4595,-5.3789,-5.1598,-4.9739,-4.7831,-6.9831,-6.9798,-6.9798,-6.9798,-6.9798,-6.9798,-6.9798,-6.9765,-6.9699,-6.9301,-6.8606,-6.7777,-6.7003,-6.6585,-6.6254,-6.5856,-6.5492,-6.5425,-6.5425,-6.5425,-6.5425,-6.5425,-6.5425,-6.5425,-6.5425,-6.5213,-6.4773,-6.4081,-6.31,-6.2531,-6.1633,-6.1021,-6.0794,-6.0794,-6.0794,-6.0794,-6.0794,-6.0794,-6.0794,-6.0794,-6.0794,-6.0794,-6.0794,-6.0794,-6.0794,-6.0794,-6.0794,-6.0794,-6.0794,-6.0794,-6.0794,-6.0794,-6.0794,-6.0794,-6.0794,-6.0794,-6.0794,-6.0794,-6.069,-5.9955,-5.9476,-5.9153,-5.9099,-5.9099,-5.9099,-5.9099,-5.9099,-5.9099,-5.9099,-5.9099,-5.9099,-5.9099,-5.9099,-5.9099,-5.9099,-5.9099,-5.9099,-5.9099,-5.9099,-5.9099,-5.9099,-5.9099,-5.9099,-5.9099,-5.9099,-5.8919,-5.8441,-5.7842,-5.7094,-5.6436,-5.5837,-5.5628,-5.5329,-5.5269,-5.5209,-5.5209,-5.5209,-5.5209,-5.5269,-5.5448,-5.5718,-5.6098,-5.6735,-5.7633,-5.7513,-5.7124,-5.6615,-5.6107,-5.5628,-5.5188,-5.4267,-5.3105,-5.0909,-4.8992,-4.743,-6.9798,-6.9798,-6.9798,-6.9798,-6.9798,-6.9798,-6.9798,-6.9699,-6.9301,-6.8904,-6.8473,-6.7446,-6.6817,-6.6452,-6.601,-6.5724,-6.5492,-6.5425,-6.5425,-6.5425,-6.5381,-6.5425,-6.5381,-6.5381,-6.5381,-6.5168,-6.4636,-6.3847,-6.3052,-6.2284,-6.1563,-6.1,-6.0794,-6.0794,-6.0794,-6.0794,-6.0794,-6.0794,-6.0794,-6.0794,-6.0794,-6.0794,-6.0794,-6.0794,-6.0824,-6.0794,-6.0794,-6.0794,-6.0794,-6.0794,-6.0794,-6.0794,-6.0794,-6.0794,-6.0794,-6.0794,-6.0794,-6.069,-6.0534,-6.0008,-5.9613,-5.9345,-5.9099,-5.9099,-5.9099,-5.9099,-5.9099,-5.9099,-5.9099,-5.9099,-5.9099,-5.9099,-5.9099,-5.9099,-5.9099,-5.9099,-5.9099,-5.9099,-5.9099,-5.9099,-5.9099,-5.9099,-5.9099,-5.9099,-5.9099,-5.871,-5.8231,-5.7453,-5.6705,-5.5987,-5.5388,-5.5359,-5.5239,-5.5209,-5.5209,-5.5209,-5.5209,-5.5209,-5.5299,-5.5478,-5.5777,-5.6248,-5.6675,-5.7423,-5.7094,-5.6705,-5.6226,-5.5777,-5.5448,-5.4917,-5.431,-5.3244,-5.1299,-4.9585,-4.7963,-6.9798,-6.9798,-6.9798,-6.9798,-6.9798,-6.9798,-6.9798,-6.9699,-6.9268,-6.8937,-6.8506,-6.7645,-6.6949,-6.6519,-6.6055,-6.5558,-6.5459,-6.5425,-6.5425,-6.5381,-6.5078,-6.5168,-6.5258,-6.5123,-6.4943,-6.4806,-6.4221,-6.3468,-6.2646,-6.1935,-6.1308,-6.0897,-6.0794,-6.0794,-6.0794,-6.0794,-6.0794,-6.0794,-6.0794,-6.0948,-6.1009,-6.104,-6.0917,-6.1009,-6.0978,-6.0794,-6.0794,-6.0794,-6.0794,-6.0794,-6.0794,-6.0794,-6.0794,-6.0794,-6.0794,-6.0794,-6.0794,-6.0638,-6.0429,-6.0302,-5.9933,-5.956,-5.9261,-5.9099,-5.9099,-5.9099,-5.9099,-5.9099,-5.9099,-5.9099,-5.9099,-5.9099,-5.9099,-5.9099,-5.9099,-5.9099,-5.9099,-5.9099,-5.9099,-5.9099,-5.9099,-5.9099,-5.9099,-5.9099,-5.9099,-5.856,-5.7962,-5.7184,-5.6436,-5.5748,-5.5209,-5.5209,-5.5209,-5.5209,-5.5209,-5.5209,-5.5209,-5.5209,-5.5299,-5.5448,-5.6047,-5.6547,-5.6855,-5.7034,-5.6765,-5.6406,-5.5927,-5.5508,-5.5299,-5.5119,-5.4818,-5.3466,-5.1733,-5.0234,-4.8739,-6.9798,-6.9798,-6.9798,-6.9798,-6.9798,-6.9798,-6.9798,-6.9798,-6.9699,-6.9301,-6.8639,-6.8473,-6.7486,-6.656,-6.6374,-6.5898,-6.5312,-6.5291,-6.5336,-6.5078,-6.4636,-6.4852,-6.4806,-6.4623,-6.4314,-6.3988,-6.3516,-6.2793,-6.2016,-6.141,-6.0949,-6.0794,-6.0794,-6.0794,-6.0794,-6.0794,-6.0794,-6.0794,-6.0824,-6.1101,-6.1379,-6.1225,-6.1379,-6.1502,-6.1471,-6.1163,-6.1071,-6.0978,-6.0886,-6.0824,-6.0794,-6.0794,-6.0794,-6.0794,-6.0794,-6.0794,-6.0794,-6.0638,-6.0534,-6.046,-6.025,-5.988,-5.9506,-5.9261,-5.9207,-5.9345,-5.9345,-5.9261,-5.9261,-5.9207,-5.9153,-5.9099,-5.9099,-5.9099,-5.9099,-5.9099,-5.9099,-5.9099,-5.9099,-5.9099,-5.9099,-5.9099,-5.9099,-5.9099,-5.9069,-5.865,-5.8082,-5.7393,-5.6585,-5.5718,-5.5299,-5.5209,-5.5209,-5.5209,-5.5209,-5.5209,-5.5209,-5.5209,-5.5239,-5.5418,-5.6107,-5.6526,-5.6555,-5.6555,-5.6436,-5.6107,-5.5628,-5.5359,-5.5239,-5.5089,-5.5029,-5.4192,-5.252,-5.1314,-4.9868,-6.9798,-6.9798,-6.9798,-6.9798,-6.9798,-6.9798,-6.9798,-6.9732,-6.9268,-6.8837,-6.8639,-6.7579,-6.6707,-6.5764,-6.5684,-6.5264,-6.4872,-6.4715,-6.5033,-6.4728,-6.4035,-6.4128,-6.4081,-6.3894,-6.3531,-6.3228,-6.2744,-6.2234,-6.1866,-6.1155,-6.0794,-6.0794,-6.0794,-6.0794,-6.0794,-6.0794,-6.0794,-6.0794,-6.0794,-6.1225,-6.1625,-6.1563,-6.1871,-6.2117,-6.221,-6.1871,-6.1594,-6.1532,-6.1348,-6.0917,-6.0824,-6.0794,-6.0794,-6.0794,-6.0794,-6.0794,-6.0794,-6.0742,-6.0638,-6.0481,-6.0377,-6.0302,-5.9933,-5.9827,-5.972,-5.972,-5.972,-5.9613,-5.9476,-5.9422,-5.9369,-5.9315,-5.9261,-5.9153,-5.9207,-5.9207,-5.9207,-5.9153,-5.9153,-5.9099,-5.9099,-5.9099,-5.9099,-5.9099,-5.9039,-5.871,-5.8231,-5.7543,-5.6735,-5.5837,-5.5329,-5.5209,-5.5209,-5.5209,-5.5209,-5.5209,-5.5209,-5.5209,-5.5239,-5.5388,-5.5927,-5.6226,-5.6166,-5.6077,-5.5957,-5.5688,-5.5329,-5.5209,-5.5209,-5.5209,-5.5069,-5.434,-5.3458,-5.2301,-5.1247,-6.9798,-6.9798,-6.9798,-6.9798,-6.9751,-6.9463,-6.9285,-6.9235,-6.9159,-6.8904,-6.8208,-6.7413,-6.6206,-6.5073,-6.4912,-6.4577,-6.3847,-6.3847,-6.4035,-6.3941,-6.3276,-6.342,-6.3324,-6.3132,-6.2744,-6.2481,-6.2234,-6.1866,-6.1563,-6.1206,-6.0794,-6.0794,-6.0794,-6.0794,-6.0794,-6.0794,-6.0794,-6.0794,-6.0886,-6.1225,-6.1563,-6.184,-6.224,-6.2702,-6.2856,-6.261,-6.2302,-6.221,-6.184,-6.1317,-6.1194,-6.104,-6.0917,-6.0794,-6.0794,-6.0794,-6.0794,-6.0794,-6.0742,-6.0638,-6.0586,-6.0534,-6.0407,-6.0355,-6.0197,-6.0092,-5.9986,-5.988,-5.9773,-5.972,-5.9613,-5.9529,-5.9422,-5.9261,-5.9345,-5.9345,-5.9261,-5.9261,-5.9207,-5.9099,-5.9099,-5.9099,-5.9099,-5.9099,-5.9039,-5.883,-5.8381,-5.7693,-5.6825,-5.5897,-5.5418,-5.5209,-5.5209,-5.5209,-5.5209,-5.5209,-5.5209,-5.5209,-5.5209,-5.5418,-5.5837,-5.5837,-5.5718,-5.5598,-5.5478,-5.5299,-5.5209,-5.5209,-5.5209,-5.5209,-5.5209,-5.4786,-5.4272,-5.3676,-5.261,-6.9798,-6.9798,-6.9798,-6.9798,-6.9703,-6.8994,-6.8584,-6.8552,-6.9007,-6.8668,-6.7499,-6.7215,-6.5783,-6.42,-6.4035,-6.372,-6.3196,-6.3036,-6.318,-6.3052,-6.2333,-6.2333,-6.2597,-6.2333,-6.1935,-6.1885,-6.1765,-6.1461,-6.1,-6.0794,-6.0794,-6.0794,-6.0794,-6.0794,-6.0794,-6.0794,-6.0794,-6.0794,-6.0886,-6.1101,-6.1656,-6.1933,-6.2179,-6.2825,-6.3041,-6.301,-6.2918,-6.2733,-6.2517,-6.2025,-6.1594,-6.1286,-6.1009,-6.0794,-6.0794,-6.0794,-6.0794,-6.0794,-6.0794,-6.0742,-6.0742,-6.0742,-6.0794,-6.069,-6.0534,-6.0407,-6.0302,-6.0197,-6.0144,-6.0039,-5.9955,-5.9827,-5.972,-5.9613,-5.9667,-5.9613,-5.9506,-5.9452,-5.9399,-5.9315,-5.9207,-5.9207,-5.9099,-5.9099,-5.9099,-5.8949,-5.8501,-5.7812,-5.7034,-5.6077,-5.5598,-5.5269,-5.5209,-5.5209,-5.5209,-5.5209,-5.5209,-5.5209,-5.5209,-5.5299,-5.5628,-5.5508,-5.5239,-5.5239,-5.5299,-5.5269,-5.5209,-5.5209,-5.5209,-5.5209,-5.5209,-5.5209,-5.4919,-5.444,-5.3714,-6.9798,-6.9798,-6.9798,-6.9798,-6.9703,-6.8945,-6.8274,-6.7786,-6.731,-6.6562,-6.5691,-6.4723,-6.3742,-6.2937,-6.3228,-6.2987,-6.24,-6.2284,-6.2597,-6.24,-6.1734,-6.1613,-6.1985,-6.1582,-6.1206,-6.1103,-6.1052,-6.1052,-6.0845,-6.0794,-6.0794,-6.0794,-6.0794,-6.0794,-6.0794,-6.0794,-6.0794,-6.0794,-6.0948,-6.1225,-6.1717,-6.2394,-6.2887,-6.3502,-6.381,-6.3841,-6.3595,-6.3041,-6.2517,-6.1902,-6.1286,-6.0978,-6.0824,-6.0794,-6.0794,-6.0794,-6.0794,-6.0794,-6.0794,-6.0794,-6.0794,-6.0794,-6.0794,-6.0794,-6.0742,-6.0638,-6.0617,-6.0512,-6.046,-6.0355,-6.0302,-6.0144,-5.9986,-5.9986,-6.0016,-5.988,-5.9773,-5.9667,-5.9613,-5.9506,-5.9369,-5.9315,-5.9207,-5.9153,-5.9099,-5.886,-5.8441,-5.7872,-5.7274,-5.6466,-5.5837,-5.5508,-5.5239,-5.5209,-5.5209,-5.5209,-5.5209,-5.5209,-5.5209,-5.5329,-5.5448,-5.5329,-5.5209,-5.5209,-5.5209,-5.5209,-5.5209,-5.5209,-5.5209,-5.5209,-5.5209,-5.5209,-5.5209,-5.4889,-5.42,-6.9798,-6.9798,-6.9798,-6.9798,-6.9541,-6.8242,-6.7357,-6.6738,-6.5123,-6.4086,-6.3861,-6.3521,-6.3013,-6.2098,-6.2481,-6.2202,-6.1613,-6.1461,-6.1633,-6.1582,-6.1481,-6.1257,-6.1103,-6.1052,-6.0949,-6.0794,-6.0794,-6.0845,-6.0794,-6.0794,-6.0794,-6.0794,-6.0794,-6.0794,-6.0794,-6.0794,-6.0794,-6.0794,-6.104,-6.1379,-6.184,-6.2456,-6.2918,-6.3533,-6.3872,-6.4026,-6.3841,-6.3195,-6.2517,-6.184,-6.1194,-6.0886,-6.0794,-6.0794,-6.0794,-6.0794,-6.0794,-6.0794,-6.0794,-6.0794,-6.0794,-6.0794,-6.0794,-6.0794,-6.0794,-6.069,-6.069,-6.0638,-6.0638,-6.0586,-6.0586,-6.0429,-6.0355,-6.025,-6.0355,-6.0355,-6.0144,-5.9933,-5.988,-5.9773,-5.972,-5.972,-5.956,-5.9369,-5.9369,-5.9261,-5.8727,-5.8261,-5.7603,-5.6855,-5.6256,-5.5718,-5.5418,-5.5209,-5.5209,-5.5209,-5.5209,-5.5209,-5.5209,-5.5239,-5.5329,-5.5269,-5.5209,-5.5209,-5.5209,-5.5209,-5.5209,-5.5209,-5.5209,-5.5209,-5.5209,-5.5209,-5.5179,-5.4997,-5.3914,-6.9533,-6.9633,-6.9765,-6.9699,-6.9328,-6.7292,-6.619,-6.5586,-6.3121,-6.1831,-6.1948,-6.3104,-6.2888,-6.2223,-6.1815,-6.1359,-6.1052,-6.1052,-6.1,-6.0949,-6.0897,-6.0897,-6.0897,-6.0845,-6.0794,-6.0794,-6.0794,-6.0794,-6.0794,-6.0794,-6.0794,-6.0794,-6.0794,-6.0794,-6.0794,-6.0794,-6.0794,-6.0917,-6.1132,-6.1502,-6.1963,-6.2425,-6.2733,-6.3071,-6.3318,-6.3656,-6.3502,-6.3041,-6.2364,-6.184,-6.1194,-6.0917,-6.0794,-6.0794,-6.0794,-6.0794,-6.0794,-6.0794,-6.0794,-6.0794,-6.0794,-6.0794,-6.0794,-6.0794,-6.0794,-6.0794,-6.0794,-6.0794,-6.0794,-6.0794,-6.0742,-6.0742,-6.0586,-6.0534,-6.0638,-6.0638,-6.0407,-6.025,-6.0144,-6.0039,-5.9986,-6.0016,-5.9827,-5.9636,-5.9529,-5.9422,-5.9165,-5.8674,-5.8141,-5.7304,-5.6585,-5.5987,-5.5508,-5.5359,-5.5209,-5.5209,-5.5209,-5.5209,-5.5209,-5.5209,-5.5209,-5.5209,-5.5209,-5.5209,-5.5209,-5.5209,-5.5209,-5.5209,-5.5209,-5.5209,-5.5209,-5.5179,-5.5027,-5.4654,-5.3237,-6.8374,-6.8937,-6.9533,-6.9467,-6.8668,-6.7034,-6.566,-6.4388,-6.2664,-6.1532,-6.1236,-6.1165,-6.1165,-6.1052,-6.1,-6.0845,-6.0897,-6.0794,-6.0794,-6.0794,-6.0794,-6.0794,-6.0794,-6.0794,-6.0794,-6.0794,-6.0794,-6.0794,-6.0794,-6.0794,-6.0794,-6.0794,-6.0794,-6.0794,-6.0794,-6.0794,-6.0794,-6.0917,-6.1009,-6.1225,-6.1502,-6.2025,-6.2702,-6.2887,-6.2918,-6.301,-6.2825,-6.2333,-6.2025,-6.1656,-6.1225,-6.0886,-6.0794,-6.0794,-6.0794,-6.0794,-6.0794,-6.0794,-6.0794,-6.0794,-6.0794,-6.0794,-6.0794,-6.0794,-6.0794,-6.0794,-6.0794,-6.0794,-6.0794,-6.0794,-6.0794,-6.0794,-6.069,-6.069,-6.0742,-6.0638,-6.0481,-6.0512,-6.046,-6.0355,-6.0197,-6.0039,-5.9743,-5.9583,-5.9422,-5.9369,-5.9207,-5.877,-5.8381,-5.7663,-5.6915,-5.6316,-5.5718,-5.5359,-5.5209,-5.5209,-5.5209,-5.5209,-5.5209,-5.5209,-5.5209,-5.5209,-5.5209,-5.5209,-5.5209,-5.5209,-5.5209,-5.5209,-5.5209,-5.5209,-5.5209,-5.5128,-5.4976,-5.4259,-5.292]},{"header":{"parameterUnit":"m.s-1","parameterCategory":1,"la1":31.0,"la2":29.5877,"lo1":-88.7671,"lo2":-86.6584,"dy":0.0162,"dx":0.0185,"nx":115,"ny":88,"refTime":"2024-07-07T06:00:00:Z","depth":0,"parameterNumber":3,"parameterNumberName":"V-component_of_WINDS"},"data":[0.0,0.0,0.0,0.0,0.0,0.0,0.0,0.0,0.0,0.0,0.0,0.0,0.0,0.0,0.0,0.0,0.0,0.0,0.0,0.0,0.0,0.0,0.0,0.0,0.0,0.0,0.0,0.0,0.0,0.0,0.0,0.0,0.0,0.0,0.0,0.0,0.0,0.0,0.0,0.0,0.0,0.0,0.0,0.0,0.0,0.0,0.0,0.0,0.0,0.0,0.0,0.0,0.0,0.0,0.0,0.0,0.0,0.0,0.0,0.0,0.0,0.0,0.0,0.0,0.0,0.0,0.0,0.0,0.0,0.0,0.0,0.0,0.0,0.0,0.0,0.0,0.0,0.0,0.0,0.0,0.0,0.0,0.0,0.0,0.0,0.0,0.0,0.0,0.0,0.0,0.0,0.0,0.0,0.0,0.0,0.0,0.0,0.0,0.0,0.0,0.0,0.0,0.0,0.0,0.0,0.0,0.0,0.0,0.0,0.0,0.0,0.0,0.0,0.0,0.0,0.0,0.0,0.0,0.0,0.0,0.0,0.0,0.0,0.0,0.0,0.0,0.0,0.0,0.0,0.0,0.0,0.0,0.0,0.0,0.0,0.0,0.0,0.0,0.0,0.0,0.0,0.0,0.0,0.0,0.0,0.0,0.0,0.0,0.0,0.0,0.0,0.0,0.0,0.0,0.0,0.0,0.0,0.0,0.0,0.0,0.0,0.0,0.0,0.0,0.0,0.0,0.0,0.0,0.0,0.0,0.0,0.0,0.0,0.0,0.0,0.0,0.0,0.0,0.0,0.0,0.0,0.0,0.0,0.0,0.0,0.0,0.0,0.0,0.0,0.0,0.0,0.0,0.0,0.0,0.0,0.0,0.0,0.0,0.0,0.0,0.0,0.0,0.0,0.0,0.0,0.0,0.0,0.0,0.0,0.0,0.0,0.0,0.0,0.0,0.0,0.0,0.0,0.0,0.0,0.0,0.0,0.0,0.0,0.0,0.0,0.0,0.0,0.0,0.0,0.0,0.0,0.0,0.0,0.0,0.0,0.0,0.0,0.0,0.0,0.0,0.0,0.0,0.0,0.0,0.0,0.0,0.0,0.0,0.0,0.0,0.0,0.0,0.0,0.0,0.0,0.0,0.0,0.0,0.0,0.0,0.0,0.0,0.0,0.0,0.0,0.0,0.0,0.0,0.0,0.0,0.0,0.0,0.0,0.0,0.0,0.0,0.0,0.0,0.0,0.0,0.0,0.0,0.0,0.0,0.0,0.0,0.0,0.0,0.0,0.0,0.0,0.0,0.0,0.0,0.0,0.0,0.0,0.0,0.0,0.0,0.0,0.0,0.0,0.0,0.0,0.0,0.0,0.0,0.0,0.0,0.0,0.0,0.0,0.0,0.0,0.0,0.0,0.0,0.0,0.0,0.0,0.0,0.0,0.0,0.0,0.0,0.0,0.0,0.0,0.0,0.0,0.0,0.0,0.0,0.0,0.0,0.0,0.0,0.0,0.0,0.0,0.0,0.0,0.0,0.0,0.0,0.0,0.0,0.0,0.0,0.0,0.0,0.0,0.0,0.0,0.0,0.0,0.0,0.0,0.0,0.0,0.0,0.0,0.0,0.0,0.0,0.0,0.0,0.0,0.0,0.0,0.0,0.0,0.0,0.0,0.0,0.0,0.0,0.0,0.0,0.0,0.0,0.0,0.0,0.0,0.0,0.0,0.0,0.0,0.0,0.0,0.0,0.0,0.0,0.0,0.0,0.0,0.0,0.0,0.0,0.0,0.0,0.0,0.0,0.0,0.0,0.0,0.0,0.0,0.0,0.0,0.0,0.0,0.0,0.0,0.0,0.0,0.0,0.0,0.0,0.0,0.0,0.0,0.0,0.0,0.0,0.0,0.0,0.0,0.0,0.0,0.0,0.0,0.0,0.0,0.0,0.0,0.0,0.0,0.0,0.0,0.0,0.0,0.0,0.0,0.0,0.0,0.0,0.0,0.0,0.0,0.0,0.0,0.0,0.0,0.0,0.0,0.0,0.0,0.0,0.0,0.0,0.0,0.0,0.0,0.0,0.0,0.0,0.0,0.0,0.0,0.0,0.0,0.0,0.0,0.0,0.0,0.0,0.0,0.0,0.0,0.0,0.0,0.0,0.0,0.0,0.0,0.0,0.0,0.0,0.0,0.0,0.0,0.0,0.0,0.0,0.0,0.0,0.0,0.0,0.0,0.0,0.0,0.0,0.0,0.0,0.0,0.0,0.0,0.0,0.0,0.0,0.0,0.0,0.0,0.0,0.0,0.0,0.0,0.0,0.0,0.0,0.0,0.0,0.0,0.0,0.0,0.0,0.0,0.0,0.0,0.0,0.0,0.0,0.0,0.0,0.0,0.0,0.0,0.0,0.0,0.0,0.0,0.0,0.0,0.0,0.0,0.0,0.0,0.0,0.0,0.0,0.0,0.0,0.0,0.0,0.0,0.0,0.0,0.0,0.0,0.0,0.0,0.0,0.0,0.0,0.0,0.0,0.0,0.0,0.0,0.0,0.0,0.0,0.0,0.0,0.0,0.0,0.0,0.0,0.0,0.0,0.0,0.0,0.0,0.0,0.0,0.0,0.0,0.0,0.0,0.0,0.0,0.0,0.0,0.0,0.0,0.0,0.0,0.0,0.0,0.0,0.0,0.0,0.0,0.0,0.0,0.0,0.0,0.0,0.0,0.0,0.0,0.0,0.0,0.0,0.0,0.0,0.0,0.0,0.0,0.0,0.0,0.0,0.0,0.0,0.0,0.0,0.0,0.0,0.0,0.0,0.0,0.0,0.0,0.0,0.0,0.0,0.0,0.0,0.0,0.0,0.0,0.0,0.0,0.0,0.0,0.0,0.0,0.0,0.0,0.0,0.0,0.0,0.0,0.0,0.0,0.0,0.0,0.0,0.0,0.0,0.0,0.0,0.0,0.0,0.0,0.0,0.0,0.0,0.0,0.0,0.0,0.0,0.0,0.0,0.0,0.0,0.0,0.0,0.0,0.0,0.0,0.0,0.0,0.0,0.0,0.0,0.0,0.0,0.0,0.0,0.0,0.0,0.0,0.0,0.0,0.0,0.0,0.0,0.0,0.0,0.0,0.0,0.0,0.0,0.0,0.0,0.0,0.0,0.0,0.0,0.0,0.0,0.0,0.0,0.0,0.0,0.0,0.0,0.0,0.0,0.0,0.0,0.0,0.0,0.0,0.0,0.0,0.0,0.0,0.0,0.0,0.0,0.0,0.0,0.0,0.0,0.0,0.0,0.0,0.0,0.0,0.0,0.0,0.0,0.0,0.0,0.0,0.0,0.0,0.0,0.0,0.0,0.0,0.0,0.0,0.0,0.0,0.0,0.0,0.0,0.0,0.0,0.0,0.0,0.0,0.0,0.0,0.0,0.0,0.0,0.0,0.0,0.0,0.0,0.0,0.0,0.0,0.0,0.0,0.0,0.0,0.0,0.0,0.0,0.0,0.0,0.0,0.0,0.0,0.0,0.0,0.0,0.0,0.0,0.0,0.0,0.0,0.0,0.0,0.0,0.0,0.0,0.0,0.0,0.0,0.0,0.0,0.0,0.0,0.0,0.0,0.0,0.0,0.0,0.0,0.0,0.0,0.0,0.0,0.0,0.0,0.0,0.0,0.0,0.0,0.0,0.0,0.0,0.0,0.0,0.0,0.0,0.0,0.0,0.0,0.0,0.0,0.0,0.0,0.0,0.0,0.0,0.0,0.0,0.0,0.0,0.0,0.0,0.0,0.0,0.0,0.0,0.0,0.0,0.0,0.0,0.0,0.0,0.0,0.0,0.0,0.0,0.0,0.0,0.0,0.0,0.0,0.0,0.0,0.0,0.0,0.0,0.0,0.0,0.0,0.0,0.0,0.0,0.0,0.0,0.0,0.0,0.0,0.0,0.0,0.0,0.0,0.0,0.0,0.0,0.0,0.0,0.0,0.0,0.0,0.0,0.0,0.0,0.0,0.0,0.0,0.0,0.0,0.0,0.0,0.0,0.0,0.0,0.0,0.0,0.0,0.0,0.0,0.0,0.0,0.0,0.0,0.0,0.0,0.0,0.0,0.0,0.0,0.0,0.0,0.0,0.0,0.0,0.0,0.0,0.0,0.0,0.0,0.0,0.0,0.0,0.0,0.0,0.0,0.0,0.0,0.0,0.0,0.0,0.0,0.0,0.0,0.0,0.0,0.0,0.0,0.0,0.0,0.0,0.0,0.0,0.0,0.0,0.0,0.0,0.0,0.0,0.0,0.0,-1.4595,0.0,0.0,0.0,0.0,0.0,0.0,0.0,0.0,0.0,0.0,0.0,0.0,0.0,0.0,0.0,0.0,0.0,0.0,0.0,0.0,0.0,0.0,0.0,0.0,0.0,0.0,0.0,0.0,0.0,0.0,0.0,0.0,0.0,0.0,0.0,0.0,0.0,0.0,0.0,0.0,0.0,0.0,0.0,0.0,0.0,0.0,0.0,0.0,0.0,0.0,0.0,0.0,0.0,0.0,0.0,0.0,0.0,0.0,0.0,0.0,0.0,0.0,0.0,0.0,0.0,0.0,0.0,0.0,0.0,0.0,0.0,0.0,0.0,0.0,0.0,0.0,0.0,0.0,0.0,0.0,0.0,0.0,0.0,0.0,0.0,0.0,0.0,0.0,0.0,0.0,0.0,0.0,0.0,0.0,0.0,0.0,0.0,0.0,0.0,0.0,0.0,0.0,0.0,0.0,0.0,0.0,0.0,0.0,0.0,0.0,-1.5656,-1.5234,-1.6924,-1.6967,-1.5068,0.0,0.0,0.0,0.0,0.0,0.0,0.0,0.0,0.0,0.0,0.0,0.0,0.0,0.0,0.0,0.0,0.0,0.0,0.0,0.0,0.0,0.0,0.0,0.0,0.0,0.0,0.0,0.0,0.0,0.0,0.0,0.0,0.0,0.0,0.0,0.0,0.0,0.0,0.0,0.0,0.0,0.0,0.0,0.0,0.0,0.0,0.0,0.0,0.0,0.0,0.0,0.0,0.0,0.0,0.0,0.0,0.0,0.0,0.0,0.0,0.0,0.0,0.0,0.0,0.0,0.0,0.0,0.0,0.0,0.0,0.0,0.0,0.0,0.0,0.0,0.0,0.0,0.0,0.0,0.0,0.0,0.0,0.0,0.0,0.0,0.0,0.0,0.0,0.0,0.0,0.0,0.0,0.0,0.0,0.0,0.0,0.0,0.0,0.0,0.0,0.0,0.0,0.0,0.0,0.0,0.0,0.0,0.0,0.0,0.0,0.0,0.0,-1.7553,-1.7489,-1.6176,0.0,0.0,0.0,0.0,0.0,0.0,0.0,0.0,0.0,0.0,0.0,0.0,0.0,0.0,0.0,0.0,0.0,0.0,0.0,0.0,0.0,0.0,0.0,0.0,0.0,0.0,0.0,0.0,0.0,0.0,0.0,0.0,0.0,0.0,0.0,0.0,0.0,0.0,0.0,0.0,0.0,0.0,0.0,0.0,0.0,0.0,0.0,0.0,0.0,0.0,0.0,0.0,0.0,0.0,0.0,0.0,0.0,0.0,0.0,0.0,0.0,0.0,0.0,0.0,0.0,0.0,0.0,0.0,0.0,0.0,0.0,0.0,0.0,0.0,0.0,0.0,0.0,0.0,0.0,0.0,0.0,0.0,0.0,0.0,0.0,0.0,0.0,0.0,0.0,0.0,0.0,0.0,0.0,0.0,0.0,0.0,0.0,0.0,0.0,0.0,0.0,0.0,0.0,0.0,0.0,0.0,0.0,0.0,0.0,0.0,-1.6089,-1.7899,-1.8128,0.0,-1.7886,0.0,0.0,0.0,0.0,0.0,0.0,0.0,0.0,0.0,0.0,0.0,0.0,0.0,0.0,0.0,0.0,0.0,0.0,0.0,0.0,0.0,0.0,0.0,0.0,0.0,0.0,0.0,0.0,0.0,0.0,0.0,0.0,0.0,0.0,0.0,0.0,0.0,0.0,0.0,0.0,0.0,0.0,0.0,0.0,0.0,0.0,0.0,0.0,0.0,0.0,0.0,0.0,0.0,0.0,0.0,0.0,0.0,0.0,0.0,0.0,0.0,0.0,0.0,0.0,0.0,0.0,0.0,0.0,0.0,0.0,0.0,0.0,0.0,0.0,0.0,0.0,0.0,0.0,0.0,0.0,0.0,0.0,0.0,0.0,0.0,0.0,0.0,0.0,0.0,0.0,0.0,0.0,0.0,0.0,0.0,0.0,0.0,0.0,0.0,0.0,0.0,0.0,0.0,0.0,0.0,0.0,0.0,0.0,0.0,0.0,-1.6434,-1.8153,-1.8166,-1.7843,0.0,0.0,0.0,0.0,0.0,0.0,0.0,0.0,0.0,0.0,0.0,0.0,0.0,0.0,0.0,0.0,0.0,0.0,0.0,0.0,0.0,0.0,0.0,0.0,0.0,0.0,0.0,0.0,0.0,0.0,0.0,0.0,0.0,0.0,0.0,0.0,0.0,0.0,0.0,0.0,0.0,0.0,0.0,0.0,0.0,0.0,0.0,0.0,0.0,0.0,0.0,0.0,0.0,0.0,0.0,0.0,0.0,0.0,0.0,0.0,0.0,0.0,0.0,0.0,0.0,0.0,0.0,0.0,0.0,0.0,0.0,0.0,0.0,0.0,0.0,0.0,0.0,0.0,0.0,0.0,0.0,0.0,0.0,0.0,0.0,0.0,0.0,0.0,0.0,0.0,0.0,0.0,0.0,0.0,0.0,0.0,0.0,0.0,0.0,0.0,0.0,0.0,0.0,0.0,0.0,0.0,0.0,0.0,0.0,0.0,-1.6671,-1.7265,-1.868,-1.816,-1.7503,-1.6833,0.0,0.0,0.0,0.0,0.0,0.0,0.0,0.0,0.0,0.0,0.0,0.0,0.0,0.0,0.0,0.0,0.0,0.0,0.0,0.0,0.0,0.0,0.0,0.0,0.0,0.0,0.0,0.0,0.0,0.0,0.0,0.0,0.0,0.0,0.0,0.0,0.0,0.0,0.0,0.0,0.0,0.0,0.0,0.0,0.0,0.0,0.0,0.0,0.0,0.0,0.0,0.0,0.0,0.0,0.0,0.0,0.0,0.0,0.0,0.0,0.0,0.0,0.0,0.0,0.0,0.0,0.0,0.0,0.0,0.0,0.0,0.0,0.0,0.0,0.0,0.0,0.0,0.0,0.0,0.0,0.0,0.0,0.0,0.0,0.0,0.0,0.0,0.0,0.0,0.0,0.0,0.0,0.0,0.0,0.0,0.0,0.0,0.0,0.0,0.0,0.0,0.0,0.0,0.0,0.0,0.0,0.0,0.0,-2.0006,-1.8803,-1.8816,-2.0227,-1.8058,-1.7222,0.0,0.0,0.0,0.0,0.0,0.0,0.0,0.0,0.0,0.0,0.0,0.0,0.0,0.0,0.0,0.0,0.0,0.0,0.0,0.0,0.0,0.0,0.0,0.0,0.0,0.0,0.0,0.0,0.0,0.0,0.0,0.0,0.0,0.0,0.0,0.0,0.0,0.0,0.0,0.0,0.0,0.0,0.0,0.0,0.0,0.0,0.0,0.0,0.0,0.0,0.0,0.0,0.0,0.0,0.0,0.0,0.0,0.0,0.0,0.0,0.0,0.0,0.0,0.0,0.0,0.0,0.0,0.0,0.0,0.0,0.0,0.0,0.0,0.0,0.0,0.0,0.0,0.0,0.0,0.0,0.0,0.0,0.0,0.0,0.0,0.0,0.0,0.0,0.0,0.0,0.0,0.0,0.0,0.0,0.0,0.0,0.0,0.0,0.0,0.0,0.0,0.0,0.0,0.0,0.0,0.0,0.0,0.0,0.0,-1.7837,-1.8946,-1.9747,-2.0038,-1.9272,-1.879,0.0,0.0,0.0,0.0,0.0,0.0,0.0,0.0,0.0,0.0,0.0,0.0,0.0,0.0,0.0,0.0,0.0,0.0,0.0,0.0,0.0,0.0,0.0,0.0,0.0,0.0,0.0,0.0,0.0,0.0,0.0,0.0,0.0,0.0,0.0,0.0,0.0,0.0,0.0,0.0,0.0,0.0,0.0,0.0,0.0,0.0,0.0,0.0,0.0,0.0,0.0,0.0,0.0,0.0,0.0,0.0,0.0,0.0,0.0,0.0,0.0,0.0,0.0,0.0,0.0,0.0,0.0,0.0,0.0,0.0,0.0,0.0,0.0,0.0,0.0,0.0,0.0,0.0,0.0,0.0,0.0,0.0,0.0,0.0,0.0,0.0,0.0,0.0,0.0,0.0,0.0,0.0,0.0,0.0,0.0,0.0,0.0,0.0,0.0,0.0,0.0,0.0,0.0,0.0,0.0,0.0,0.0,0.0,0.0,-1.7869,0.0,-2.1262,-2.0859,-2.0079,-1.9358,0.0,0.0,0.0,0.0,0.0,0.0,0.0,0.0,0.0,0.0,0.0,0.0,0.0,0.0,0.0,0.0,0.0,0.0,0.0,0.0,0.0,0.0,0.0,0.0,0.0,0.0,0.0,0.0,0.0,0.0,0.0,0.0,0.0,0.0,0.0,0.0,0.0,0.0,0.0,0.0,0.0,0.0,0.0,0.0,0.0,0.0,0.0,0.0,0.0,0.0,0.0,0.0,0.0,0.0,0.0,0.0,0.0,0.0,0.0,0.0,0.0,0.0,0.0,0.0,0.0,0.0,0.0,0.0,0.0,0.0,0.0,0.0,0.0,0.0,0.0,0.0,0.0,0.0,0.0,0.0,0.0,0.0,0.0,0.0,0.0,0.0,0.0,0.0,0.0,0.0,0.0,0.0,0.0,0.0,0.0,0.0,0.0,0.0,0.0,0.0,0.0,0.0,0.0,0.0,0.0,0.0,0.0,0.0,-1.7909,-2.0835,-2.2674,-2.3285,-2.2786,-2.0441,-1.8771,0.0,0.0,0.0,0.0,0.0,0.0,0.0,0.0,0.0,0.0,0.0,0.0,0.0,0.0,0.0,0.0,0.0,0.0,0.0,0.0,0.0,0.0,0.0,0.0,0.0,0.0,0.0,0.0,0.0,0.0,0.0,0.0,0.0,0.0,0.0,0.0,0.0,0.0,0.0,0.0,0.0,0.0,0.0,0.0,0.0,0.0,0.0,0.0,0.0,0.0,0.0,0.0,0.0,0.0,0.0,0.0,0.0,0.0,0.0,0.0,0.0,0.0,0.0,0.0,0.0,0.0,0.0,0.0,0.0,0.0,0.0,0.0,0.0,0.0,0.0,0.0,0.0,0.0,0.0,0.0,0.0,0.0,0.0,0.0,0.0,0.0,0.0,0.0,0.0,0.0,0.0,0.0,0.0,0.0,0.0,0.0,0.0,0.0,0.0,0.0,0.0,0.0,0.0,0.0,0.0,0.0,0.0,0.0,0.0,-2.0309,-2.247,-2.3849,-2.4283,-2.1769,-2.0638,0.0,0.0,0.0,0.0,0.0,0.0,0.0,0.0,0.0,0.0,0.0,0.0,0.0,0.0,0.0,0.0,0.0,0.0,0.0,0.0,0.0,0.0,0.0,0.0,0.0,0.0,0.0,0.0,0.0,0.0,0.0,0.0,0.0,0.0,0.0,0.0,0.0,0.0,0.0,0.0,0.0,0.0,0.0,0.0,0.0,0.0,0.0,0.0,0.0,0.0,0.0,0.0,0.0,0.0,0.0,0.0,0.0,0.0,0.0,0.0,0.0,0.0,0.0,0.0,0.0,0.0,0.0,0.0,0.0,0.0,0.0,0.0,0.0,0.0,0.0,0.0,0.0,0.0,0.0,0.0,0.0,0.0,0.0,0.0,0.0,0.0,0.0,0.0,0.0,0.0,0.0,0.0,0.0,0.0,0.0,0.0,0.0,0.0,0.0,0.0,0.0,0.0,0.0,0.0,0.0,0.0,0.0,0.0,0.0,-2.3688,-2.5667,-2.6671,-2.6502,-2.3992,-2.2856,-2.2988,0.0,0.0,0.0,0.0,0.0,0.0,0.0,0.0,0.0,0.0,0.0,0.0,0.0,0.0,0.0,0.0,0.0,0.0,0.0,0.0,0.0,0.0,0.0,0.0,0.0,0.0,0.0,0.0,0.0,0.0,0.0,0.0,0.0,0.0,0.0,0.0,0.0,0.0,0.0,0.0,0.0,0.0,0.0,0.0,0.0,0.0,0.0,0.0,0.0,0.0,0.0,0.0,0.0,0.0,0.0,0.0,0.0,0.0,0.0,0.0,0.0,0.0,0.0,0.0,0.0,0.0,0.0,0.0,0.0,0.0,0.0,0.0,0.0,0.0,0.0,0.0,0.0,0.0,0.0,0.0,0.0,0.0,0.0,0.0,0.0,0.0,0.0,0.0,0.0,0.0,0.0,0.0,0.0,0.0,0.0,0.0,0.0,0.0,0.0,0.0,0.0,0.0,0.0,0.0,0.0,0.0,0.0,0.0,-2.9749,-3.1491,-3.1338,-2.9033,-2.6843,-2.5094,0.0,0.0,0.0,0.0,0.0,0.0,0.0,0.0,0.0,0.0,0.0,0.0,0.0,0.0,0.0,0.0,0.0,0.0,0.0,0.0,0.0,0.0,0.0,0.0,0.0,0.0,0.0,0.0,0.0,0.0,0.0,0.0,0.0,0.0,0.0,0.0,0.0,0.0,0.0,0.0,0.0,0.0,0.0,0.0,0.0,0.0,0.0,0.0,0.0,0.0,0.0,0.0,0.0,0.0,0.0,0.0,0.0,0.0,0.0,0.0,0.0,0.0,0.0,0.0,0.0,0.0,0.0,0.0,0.0,0.0,0.0,0.0,0.0,0.0,0.0,0.0,0.0,0.0,0.0,0.0,0.0,0.0,0.0,0.0,0.0,0.0,0.0,0.0,0.0,0.0,0.0,0.0,0.0,0.0,0.0,0.0,0.0,0.0,0.0,0.0,0.0,0.0,0.0,0.0,0.0,0.0,0.0,0.0,0.0,-2.9329,-3.3918,-3.4847,-3.1637,-2.8,-2.5881,0.0,0.0,0.0,0.0,0.0,0.0,0.0,0.0,0.0,0.0,0.0,0.0,0.0,0.0,0.0,0.0,0.0,0.0,0.0,0.0,0.0,0.0,0.0,0.0,0.0,0.0,0.0,0.0,0.0,0.0,0.0,0.0,0.0,0.0,0.0,0.0,0.0,0.0,0.0,0.0,0.0,0.0,0.0,0.0,0.0,0.0,0.0,0.0,0.0,0.0,0.0,0.0,0.0,0.0,0.0,0.0,0.0,0.0,0.0,0.0,0.0,0.0,0.0,0.0,0.0,0.0,0.0,0.0,0.0,0.0,0.0,0.0,0.0,0.0,0.0,0.0,0.0,0.0,0.0,0.0,0.0,0.0,0.0,0.0,0.0,0.0,0.0,0.0,0.0,0.0,0.0,0.0,0.0,0.0,0.0,0.0,0.0,0.0,0.0,0.0,0.0,0.0,0.0,0.0,0.0,0.0,0.0,0.0,-3.0258,-3.2474,-3.6199,-3.7105,-3.4921,-3.1392,-2.8736,0.0,0.0,0.0,0.0,0.0,0.0,0.0,0.0,0.0,0.0,0.0,0.0,0.0,0.0,0.0,0.0,0.0,0.0,0.0,0.0,0.0,0.0,0.0,0.0,0.0,0.0,0.0,0.0,0.0,0.0,0.0,0.0,0.0,0.0,0.0,0.0,0.0,0.0,0.0,0.0,0.0,0.0,0.0,0.0,0.0,0.0,0.0,0.0,0.0,0.0,0.0,0.0,0.0,0.0,0.0,0.0,0.0,0.0,0.0,0.0,0.0,0.0,0.0,0.0,0.0,0.0,0.0,0.0,0.0,0.0,0.0,0.0,0.0,0.0,0.0,0.0,0.0,0.0,0.0,0.0,0.0,0.0,0.0,0.0,0.0,0.0,0.0,0.0,0.0,0.0,0.0,0.0,0.0,0.0,0.0,0.0,0.0,0.0,0.0,0.0,0.0,0.0,0.0,0.0,0.0,0.0,0.0,0.0,-3.266,-3.7039,-3.8047,-3.8301,-3.776,-3.5452,-3.232,0.0,0.0,0.0,0.0,0.0,0.0,0.0,0.0,0.0,0.0,0.0,0.0,0.0,0.0,0.0,0.0,0.0,0.0,0.0,0.0,0.0,0.0,0.0,0.0,0.0,0.0,0.0,0.0,0.0,0.0,0.0,0.0,0.0,0.0,0.0,0.0,0.0,0.0,0.0,0.0,0.0,0.0,0.0,0.0,0.0,0.0,0.0,0.0,0.0,0.0,0.0,0.0,0.0,0.0,0.0,0.0,0.0,0.0,0.0,0.0,0.0,0.0,0.0,0.0,0.0,0.0,0.0,0.0,0.0,0.0,0.0,0.0,0.0,0.0,0.0,0.0,0.0,0.0,0.0,0.0,0.0,0.0,0.0,0.0,0.0,0.0,0.0,0.0,0.0,0.0,0.0,0.0,0.0,0.0,0.0,0.0,0.0,0.0,0.0,0.0,0.0,0.0,0.0,0.0,0.0,0.0,0.0,0.0,-3.2539,-3.6181,-3.7441,-3.7851,-3.7441,-3.5035,-3.2306,0.0,0.0,0.0,0.0,0.0,0.0,0.0,0.0,0.0,0.0,0.0,0.0,0.0,0.0,0.0,0.0,0.0,0.0,0.0,0.0,0.0,0.0,0.0,0.0,0.0,0.0,0.0,0.0,0.0,0.0,0.0,0.0,0.0,0.0,0.0,0.0,0.0,0.0,0.0,0.0,0.0,0.0,0.0,0.0,0.0,0.0,0.0,0.0,-3.0512,0.0,0.0,0.0,0.0,0.0,0.0,0.0,0.0,0.0,0.0,0.0,0.0,0.0,0.0,0.0,0.0,0.0,0.0,0.0,0.0,0.0,0.0,0.0,0.0,0.0,0.0,0.0,0.0,0.0,0.0,0.0,0.0,0.0,0.0,0.0,0.0,0.0,0.0,0.0,0.0,0.0,0.0,0.0,0.0,0.0,0.0,0.0,0.0,0.0,0.0,0.0,0.0,0.0,0.0,0.0,0.0,0.0,0.0,0.0,-3.3415,-3.624,-3.7168,-3.7519,-3.7285,-3.5785,-3.3273,0.0,0.0,0.0,0.0,0.0,0.0,0.0,0.0,0.0,0.0,0.0,0.0,0.0,0.0,0.0,0.0,0.0,0.0,0.0,0.0,0.0,0.0,0.0,0.0,0.0,0.0,0.0,0.0,0.0,0.0,0.0,0.0,0.0,0.0,0.0,0.0,0.0,0.0,0.0,0.0,0.0,0.0,0.0,0.0,0.0,0.0,0.0,0.0,0.0,0.0,0.0,0.0,0.0,0.0,0.0,0.0,0.0,0.0,0.0,0.0,0.0,0.0,0.0,0.0,0.0,0.0,0.0,0.0,0.0,0.0,0.0,0.0,0.0,0.0,0.0,0.0,0.0,0.0,0.0,0.0,0.0,0.0,0.0,0.0,0.0,0.0,0.0,0.0,0.0,0.0,0.0,0.0,0.0,0.0,0.0,0.0,0.0,0.0,0.0,0.0,0.0,0.0,0.0,0.0,0.0,0.0,0.0,-3.157,-3.4195,-3.6552,-3.7012,-3.7207,-3.7207,-3.6797,-3.4289,-2.9449,0.0,0.0,0.0,0.0,0.0,0.0,0.0,0.0,0.0,0.0,0.0,0.0,0.0,0.0,0.0,0.0,0.0,0.0,0.0,0.0,0.0,0.0,0.0,0.0,0.0,0.0,0.0,0.0,0.0,0.0,0.0,0.0,0.0,0.0,0.0,0.0,0.0,0.0,-3.0869,-3.1979,0.0,0.0,0.0,0.0,0.0,0.0,0.0,0.0,-3.3368,0.0,0.0,0.0,0.0,0.0,0.0,0.0,0.0,0.0,0.0,0.0,0.0,0.0,0.0,0.0,0.0,0.0,0.0,0.0,0.0,0.0,0.0,0.0,0.0,0.0,0.0,0.0,0.0,0.0,0.0,0.0,0.0,0.0,0.0,0.0,0.0,0.0,0.0,0.0,0.0,0.0,0.0,0.0,0.0,0.0,0.0,0.0,0.0,0.0,0.0,0.0,0.0,0.0,0.0,0.0,0.0,-2.9725,-3.066,-3.2933,-3.6621,-3.6738,-3.6777,-3.6777,-3.6348,-3.4136,-3.0145,0.0,0.0,0.0,0.0,0.0,0.0,0.0,0.0,0.0,0.0,0.0,0.0,0.0,0.0,0.0,0.0,0.0,0.0,0.0,0.0,0.0,0.0,0.0,0.0,0.0,0.0,0.0,0.0,0.0,0.0,0.0,0.0,0.0,0.0,0.0,0.0,0.0,0.0,0.0,-3.2811,-3.3149,0.0,0.0,0.0,0.0,0.0,0.0,0.0,0.0,-3.4651,0.0,0.0,0.0,0.0,0.0,0.0,0.0,0.0,0.0,0.0,0.0,0.0,0.0,0.0,0.0,0.0,0.0,0.0,0.0,0.0,0.0,0.0,0.0,0.0,0.0,0.0,0.0,0.0,0.0,0.0,0.0,0.0,0.0,0.0,0.0,0.0,0.0,0.0,0.0,0.0,0.0,0.0,0.0,0.0,0.0,0.0,0.0,0.0,0.0,0.0,0.0,0.0,0.0,0.0,0.0,-2.9547,-3.2134,-3.4384,-3.6289,-3.6348,-3.6328,-3.6309,-3.5622,-3.3649,0.0,0.0,0.0,0.0,0.0,0.0,0.0,0.0,0.0,0.0,0.0,0.0,0.0,0.0,0.0,0.0,0.0,0.0,0.0,0.0,0.0,0.0,0.0,0.0,0.0,0.0,0.0,0.0,0.0,0.0,0.0,0.0,0.0,0.0,0.0,0.0,0.0,0.0,0.0,0.0,-3.3576,-3.4121,-3.482,0.0,0.0,0.0,0.0,0.0,0.0,-3.6158,-3.623,0.0,0.0,0.0,0.0,0.0,0.0,0.0,0.0,0.0,0.0,0.0,0.0,0.0,0.0,0.0,0.0,0.0,0.0,0.0,0.0,0.0,0.0,0.0,0.0,0.0,0.0,0.0,0.0,0.0,0.0,0.0,0.0,0.0,0.0,0.0,0.0,0.0,0.0,0.0,0.0,0.0,0.0,0.0,0.0,0.0,0.0,0.0,0.0,0.0,0.0,0.0,0.0,0.0,0.0,0.0,-2.9377,-3.3275,-3.5559,-3.6016,-3.6113,-3.6113,-3.6016,-3.4988,-3.3206,0.0,0.0,0.0,0.0,0.0,0.0,0.0,0.0,0.0,0.0,0.0,0.0,0.0,0.0,0.0,0.0,0.0,0.0,0.0,0.0,0.0,0.0,0.0,0.0,0.0,0.0,0.0,0.0,0.0,0.0,0.0,0.0,0.0,0.0,0.0,0.0,0.0,0.0,0.0,0.0,0.0,-3.5438,-3.6441,-3.66,0.0,0.0,0.0,0.0,-3.7628,-3.8028,0.0,0.0,0.0,0.0,0.0,0.0,0.0,0.0,0.0,0.0,0.0,0.0,0.0,0.0,0.0,0.0,0.0,0.0,0.0,0.0,0.0,0.0,0.0,0.0,0.0,0.0,0.0,0.0,0.0,0.0,0.0,0.0,0.0,0.0,0.0,0.0,0.0,0.0,0.0,0.0,0.0,0.0,0.0,0.0,0.0,0.0,0.0,0.0,0.0,0.0,0.0,0.0,0.0,0.0,0.0,0.0,-2.9887,-3.206,-3.4051,-3.5908,-3.6387,-3.6406,-3.6035,-3.495,-3.3133,0.0,0.0,0.0,0.0,0.0,0.0,0.0,0.0,0.0,0.0,0.0,0.0,0.0,0.0,0.0,0.0,0.0,0.0,0.0,0.0,0.0,0.0,0.0,0.0,0.0,0.0,0.0,0.0,0.0,0.0,0.0,0.0,0.0,0.0,0.0,0.0,0.0,0.0,0.0,0.0,0.0,-3.7295,-3.6993,-3.7786,-3.8821,0.0,0.0,-3.9742,-4.1816,-4.133,0.0,0.0,0.0,0.0,0.0,0.0,0.0,0.0,0.0,0.0,0.0,0.0,0.0,0.0,0.0,0.0,0.0,0.0,0.0,0.0,0.0,0.0,0.0,0.0,0.0,0.0,0.0,0.0,0.0,0.0,0.0,0.0,0.0,0.0,0.0,0.0,0.0,0.0,0.0,0.0,0.0,0.0,0.0,0.0,0.0,0.0,0.0,0.0,0.0,0.0,0.0,0.0,0.0,0.0,0.0,-2.9315,-3.0348,-3.3407,-3.5481,-3.6367,-3.6562,-3.6582,-3.6387,-3.4324,-3.2409,0.0,0.0,0.0,0.0,0.0,0.0,0.0,0.0,0.0,0.0,0.0,0.0,0.0,0.0,0.0,0.0,0.0,0.0,0.0,0.0,0.0,0.0,0.0,0.0,0.0,0.0,0.0,0.0,0.0,0.0,0.0,0.0,0.0,0.0,0.0,0.0,0.0,0.0,0.0,0.0,0.0,0.0,-3.9302,-4.0134,0.0,0.0,0.0,-4.234,-4.2771,0.0,0.0,0.0,0.0,0.0,0.0,0.0,0.0,0.0,0.0,0.0,0.0,0.0,0.0,0.0,0.0,0.0,0.0,0.0,0.0,0.0,0.0,0.0,0.0,0.0,0.0,0.0,0.0,0.0,0.0,0.0,0.0,0.0,0.0,0.0,0.0,0.0,0.0,0.0,0.0,0.0,0.0,0.0,0.0,0.0,0.0,0.0,0.0,0.0,0.0,0.0,0.0,0.0,0.0,0.0,0.0,0.0,-3.0683,-3.4499,-3.6504,-3.6504,-3.6719,-3.6788,-3.6602,-3.4154,0.0,0.0,0.0,0.0,0.0,0.0,0.0,0.0,0.0,0.0,0.0,0.0,0.0,0.0,0.0,0.0,0.0,0.0,0.0,0.0,0.0,0.0,0.0,0.0,0.0,0.0,0.0,-2.7427,0.0,0.0,0.0,0.0,0.0,0.0,0.0,0.0,0.0,0.0,0.0,0.0,0.0,0.0,-3.9787,-4.1071,-4.2019,-4.3041,0.0,0.0,-4.4312,-4.3768,-4.3757,-4.316,0.0,0.0,0.0,0.0,0.0,0.0,0.0,0.0,0.0,0.0,0.0,0.0,0.0,0.0,0.0,0.0,0.0,0.0,0.0,0.0,0.0,0.0,0.0,0.0,0.0,0.0,0.0,0.0,0.0,0.0,0.0,0.0,0.0,0.0,0.0,0.0,0.0,0.0,0.0,0.0,0.0,0.0,0.0,0.0,0.0,0.0,0.0,0.0,0.0,0.0,0.0,0.0,0.0,0.0,-3.0823,-3.1017,-3.4279,-3.6074,-3.6094,-3.6855,-3.7064,-3.6511,-3.4965,-3.3424,0.0,0.0,0.0,0.0,0.0,0.0,0.0,0.0,0.0,0.0,0.0,0.0,0.0,0.0,0.0,0.0,0.0,0.0,0.0,0.0,0.0,0.0,0.0,0.0,0.0,0.0,0.0,0.0,0.0,0.0,0.0,0.0,0.0,0.0,0.0,0.0,0.0,0.0,0.0,0.0,0.0,-4.1154,-4.1211,-4.2796,-4.445,0.0,-4.5236,-4.4882,-4.586,-4.603,-4.5244,-4.2836,0.0,0.0,0.0,0.0,0.0,0.0,0.0,0.0,0.0,0.0,0.0,0.0,0.0,0.0,0.0,0.0,0.0,0.0,0.0,0.0,0.0,0.0,0.0,0.0,0.0,0.0,0.0,0.0,0.0,0.0,0.0,0.0,0.0,0.0,0.0,0.0,0.0,0.0,0.0,0.0,0.0,0.0,0.0,0.0,0.0,0.0,0.0,0.0,0.0,0.0,0.0,0.0,0.0,-3.137,-3.2004,-3.5293,-3.7072,-3.7043,-3.7947,-3.8037,-3.7277,-3.5559,-3.3927,0.0,0.0,0.0,0.0,0.0,0.0,0.0,0.0,0.0,0.0,0.0,0.0,0.0,0.0,0.0,0.0,0.0,0.0,0.0,0.0,0.0,0.0,0.0,0.0,0.0,0.0,0.0,0.0,-3.121,-3.1819,-3.2556,0.0,0.0,0.0,0.0,0.0,0.0,0.0,0.0,0.0,0.0,-4.2436,-4.3154,-4.4519,0.0,0.0,-4.592,-4.575,-4.6215,-4.5723,-4.4811,-4.3519,-4.2943,0.0,0.0,0.0,0.0,0.0,0.0,0.0,0.0,0.0,0.0,0.0,0.0,0.0,0.0,0.0,0.0,0.0,0.0,0.0,0.0,0.0,0.0,0.0,0.0,0.0,0.0,0.0,0.0,0.0,0.0,0.0,0.0,0.0,0.0,0.0,0.0,0.0,0.0,0.0,0.0,0.0,0.0,0.0,0.0,0.0,0.0,0.0,0.0,0.0,0.0,0.0,0.0,-3.1941,-3.274,-3.5877,-3.7662,-3.7924,-3.8547,-3.8577,-3.7879,-3.617,-3.467,0.0,0.0,0.0,0.0,0.0,0.0,0.0,0.0,0.0,0.0,0.0,0.0,0.0,0.0,0.0,0.0,0.0,0.0,0.0,0.0,0.0,0.0,0.0,0.0,0.0,0.0,0.0,0.0,-3.2809,-3.3347,-3.3737,0.0,0.0,0.0,0.0,0.0,0.0,0.0,0.0,0.0,0.0,-4.3636,-4.4421,-4.5505,-4.6326,-4.6326,-4.6326,-4.6326,-4.6326,-4.5648,-4.4895,-4.4166,0.0,0.0,0.0,0.0,0.0,0.0,0.0,0.0,0.0,0.0,0.0,0.0,0.0,0.0,0.0,0.0,0.0,0.0,0.0,0.0,0.0,0.0,0.0,0.0,0.0,0.0,0.0,-2.7887,0.0,0.0,-2.74,0.0,0.0,0.0,0.0,0.0,0.0,0.0,0.0,0.0,0.0,0.0,0.0,0.0,0.0,0.0,0.0,0.0,0.0,0.0,0.0,0.0,0.0,-3.2516,-3.3121,-3.5798,-3.7589,-3.8416,-3.8496,-3.8413,-3.8269,-3.7003,-3.5916,-3.509,0.0,0.0,0.0,0.0,0.0,0.0,0.0,0.0,0.0,0.0,0.0,0.0,0.0,0.0,0.0,0.0,0.0,0.0,0.0,0.0,0.0,0.0,0.0,0.0,0.0,0.0,-3.2024,-3.2738,-3.3431,0.0,0.0,0.0,0.0,0.0,0.0,0.0,0.0,0.0,0.0,-4.2732,-4.447,-4.4555,-4.5505,-4.6326,-4.6326,-4.6326,-4.6326,-4.6326,-4.6276,-4.5899,0.0,0.0,0.0,0.0,0.0,0.0,0.0,0.0,0.0,0.0,0.0,0.0,0.0,0.0,0.0,0.0,0.0,0.0,0.0,0.0,0.0,0.0,0.0,0.0,0.0,0.0,0.0,-2.9836,-2.9198,0.0,0.0,0.0,0.0,0.0,0.0,0.0,0.0,0.0,0.0,0.0,-3.2392,-3.2854,0.0,0.0,0.0,0.0,0.0,0.0,0.0,0.0,0.0,0.0,0.0,0.0,-3.265,-3.3733,-3.6456,-3.7981,-3.8309,-3.9171,-3.915,-3.8305,-3.7456,-3.6234,-3.4304,0.0,0.0,0.0,0.0,0.0,0.0,0.0,0.0,0.0,0.0,0.0,0.0,0.0,0.0,0.0,0.0,0.0,0.0,0.0,0.0,0.0,0.0,0.0,0.0,0.0,-3.2781,0.0,0.0,0.0,0.0,0.0,0.0,0.0,0.0,0.0,0.0,0.0,-4.1009,-4.2864,-4.3888,-4.4798,-4.559,-4.6055,-4.6326,0.0,0.0,0.0,0.0,0.0,0.0,0.0,0.0,0.0,0.0,0.0,0.0,0.0,0.0,-4.3268,-4.2206,-4.1636,-4.1321,-4.1321,0.0,0.0,0.0,0.0,0.0,0.0,0.0,0.0,0.0,0.0,0.0,0.0,0.0,0.0,-3.1457,0.0,-3.0732,0.0,0.0,0.0,0.0,0.0,0.0,0.0,0.0,-3.3882,-3.4513,-3.4126,-3.4511,-3.4652,0.0,-3.4083,-3.2974,0.0,0.0,0.0,0.0,0.0,0.0,0.0,0.0,-3.3474,-3.4569,-3.6947,-3.8336,-3.8667,-3.9371,-3.933,-3.844,-3.7653,-3.6597,-3.519,-3.3659,-3.2912,0.0,0.0,0.0,0.0,0.0,0.0,0.0,0.0,0.0,0.0,0.0,0.0,0.0,0.0,0.0,0.0,0.0,0.0,0.0,0.0,0.0,0.0,0.0,-3.3812,0.0,0.0,0.0,0.0,0.0,0.0,0.0,0.0,0.0,-3.9603,-4.0987,-4.2587,-4.4263,-4.4882,-4.5395,-4.601,0.0,0.0,0.0,0.0,0.0,0.0,0.0,-4.5595,-4.5595,-4.5329,-4.5146,-4.4945,-4.5397,-4.5723,-4.5522,0.0,0.0,-4.3713,-4.3086,-4.2766,-4.2709,-4.2979,-4.3201,-4.3201,-4.3201,-4.3102,0.0,0.0,0.0,0.0,0.0,0.0,0.0,0.0,-3.352,-3.3364,0.0,-3.2618,0.0,0.0,0.0,0.0,0.0,-3.3536,0.0,0.0,-3.6794,-3.7336,-3.5863,-3.6251,-3.6211,-3.5822,-3.5483,-3.5315,-3.5234,-3.4023,0.0,0.0,0.0,0.0,0.0,0.0,-3.4822,-3.5451,-3.7233,-3.8605,-3.9413,-3.9013,-3.8833,-3.875,-3.7594,-3.7171,-3.7663,-3.6249,-3.5606,-3.6049,-3.4682,0.0,0.0,0.0,0.0,0.0,0.0,0.0,0.0,0.0,0.0,0.0,0.0,0.0,0.0,0.0,0.0,0.0,0.0,0.0,0.0,-3.4703,0.0,0.0,0.0,0.0,0.0,0.0,0.0,0.0,0.0,0.0,-4.0176,-4.2341,-4.423,-4.4519,0.0,0.0,0.0,0.0,-4.6291,-4.5466,-4.5773,-4.5921,-4.5404,-4.5635,-4.5817,-4.5817,0.0,0.0,-4.5598,-4.5949,-4.6125,-4.5623,-4.5949,-4.603,-4.5156,-4.4373,-4.385,-4.385,-4.385,-4.3792,-4.3792,-4.39,-4.385,-3.6689,0.0,0.0,0.0,0.0,-3.5353,-3.5293,-3.5376,-3.4984,-3.4613,-3.4346,-3.4159,0.0,0.0,0.0,0.0,0.0,0.0,-3.5085,-3.5674,-3.7044,-3.7753,-3.7955,-3.8341,-3.8553,-3.8429,-3.7965,-3.7734,-3.7693,-3.7102,-3.5779,-3.3777,0.0,0.0,0.0,0.0,-3.5012,-3.6075,-3.7452,-3.8316,-3.8564,-3.875,-3.8858,-3.8977,-3.8572,-3.8634,-3.9259,-3.8122,-3.7584,-3.7665,-3.6321,0.0,0.0,0.0,0.0,0.0,0.0,0.0,0.0,0.0,0.0,0.0,0.0,0.0,0.0,0.0,0.0,0.0,0.0,0.0,-3.5536,-3.5853,-3.607,0.0,0.0,0.0,0.0,0.0,0.0,0.0,0.0,0.0,-4.258,-4.3421,-4.4281,0.0,0.0,-4.5574,-4.5453,-4.5759,-4.593,-4.5721,-4.6002,0.0,-4.6024,-4.6059,-4.618,-4.612,-4.624,-4.625,-4.61,-4.62,-4.625,-4.61,-4.62,-4.619,-4.598,-4.577,-4.5525,-4.5585,-4.5585,-4.5585,-4.5585,-4.5585,-4.546,-3.7915,-3.7458,-3.6985,-3.6929,-3.7286,-3.708,-3.7118,-3.7446,-3.6926,-3.6618,-3.6349,-3.5997,-3.5645,-3.5148,-3.4779,0.0,0.0,0.0,-3.6753,-3.757,-3.8037,-3.8605,-3.9055,-3.9344,-3.9468,-3.9516,-3.9179,-3.9158,-3.9371,-3.875,-3.7785,-3.6469,0.0,0.0,-3.4584,-3.5197,-3.5875,-3.6554,-3.76,-3.8191,-3.8191,-3.8842,-3.9226,-3.9304,-3.9538,-4.0085,-4.0955,-3.9878,-3.9419,-3.9775,-3.824,-3.6895,0.0,0.0,0.0,0.0,0.0,0.0,0.0,0.0,0.0,0.0,0.0,-3.4602,-3.4007,0.0,0.0,0.0,-3.6443,-3.7002,-3.7394,-3.7686,0.0,0.0,0.0,0.0,0.0,0.0,0.0,-4.1069,-4.2711,-4.3903,-4.4025,-4.4232,-4.4658,-4.5586,-4.5696,-4.5635,-4.5514,0.0,-4.6005,-4.566,-4.5955,-4.6127,-4.5928,-4.5999,-4.612,-4.624,-4.6326,-4.6401,-4.6602,-4.6451,-4.6401,-4.6552,-4.6451,-4.6326,-4.6326,-4.6326,-4.6326,-4.6326,-4.6326,-4.6326,-4.6326,-4.6326,-4.62,-3.9218,-3.9878,-3.9253,-3.9176,-3.9359,-3.9385,-3.9479,-3.9488,-3.9034,-3.8827,-3.8765,-3.8026,-3.7425,-3.6991,-3.6577,0.0,-3.8295,-3.8295,-3.873,-3.9468,-3.9578,-3.9509,-3.953,-3.964,-3.964,-3.9571,-3.9571,-3.9868,-4.022,-3.9433,-3.9117,-3.9426,-3.794,-3.675,-3.6042,-3.6668,-3.7024,-3.709,-3.7765,-3.8191,-3.8304,-3.9341,-3.9823,-3.9888,-4.0437,-4.1342,-4.2653,-4.1387,-4.1034,-4.1883,-4.0161,-3.8671,-3.7595,0.0,0.0,0.0,0.0,0.0,0.0,0.0,0.0,0.0,0.0,0.0,0.0,0.0,0.0,0.0,-3.865,0.0,-3.9585,-3.9756,0.0,0.0,0.0,-4.0509,-4.1176,-4.2386,-4.3164,-4.3126,0.0,0.0,-4.4792,-4.4853,-4.522,-4.618,-4.6266,-4.6145,-4.5817,-4.6179,-4.6266,-4.5466,-4.5786,-4.5958,-4.5711,-4.587,-4.6224,-4.6491,-4.6401,-4.6577,-4.6918,-4.6753,-4.6627,-4.6903,-4.6677,-4.6351,-4.6326,-4.6326,-4.6326,-4.6401,-4.6351,-4.6326,-4.6326,-4.6326,-4.6326,-4.0484,-4.1216,-4.0977,-4.0666,-4.0124,-4.0054,-4.0041,-3.9943,-3.9578,-3.9302,-3.9282,-3.9144,-3.8999,-3.8874,-3.8771,-3.8895,-3.9226,-3.9206,-3.933,-3.9488,-3.9909,-4.0054,-4.0075,-4.0406,-4.0551,-4.0572,-4.0551,-4.0613,-4.0717,-4.051,-4.0096,-3.9488,-3.9069,-3.8309,-3.7197,-3.7145,-3.7206,-3.7452,-3.7642,-3.8283,-3.932,-4.0366,-4.1069,-4.1445,-4.1581,-4.2017,-4.2758,-4.2078,-4.1731,-4.1918,-4.0401,-3.9045,-3.8115,-3.6496,0.0,0.0,0.0,0.0,0.0,0.0,0.0,0.0,0.0,-3.6413,-3.558,0.0,-3.752,0.0,-4.0111,-4.1209,-4.1103,-4.1495,0.0,0.0,-4.1727,-4.1784,-4.2682,-4.3455,-4.3771,-4.365,-4.4473,-4.5098,-4.5159,-4.5159,-4.5489,-4.618,-4.5878,-4.5514,-4.5453,-4.5734,-4.5906,-4.5746,-4.6027,-4.6359,-4.6659,-4.7095,-4.7382,-4.7469,-4.7205,-4.7004,-4.7068,-4.6968,-4.6853,-4.6602,-4.6778,-4.6753,-4.6401,-4.6326,-4.6502,-4.6803,-4.6602,-4.6326,-4.6326,-4.6326,-4.6426,-4.1766,-4.2529,-4.2505,-4.2053,-4.1367,-4.0788,-4.053,-4.0489,-4.0241,-4.0034,-3.9827,-3.955,-3.9661,-3.9778,-3.9778,-3.9951,-4.0137,-4.0137,-4.0137,-4.0137,-4.0406,-4.053,-4.053,-4.0758,-4.0882,-4.0882,-4.0882,-4.0882,-4.0882,-4.0882,-4.0634,-4.0137,-4.0137,-3.9577,-3.8534,-3.7942,-3.7703,-3.7904,-3.835,-3.8925,-3.9713,-4.1184,-4.1851,-4.1621,-4.2032,-4.2169,-4.1979,-4.1483,-4.1141,-4.1094,-4.0103,-3.9112,-3.84,-3.719,-3.6082,0.0,0.0,0.0,0.0,0.0,0.0,0.0,0.0,0.0,0.0,0.0,-3.9104,-3.9941,-4.1677,-4.2607,-4.23,-4.2842,-4.3397,-4.3732,-4.3516,-4.3686,-4.4535,-4.489,-4.5022,-4.4951,-4.5428,-4.5732,-4.5732,-4.5732,-4.5853,-4.6266,-4.6224,-4.603,-4.5806,-4.5939,-4.6074,-4.6323,-4.6556,-4.6853,-4.7405,-4.7707,-4.7908,-4.7883,-4.7657,-4.7481,-4.7481,-4.7218,-4.7104,-4.7029,-4.7018,-4.7129,-4.7029,-4.7029,-4.7252,-4.7978,-4.7597,-4.7015,-4.6728,-4.7075,-4.7573,-4.2823,-4.3594,-4.3553,-4.316,-4.2454,-4.1438,-4.1004,-4.098,-4.098,-4.0742,-4.0269,-3.9868,-3.986,-4.0303,-4.0303,-4.051,-4.0862,-4.0882,-4.0882,-4.0882,-4.0882,-4.0882,-4.0882,-4.0882,-4.0882,-4.0882,-4.0882,-4.0882,-4.0882,-4.0882,-4.0841,-4.08,-4.0779,-4.0389,-3.9593,-3.8718,-3.8299,-3.8304,-3.9276,-3.9844,-3.9975,-4.1761,-4.2206,-4.1177,-4.1878,-4.1868,-4.0762,-4.0241,-4.0011,-4.0011,-3.9469,-3.901,-3.8631,-3.7785,-3.7094,0.0,-3.6172,0.0,0.0,0.0,0.0,0.0,0.0,0.0,0.0,-4.0914,-4.1231,-4.1981,-4.3154,-4.3755,-4.342,-4.4109,-4.4792,-4.5342,-4.5403,-4.5671,-4.624,-4.6326,-4.6326,-4.6326,-4.6326,-4.6301,-4.624,-4.6351,-4.6426,-4.6476,-4.6842,-4.7018,-4.6592,-4.6516,-4.6692,-4.7118,-4.7305,-4.7556,-4.7933,-4.8171,-4.8246,-4.8159,-4.8146,-4.8096,-4.8033,-4.7682,-4.7481,-4.7757,-4.7606,-4.7506,-4.7857,-4.7883,-4.8255,-4.9316,-4.8748,-4.8089,-4.7851,-4.8215,-4.8956,-4.2844,-4.3573,-4.3201,-4.2758,-4.2303,-4.1721,-4.1509,-4.1485,-4.1485,-4.1315,-4.1059,-4.0792,-4.0675,-4.0758,-4.0758,-4.08,-4.0882,-4.0882,-4.0882,-4.0882,-4.0882,-4.0882,-4.0882,-4.0882,-4.0882,-4.0882,-4.0882,-4.0882,-4.0882,-4.0882,-4.0696,-4.0365,-4.0344,-3.986,-3.9007,0.0,0.0,0.0,-3.9713,-4.0495,-4.1421,-4.2038,-4.1919,-4.0861,-4.1023,0.0,-3.9712,-3.9492,-3.9446,-3.9423,-3.8964,0.0,0.0,0.0,0.0,0.0,0.0,0.0,0.0,0.0,0.0,0.0,-4.0184,-4.023,-4.0655,-4.1848,-4.2831,-4.3295,-4.4326,-4.5045,-4.5022,-4.5555,-4.5939,-4.612,-4.612,-4.618,-4.6301,-4.6326,-4.6326,-4.6326,-4.6326,-4.6326,-4.6376,-4.6677,-4.6954,-4.7004,-4.7431,-4.7707,-4.7606,-4.7556,-4.7631,-4.7782,-4.8109,-4.846,-4.8586,-4.9216,-4.9418,-4.9366,-4.9141,-4.8951,-4.8624,-4.851,-4.8259,-4.8058,-4.8209,-4.8284,-4.8008,-4.7908,-4.8233,-4.8888,-4.9204,-4.9602,-5.0063,-4.9461,-4.9167,-4.3256,0.0,-4.3346,-4.2969,0.0,-4.2156,-4.1912,-4.1608,-4.1379,-4.1213,-4.1116,-4.0992,-4.0882,-4.0862,-4.0847,-4.0813,-4.0813,-4.0815,-4.0745,-4.0813,-4.0813,-4.0867,-4.0882,-4.0882,-4.0882,-4.0882,-4.0882,-4.0882,-4.0882,-4.0882,-4.0758,-4.0551,-4.1236,-4.1422,-4.0933,-4.1121,-4.0714,-3.9692,-4.0538,-4.1569,-4.2713,-4.3302,-4.3012,-4.2014,-4.1783,0.0,0.0,0.0,0.0,0.0,0.0,0.0,0.0,0.0,0.0,-3.9709,-3.9929,-4.0127,-4.0422,-4.1069,-4.1768,-4.2484,-4.3168,-4.318,-4.2436,-4.3978,-4.506,-4.4988,-4.5718,-4.6113,-4.5914,-4.615,-4.6326,-4.6326,-4.6326,-4.6326,-4.6326,-4.6552,-4.6702,-4.6753,-4.6928,-4.7104,-4.7104,-4.733,-4.7506,-4.7556,-4.7983,-4.8335,-4.8309,-4.8083,-4.7983,-4.8284,-4.8812,-4.9163,-4.9252,-4.9709,-5.0001,-4.9694,-4.9684,-4.9406,-4.8875,-4.8786,-4.8661,-4.841,-4.8586,-4.8711,-4.8786,-4.8736,-4.8926,-4.9529,-4.9512,-4.9949,-5.1329,-5.1197,-5.0854,-4.3677,-4.3615,-4.3615,-4.321,-4.2644,-4.2559,-4.2152,-4.146,0.0,0.0,0.0,-4.0912,-4.0882,-4.0933,-4.0771,-4.0724,-4.0703,-4.0715,-4.0667,-4.0724,-4.0724,-4.0792,-4.0862,-4.0882,-4.0882,-4.0882,-4.0882,-4.0882,-4.0882,-4.0882,-4.1025,-4.136,-4.2468,-4.3149,-4.3206,-4.3463,-4.2688,-4.1077,-4.1524,-4.25,-4.3778,-4.4237,-4.3935,-4.2857,-4.255,-4.1737,-4.0287,-4.0241,-4.0057,-3.9607,-3.9584,-3.9804,-4.0398,-4.0361,-4.0606,-4.1205,-4.1541,-4.1952,-4.252,-4.3361,-4.4075,-4.4678,-4.5944,-4.6105,-4.4755,-4.624,-4.7079,-4.6627,-4.7004,-4.7079,-4.6652,-4.6602,-4.6602,-4.6602,-4.6577,-4.6602,-4.6627,-4.6979,-4.7255,-4.7305,-4.7606,-4.7908,-4.7857,-4.7983,-4.8058,-4.8134,-4.856,-4.8912,-4.8862,-4.856,-4.846,-4.8862,-4.9264,-4.9565,-4.9654,-4.9976,-4.9976,-4.9719,-4.9912,-4.9862,-4.919,-4.8912,-4.8912,-4.8937,-4.8912,-4.9088,-4.9464,-4.9671,-4.9964,-5.0565,-5.0095,-5.0106,-5.2011,-5.2656,-5.2653,-4.3987,-4.3615,-4.3615,-4.3263,-4.2853,-4.2458,-4.1804,-4.103,-4.1158,-4.1262,-4.1213,-4.098,-4.0882,-4.0882,-4.0871,-4.085,-4.085,-4.0859,-4.0859,-4.085,-4.085,-4.0891,-4.0862,-4.0882,-4.0882,-4.0882,-4.0882,-4.0882,-4.0882,-4.0882,-4.1502,-4.2678,-4.3027,-4.3279,-4.3572,-4.3307,-4.3374,-4.3692,-4.3028,-4.3028,-4.3802,-4.3365,-4.2669,-4.1854,-4.183,-4.143,-4.0793,-4.0831,-4.0724,-4.0655,-4.0655,-4.0921,-4.1536,-4.1536,-4.1885,-4.246,-4.2927,-4.3227,-4.3348,-4.4159,-4.4903,-4.5622,-4.6473,-4.7009,-4.706,-4.7458,-4.7782,-4.7682,-4.7732,-4.7782,-4.7682,-4.7657,-4.7631,-4.7657,-4.7657,-4.7682,-4.7631,-4.7732,-4.7807,-4.7807,-4.7857,-4.7958,-4.8033,-4.836,-4.8636,-4.8736,-4.9063,-4.9439,-4.9414,-4.9414,-4.9389,-4.9464,-4.954,-4.959,-4.9654,-5.0168,-5.0168,-4.9719,-5.0078,-5.027,-4.9568,-4.9414,-4.9389,-4.9439,-4.9364,-4.9414,-4.9579,-5.0115,-5.0318,-5.0551,-5.0916,-5.187,-5.2463,-5.2892,-5.3304,-4.4174,-4.3946,-4.3718,-4.3346,-4.287,-4.2166,-4.1648,-4.1285,-4.1113,-4.1045,-4.1066,-4.0921,-4.0882,-4.0933,-4.0826,-4.0792,-4.0771,-4.0752,-4.0773,-4.0771,-4.0792,-4.0847,-4.0862,-4.0882,-4.0882,-4.0882,-4.0882,-4.0882,-4.0882,-4.0882,-4.1643,-4.3097,-4.4641,-4.5759,-4.6424,-4.6287,-4.5969,-4.5539,-4.4108,-4.3841,-4.4816,-4.4261,-4.3707,-4.3369,-4.316,-4.2862,-4.2343,-4.2296,-4.2178,-4.1919,-4.1895,-4.2158,-4.2721,-4.2721,-4.2986,-4.3601,-4.4025,-4.4207,-4.4207,-4.4939,-4.5822,-4.6822,-4.7282,-4.787,-4.8596,-4.8497,-4.8234,-4.7958,-4.8184,-4.8234,-4.7958,-4.7908,-4.7908,-4.7908,-4.7908,-4.7908,-4.7958,-4.8209,-4.8385,-4.841,-4.8636,-4.8812,-4.8812,-4.9063,-4.9213,-4.9238,-4.949,-4.959,-4.959,-4.959,-4.959,-4.959,-4.959,-4.959,-4.959,-4.9976,-5.004,-4.9654,-5.004,-5.0104,-4.9719,-4.959,-4.9464,-4.9213,-4.9163,-4.9012,-4.8786,-4.9523,-4.9915,-4.9861,-5.0676,-5.1483,-5.2015,-5.282,-5.3424,-4.4381,-4.4256,-4.3801,-4.3346,-4.287,-4.2166,-4.1772,-4.1545,-4.1244,-4.0965,-4.0882,-4.0882,-4.0882,-4.0912,-4.0771,-4.0766,-4.0724,-4.0688,-4.073,-4.0745,-4.0766,-4.0813,-4.0912,-4.0882,-4.0882,-4.0882,-4.0882,-4.0882,-4.0882,-4.0882,-4.1855,-4.3631,-4.6133,-4.7881,-4.8786,-4.8786,-4.8109,-4.6625,-4.5119,-4.4728,-4.5514,-4.5086,-4.4779,-4.4656,-4.4409,-4.4069,-4.3746,-4.3697,-4.3505,-4.3168,-4.312,-4.3313,-4.3673,-4.3697,-4.389,-4.4299,-4.4594,-4.4902,-4.5025,-4.5514,-4.6337,-4.757,-4.7832,-4.8335,-4.9238,-4.9138,-4.8786,-4.841,-4.8711,-4.8761,-4.8435,-4.8335,-4.8284,-4.8284,-4.8284,-4.836,-4.8335,-4.8686,-4.8962,-4.9012,-4.9339,-4.9565,-4.959,-4.959,-4.9565,-4.9565,-4.959,-4.959,-4.959,-4.959,-4.959,-4.959,-4.959,-4.959,-4.959,-4.9912,-4.9912,-4.9654,-4.9847,-4.9836,-4.9593,-4.9389,-4.9188,-4.8736,-4.8586,-4.8435,-4.8158,-4.9109,-4.9718,-4.9705,-5.0715,-5.1683,-5.2198,-5.2865,-5.3448,-4.467,-4.4256,-4.3801,-4.3346,-4.2952,-4.2807,-4.2311,-4.17,-4.1524,-4.1255,-4.0882,-4.0882,-4.0882,-4.0882,-4.0891,-4.085,-4.0871,-4.09,-4.09,-4.085,-4.0891,-4.0912,-4.0882,-4.0882,-4.0882,-4.0882,-4.0882,-4.0882,-4.0882,-4.0954,-4.2327,-4.4914,-4.6603,-4.7841,-4.8646,-4.8786,-4.8046,-4.6662,-4.6106,-4.5526,-4.4926,-4.484,-4.4656,-4.4347,-4.4347,-4.4261,-4.4165,-4.4213,-4.4189,-4.4141,-4.4117,-4.4141,-4.4189,-4.4189,-4.4237,-4.4285,-4.4594,-4.5086,-4.5635,-4.5757,-4.6238,-4.7093,-4.7645,-4.8209,-4.8862,-4.9264,-4.949,-4.9389,-4.9464,-4.9439,-4.9439,-4.9389,-4.9314,-4.9289,-4.9314,-4.9439,-4.9389,-4.949,-4.9515,-4.9515,-4.954,-4.959,-4.959,-4.959,-4.959,-4.959,-4.959,-4.959,-4.959,-4.959,-4.959,-4.959,-4.959,-4.959,-4.9654,-4.9847,-4.9886,-4.9629,-4.9847,-4.9684,-4.914,-4.8812,-4.8661,-4.8159,-4.7983,-4.7933,-4.8226,-4.9307,-5.0474,-5.0459,-5.1516,-5.3164,-5.329,-5.3395,-5.35,-4.4877,-4.4629,-4.3925,-4.3511,-4.3304,-4.3035,-4.2559,-4.2053,-4.1742,-4.1296,-4.0903,-4.0882,-4.0882,-4.0882,-4.0882,-4.0882,-4.0882,-4.0882,-4.0882,-4.0882,-4.0882,-4.0882,-4.0882,-4.0882,-4.0882,-4.0882,-4.0882,-4.0882,-4.1004,-4.1764,-4.2818,-4.4114,-4.6268,-4.7593,-4.7987,-4.866,-4.8416,-4.7379,-4.6949,-4.6299,-4.545,-4.4846,-4.4409,-4.4347,-4.4285,-4.4285,-4.4285,-4.4285,-4.4285,-4.4285,-4.4285,-4.4285,-4.4285,-4.4285,-4.4285,-4.4285,-4.4409,-4.4863,-4.5612,-4.5674,-4.6315,-4.7682,-4.7995,-4.8432,-4.9188,-4.9464,-4.959,-4.959,-4.959,-4.959,-4.959,-4.959,-4.959,-4.959,-4.959,-4.959,-4.959,-4.959,-4.959,-4.959,-4.959,-4.959,-4.959,-4.959,-4.959,-4.959,-4.959,-4.959,-4.959,-4.959,-4.959,-4.959,-4.959,-4.959,-4.959,-4.9719,-4.9593,-4.9277,-4.924,-4.9039,-4.8498,-4.8259,-4.8083,-4.7531,-4.7456,-4.7305,-4.6954,-4.8754,-5.0281,-5.0735,-5.2012,-5.35,-5.35,-5.35,-5.35,-4.5105,-4.4857,-4.4008,-4.3615,-4.3573,-4.3263,-4.2849,-4.2414,-4.1959,-4.1503,-4.1069,-4.0944,-4.0882,-4.0882,-4.0882,-4.0882,-4.0882,-4.0882,-4.0882,-4.0882,-4.0882,-4.0882,-4.0882,-4.0882,-4.0882,-4.0882,-4.0882,-4.0882,-4.1004,-4.1926,-4.2888,-4.3907,-4.5797,-4.7136,-4.7887,-4.8722,-4.8605,-4.7725,-4.7353,-4.6763,-4.595,-4.5101,-4.4717,-4.4717,-4.4717,-4.4717,-4.4717,-4.4717,-4.4717,-4.4717,-4.4597,-4.4501,-4.4501,-4.4381,-4.4419,-4.4601,-4.4625,-4.5053,-4.5876,-4.5987,-4.6655,-4.8089,-4.8178,-4.848,-4.935,-4.9464,-4.9464,-4.959,-4.959,-4.959,-4.959,-4.959,-4.959,-4.959,-4.959,-4.959,-4.959,-4.959,-4.959,-4.959,-4.959,-4.959,-4.959,-4.959,-4.959,-4.959,-4.959,-4.959,-4.959,-4.959,-4.959,-4.959,-4.959,-4.959,-4.959,-4.9453,-4.9188,-4.8912,-4.8774,-4.8397,-4.7832,-4.7707,-4.7506,-4.7029,-4.6954,-4.6914,-4.6869,-4.8224,-5.0378,-5.1044,-5.2272,-5.35,-5.35,-5.35,-5.35,-4.5395,-4.4877,-4.3987,-4.3635,-4.3615,-4.3573,-4.3304,-4.2828,-4.2414,-4.1959,-4.1483,-4.1089,-4.0882,-4.0882,-4.0882,-4.0882,-4.0882,-4.0882,-4.0882,-4.0882,-4.0882,-4.0882,-4.0882,-4.0882,-4.0882,-4.0882,-4.0882,-4.0882,-4.0954,-4.1025,-4.2376,-4.4914,-4.5255,-4.6536,-4.8461,-4.8942,-4.8475,-4.741,-4.7296,-4.6835,-4.603,-4.591,-4.5862,-4.5862,-4.5838,-4.5766,-4.5814,-4.5838,-4.5814,-4.5838,-4.5357,-4.5116,-4.5005,-4.4597,-4.476,-4.5396,-4.5532,-4.59,-4.6616,-4.6841,-4.7213,-4.8064,-4.7905,-4.8081,-4.93,-4.9138,-4.9113,-4.9565,-4.959,-4.959,-4.959,-4.959,-4.959,-4.959,-4.959,-4.959,-4.959,-4.959,-4.959,-4.959,-4.959,-4.959,-4.959,-4.959,-4.959,-4.959,-4.959,-4.9565,-4.9515,-4.954,-4.9515,-4.9464,-4.9464,-4.9565,-4.9515,-4.9238,-4.8912,-4.8586,-4.8209,-4.7782,-4.7431,-4.7104,-4.6803,-4.6602,-4.6527,-4.6572,-4.6806,-4.8236,-5.0601,-5.1894,-5.273,-5.35,-5.35,-5.35,-5.35,-4.5229,-4.4526,-4.4194,-4.3884,-4.3615,-4.3615,-4.3346,-4.2911,-4.2766,-4.2249,-4.1628,-4.1379,-4.1151,-4.0882,-4.0882,-4.0882,-4.0882,-4.0882,-4.0882,-4.0882,-4.0882,-4.0882,-4.0882,-4.0882,-4.0882,-4.0882,-4.0882,-4.0882,-4.0882,-4.0882,-4.1764,-4.3353,-4.4436,-4.5729,-4.725,-4.8067,-4.8126,-4.7758,-4.7472,-4.7244,-4.692,-4.6944,-4.6944,-4.6896,-4.6271,-4.5934,-4.5934,-4.5934,-4.5934,-4.5934,-4.5742,-4.5582,-4.5621,-4.5453,-4.5429,-4.5749,-4.6027,-4.6372,-4.7051,-4.7317,-4.7671,-4.8189,-4.8128,-4.8206,-4.8873,-4.8912,-4.8987,-4.9439,-4.959,-4.959,-4.959,-4.959,-4.959,-4.959,-4.959,-4.959,-4.959,-4.959,-4.959,-4.959,-4.959,-4.959,-4.9565,-4.959,-4.959,-4.959,-4.959,-4.9414,-4.9138,-4.9063,-4.8987,-4.8636,-4.851,-4.851,-4.851,-4.8736,-4.8661,-4.8209,-4.7757,-4.7255,-4.6828,-4.6702,-4.6476,-4.6451,-4.6326,-4.6421,-4.6815,-4.85,-5.0879,-5.2487,-5.3343,-5.35,-5.35,-5.35,-5.35,-4.5229,-4.4546,-4.436,-4.4049,-4.3635,-4.3615,-4.3428,-4.3139,-4.2973,-4.2497,-4.1855,-4.1648,-4.1389,-4.0924,-4.0882,-4.0882,-4.0882,-4.0882,-4.0882,-4.0882,-4.0882,-4.0882,-4.0882,-4.0882,-4.0882,-4.0882,-4.0882,-4.0882,-4.0882,-4.0882,-4.1714,-4.3214,-4.4252,-4.5481,-4.6784,-4.7672,-4.796,-4.7828,-4.763,-4.7497,-4.7497,-4.7497,-4.7497,-4.7401,-4.68,-4.6439,-4.6439,-4.6439,-4.6439,-4.6415,-4.6271,-4.6102,-4.5958,-4.5934,-4.6006,-4.6279,-4.656,-4.6932,-4.7524,-4.7881,-4.8155,-4.8238,-4.8128,-4.8156,-4.8422,-4.836,-4.8611,-4.9113,-4.9339,-4.9364,-4.9565,-4.959,-4.959,-4.959,-4.959,-4.959,-4.959,-4.959,-4.959,-4.959,-4.959,-4.954,-4.9364,-4.9339,-4.9213,-4.9088,-4.9188,-4.9088,-4.8636,-4.8661,-4.856,-4.8058,-4.7983,-4.8008,-4.7983,-4.8109,-4.8083,-4.7657,-4.728,-4.6753,-4.6502,-4.6376,-4.6326,-4.6326,-4.6361,-4.6541,-4.7442,-4.9049,-5.0796,-5.2594,-5.329,-5.35,-5.35,-5.35,-5.35,-4.5416,-4.4919,-4.4505,-4.4029,-4.3635,-4.3615,-4.3615,-4.3491,-4.3139,-4.2683,-4.2166,-4.1793,-4.1379,-4.0944,-4.0882,-4.0882,-4.0882,-4.0882,-4.0882,-4.0882,-4.0882,-4.0882,-4.0882,-4.0882,-4.0882,-4.0882,-4.0882,-4.0882,-4.0882,-4.0933,-4.2116,-4.4183,-4.4573,-4.5685,-4.7894,-4.7894,-4.7828,-4.7563,-4.7497,-4.7497,-4.7497,-4.7497,-4.7497,-4.7497,-4.7401,-4.7377,-4.7425,-4.7401,-4.7353,-4.7353,-4.6968,-4.6487,-4.6126,-4.6078,-4.6327,-4.6956,-4.7159,-4.7645,-4.8412,-4.8502,-4.8451,-4.8252,-4.778,-4.7633,-4.782,-4.7556,-4.7707,-4.8535,-4.89,-4.8987,-4.9439,-4.9565,-4.959,-4.959,-4.959,-4.959,-4.959,-4.959,-4.959,-4.959,-4.954,-4.9339,-4.8962,-4.8786,-4.8636,-4.8435,-4.8586,-4.8661,-4.8209,-4.8385,-4.8435,-4.7983,-4.7631,-4.7506,-4.7506,-4.7506,-4.7305,-4.7018,-4.6753,-4.6376,-4.6401,-4.6326,-4.6326,-4.6326,-4.6326,-4.6541,-4.812,-4.9675,-5.0851,-5.2352,-5.289,-5.3448,-5.35,-5.35,-5.35,-4.5416,-4.496,-4.4484,-4.4029,-4.3635,-4.3615,-4.3615,-4.3594,-4.3449,-4.2973,-4.2405,-4.2177,-4.17,-4.1007,-4.0882,-4.0882,-4.0882,-4.0882,-4.0882,-4.0882,-4.0882,-4.0882,-4.0882,-4.0882,-4.0882,-4.0882,-4.0882,-4.0882,-4.0882,-4.0882,-4.2116,-4.3907,-4.4321,-4.5481,-4.7563,-4.763,-4.7563,-4.7497,-4.7497,-4.7497,-4.7497,-4.7497,-4.7497,-4.7497,-4.7497,-4.7497,-4.7497,-4.7497,-4.7497,-4.7497,-4.7353,-4.7161,-4.704,-4.7016,-4.7088,-4.7364,-4.7652,-4.7962,-4.8526,-4.8812,-4.8675,-4.8158,-4.7821,-4.7608,-4.7369,-4.7143,-4.7431,-4.8134,-4.851,-4.8862,-4.9038,-4.9389,-4.9565,-4.959,-4.959,-4.959,-4.959,-4.959,-4.959,-4.954,-4.9264,-4.8962,-4.8736,-4.851,-4.8309,-4.841,-4.8611,-4.8535,-4.8109,-4.8058,-4.7757,-4.7029,-4.6928,-4.6954,-4.6954,-4.6954,-4.6828,-4.6753,-4.6502,-4.6326,-4.6326,-4.6326,-4.6326,-4.6361,-4.6361,-4.7087,-4.8673,-4.9958,-5.0962,-5.219,-5.3049,-5.3395,-5.3448,-5.35,-5.35,-4.5416,-4.496,-4.4505,-4.4029,-4.3635,-4.3615,-4.3615,-4.3615,-4.3615,-4.3201,-4.258,-4.2331,-4.1928,-4.1214,-4.0965,-4.0882,-4.0882,-4.0882,-4.0882,-4.0882,-4.0882,-4.0882,-4.0882,-4.0882,-4.0882,-4.0882,-4.0882,-4.0882,-4.0882,-4.0933,-4.2046,-4.3838,-4.4183,-4.5301,-4.7298,-4.7497,-4.7497,-4.7497,-4.7497,-4.7497,-4.7497,-4.7497,-4.7497,-4.7497,-4.7497,-4.7497,-4.7497,-4.7497,-4.7497,-4.7497,-4.7497,-4.7497,-4.7497,-4.7473,-4.7563,-4.7696,-4.7894,-4.8158,-4.8576,-4.8902,-4.8665,-4.7933,-4.7845,-4.7556,-4.7029,-4.6828,-4.7054,-4.7581,-4.8109,-4.8535,-4.8812,-4.9264,-4.9565,-4.959,-4.959,-4.959,-4.959,-4.959,-4.959,-4.954,-4.9314,-4.8937,-4.8485,-4.846,-4.8134,-4.8284,-4.851,-4.8435,-4.7958,-4.7782,-4.723,-4.6702,-4.6502,-4.6476,-4.6376,-4.6351,-4.6351,-4.6376,-4.6376,-4.6326,-4.6326,-4.6326,-4.6301,-4.6601,-4.6636,-4.7265,-4.8705,-4.9532,-5.0489,-5.1757,-5.289,-5.3049,-5.3049,-5.3448,-5.35,-4.5395,-4.494,-4.4463,-4.3987,-4.3635,-4.3615,-4.3615,-4.3615,-4.3615,-4.3346,-4.287,-4.2497,-4.2156,-4.1586,-4.1193,-4.0986,-4.0924,-4.0882,-4.0882,-4.0882,-4.0882,-4.0882,-4.0882,-4.0882,-4.0882,-4.0882,-4.0882,-4.0882,-4.0882,-4.0954,-4.2067,-4.3976,-4.4252,-4.5301,-4.7074,-4.7497,-4.7497,-4.7497,-4.7497,-4.7497,-4.7497,-4.7497,-4.7497,-4.7497,-4.7497,-4.7497,-4.7497,-4.7497,-4.7497,-4.7497,-4.7497,-4.7497,-4.7497,-4.7497,-4.763,-4.7894,-4.796,-4.8182,-4.851,-4.8772,-4.8521,-4.7667,-4.7783,-4.7444,-4.6606,-4.6541,-4.6692,-4.7179,-4.7682,-4.8184,-4.8711,-4.9264,-4.9565,-4.959,-4.959,-4.959,-4.959,-4.959,-4.959,-4.959,-4.9515,-4.9188,-4.8234,-4.8435,-4.8134,-4.7933,-4.8259,-4.8234,-4.7883,-4.7707,-4.7355,-4.6928,-4.6502,-4.6326,-4.6326,-4.6326,-4.6326,-4.6326,-4.6326,-4.6326,-4.6326,-4.6326,-4.6326,-4.6601,-4.6874,-4.7593,-4.8326,-4.9076,-4.9985,-5.1017,-5.1811,-5.2272,-5.2648,-5.2943,-5.3343,-4.5105,-4.4919,-4.4132,-4.3718,-4.3615,-4.3615,-4.3615,-4.3615,-4.3615,-4.3366,-4.2973,-4.2807,-4.2476,-4.2115,-4.1679,-4.1379,-4.1317,-4.1027,-4.0882,-4.0882,-4.0882,-4.0882,-4.0882,-4.0882,-4.0882,-4.0882,-4.0882,-4.0882,-4.0882,-4.0882,-4.2046,-4.4114,-4.4252,-4.5301,-4.7141,-4.7497,-4.7497,-4.7497,-4.7497,-4.7497,-4.7497,-4.7497,-4.7497,-4.7497,-4.7497,-4.7497,-4.7497,-4.7497,-4.7497,-4.7497,-4.7497,-4.7497,-4.7497,-4.7497,-4.7563,-4.763,-4.763,-4.7762,-4.8092,-4.8289,-4.8077,-4.773,-4.794,-4.7707,-4.6661,-4.6745,-4.6943,-4.7168,-4.7606,-4.8159,-4.8711,-4.9264,-4.954,-4.959,-4.959,-4.959,-4.959,-4.959,-4.959,-4.9565,-4.9264,-4.8887,-4.8611,-4.836,-4.8284,-4.8335,-4.851,-4.8711,-4.8259,-4.7933,-4.7707,-4.7129,-4.6702,-4.6451,-4.6326,-4.6326,-4.6326,-4.6326,-4.6326,-4.6326,-4.6326,-4.6326,-4.6326,-4.6361,-4.6481,-4.7027,-4.771,-4.8442,-4.9392,-5.0294,-5.0462,-5.0851,-5.1648,-5.2136,-5.2755,-4.5002,-4.4919,-4.3987,-4.3615,-4.3615,-4.3615,-4.3615,-4.3615,-4.3615,-4.347,-4.3201,-4.2994,-4.2787,-4.2497,-4.2136,-4.1928,-4.1793,-4.1379,-4.1172,-4.1172,-4.1193,-4.1069,-4.0924,-4.0882,-4.0882,-4.0882,-4.0882,-4.0882,-4.0882,-4.0882,-4.2116,-4.3769,-4.4183,-4.5346,-4.7364,-4.7497,-4.7497,-4.7497,-4.7497,-4.7497,-4.7497,-4.7497,-4.7497,-4.7497,-4.7497,-4.7497,-4.7497,-4.7497,-4.7497,-4.7497,-4.7497,-4.7497,-4.7497,-4.7497,-4.7497,-4.7497,-4.7497,-4.7563,-4.7762,-4.7894,-4.7848,-4.7604,-4.7829,-4.764,-4.7122,-4.7109,-4.7233,-4.7469,-4.7958,-4.8385,-4.8761,-4.9264,-4.954,-4.959,-4.959,-4.959,-4.959,-4.959,-4.959,-4.9515,-4.9339,-4.8987,-4.8837,-4.8636,-4.8661,-4.8786,-4.8937,-4.8937,-4.8736,-4.8435,-4.8083,-4.7556,-4.7079,-4.6803,-4.6577,-4.6502,-4.6351,-4.6326,-4.6326,-4.6326,-4.6326,-4.6326,-4.6326,-4.6326,-4.6326,-4.6541,-4.7324,-4.7919,-4.8442,-4.9019,-4.9133,-4.9845,-5.0906,-5.1674,-5.2326,-4.5002,-4.4919,-4.3987,-4.3615,-4.3615,-4.3615,-4.3615,-4.3615,-4.3615,-4.3594,-4.3491,-4.3159,-4.3035,-4.2952,-4.2538,-4.2331,-4.229,-4.1804,-4.1565,-4.1483,-4.1421,-4.1276,-4.1193,-4.1069,-4.0986,-4.0903,-4.0882,-4.0882,-4.0882,-4.0882,-4.2116,-4.37,-4.4183,-4.5437,-4.7074,-4.7497,-4.7497,-4.7497,-4.7497,-4.7497,-4.7497,-4.7497,-4.7497,-4.7497,-4.7497,-4.7497,-4.7497,-4.7497,-4.7497,-4.7497,-4.7497,-4.7497,-4.7497,-4.7497,-4.7497,-4.7497,-4.7497,-4.7497,-4.7563,-4.7738,-4.779,-4.7467,-4.7629,-4.7656,-4.7491,-4.7532,-4.7783,-4.8008,-4.8485,-4.8736,-4.8962,-4.9339,-4.954,-4.959,-4.959,-4.959,-4.959,-4.959,-4.959,-4.959,-4.959,-4.9339,-4.9163,-4.9213,-4.9414,-4.9088,-4.9238,-4.9238,-4.9038,-4.8761,-4.8435,-4.8083,-4.7631,-4.7143,-4.6979,-4.6728,-4.6502,-4.6351,-4.6326,-4.6326,-4.6326,-4.6326,-4.6326,-4.6326,-4.6326,-4.6601,-4.7205,-4.7652,-4.7828,-4.8061,-4.8384,-4.9562,-5.074,-5.1401,-5.2082,-4.5002,-4.4919,-4.3987,-4.3615,-4.3615,-4.3615,-4.3615,-4.3615,-4.3615,-4.3615,-4.3594,-4.3491,-4.3449,-4.3408,-4.2994,-4.2766,-4.2663,-4.2,-4.1565,-4.1524,-4.1151,-4.1462,-4.1669,-4.1565,-4.1214,-4.0986,-4.0882,-4.0882,-4.0882,-4.1147,-4.2046,-4.3907,-4.4481,-4.5301,-4.7141,-4.7497,-4.7497,-4.7497,-4.7497,-4.7497,-4.7497,-4.7497,-4.7497,-4.7497,-4.7497,-4.7497,-4.7497,-4.7497,-4.7497,-4.7497,-4.7497,-4.7497,-4.7497,-4.7497,-4.7497,-4.7497,-4.7497,-4.7497,-4.7497,-4.7539,-4.7581,-4.7527,-4.7914,-4.8182,-4.7706,-4.8142,-4.8459,-4.8586,-4.8711,-4.8987,-4.9314,-4.949,-4.959,-4.959,-4.959,-4.959,-4.959,-4.959,-4.959,-4.959,-4.959,-4.954,-4.9414,-4.9439,-4.9515,-4.9439,-4.9439,-4.9515,-4.9314,-4.9038,-4.8837,-4.8586,-4.8159,-4.7732,-4.7456,-4.7104,-4.6652,-4.6401,-4.6326,-4.6326,-4.6326,-4.6326,-4.6326,-4.6326,-4.6326,-4.6695,-4.7027,-4.6874,-4.6934,-4.7265,-4.7769,-4.8877,-5.0014,-5.0851,-5.2,-4.5188,-4.4919,-4.4215,-4.3801,-4.3635,-4.3615,-4.3615,-4.3615,-4.3615,-4.3615,-4.3615,-4.3615,-4.3615,-4.3594,-4.3366,-4.3242,-4.3035,-4.2311,-4.1897,-4.1793,-4.1462,-4.1483,-4.1825,-4.171,-4.14,-4.1193,-4.0965,-4.0882,-4.1025,-4.1502,-4.2538,-4.4114,-4.4686,-4.5866,-4.7232,-4.7497,-4.7497,-4.7497,-4.7497,-4.7497,-4.7497,-4.7497,-4.7497,-4.7497,-4.7497,-4.7497,-4.7497,-4.7497,-4.7497,-4.7497,-4.7497,-4.7497,-4.7497,-4.7497,-4.7497,-4.7497,-4.7497,-4.7497,-4.7497,-4.7497,-4.7563,-4.7696,-4.8116,-4.8273,-4.8377,-4.8754,-4.8971,-4.9099,-4.9188,-4.9314,-4.9565,-4.959,-4.959,-4.959,-4.959,-4.959,-4.959,-4.959,-4.959,-4.959,-4.959,-4.959,-4.959,-4.959,-4.959,-4.9515,-4.9515,-4.9565,-4.9565,-4.9339,-4.9289,-4.9038,-4.8611,-4.8234,-4.7958,-4.7481,-4.6828,-4.6552,-4.6326,-4.6326,-4.6326,-4.6326,-4.6326,-4.6326,-4.6326,-4.6326,-4.6541,-4.6301,-4.6301,-4.6636,-4.7265,-4.8268,-4.9278,-5.035,-5.1757,-4.5457,-4.5043,-4.4526,-4.407,-4.3739,-4.3656,-4.3615,-4.3615,-4.3615,-4.3615,-4.3615,-4.3615,-4.3615,-4.3594,-4.3594,-4.3553,-4.3139,-4.2559,-4.2053,-4.2011,-4.1597,-4.1628,-4.1772,-4.1628,-4.1524,-4.1659,-4.1131,-4.0903,-4.1147,-4.1975,-4.2958,-4.4183,-4.5324,-4.6362,-4.7232,-4.7497,-4.7497,-4.7497,-4.7497,-4.7497,-4.7497,-4.7497,-4.7497,-4.7497,-4.7497,-4.7497,-4.7497,-4.7497,-4.7497,-4.7497,-4.7497,-4.7497,-4.7497,-4.7497,-4.7497,-4.7497,-4.7497,-4.7497,-4.7497,-4.7563,-4.7696,-4.8026,-4.8158,-4.8486,-4.8893,-4.9127,-4.9321,-4.9475,-4.954,-4.954,-4.959,-4.959,-4.959,-4.959,-4.959,-4.959,-4.959,-4.959,-4.959,-4.959,-4.959,-4.959,-4.959,-4.959,-4.959,-4.959,-4.959,-4.959,-4.959,-4.959,-4.949,-4.9464,-4.9063,-4.8435,-4.8083,-4.733,-4.6753,-4.6577,-4.6326,-4.6326,-4.6326,-4.6326,-4.6326,-4.6326,-4.6326,-4.6326,-4.6326,-4.6326,-4.6301,-4.6301,-4.6993,-4.8152,-4.9049,-4.9928,-5.1429,-4.5643,-4.5498,-4.465,-4.4256,-4.4132,-4.378,-4.3615,-4.3615,-4.3615,-4.3615,-4.3615,-4.3615,-4.3615,-4.3615,-4.3615,-4.3242,-4.2663,-4.2062,-4.1804,-4.1648,-4.1317,-4.1441,-4.2062,-4.1462,-4.1421,-4.1752,-4.1338,-4.0882,-4.1147,-4.1975,-4.3236,-4.4252,-4.546,-4.6563,-4.7232,-4.7497,-4.7497,-4.7497,-4.7497,-4.7497,-4.7497,-4.7497,-4.7497,-4.7497,-4.7497,-4.7497,-4.7497,-4.7497,-4.7497,-4.7497,-4.7497,-4.7497,-4.7497,-4.7497,-4.7497,-4.7497,-4.7497,-4.7497,-4.7563,-4.7762,-4.7894,-4.8092,-4.8486,-4.8877,-4.9137,-4.9332,-4.9461,-4.9525,-4.959,-4.959,-4.959,-4.959,-4.959,-4.959,-4.959,-4.959,-4.959,-4.959,-4.959,-4.959,-4.959,-4.959,-4.959,-4.959,-4.959,-4.959,-4.959,-4.959,-4.959,-4.959,-4.9565,-4.9565,-4.9515,-4.8786,-4.8109,-4.7179,-4.6476,-4.6451,-4.6326,-4.6326,-4.6326,-4.6326,-4.6326,-4.6326,-4.6326,-4.6326,-4.6326,-4.6326,-4.6301,-4.6301,-4.7205,-4.8094,-4.8935,-4.9845,-5.1375,-4.5747,-4.5291,-4.4836,-4.4381,-4.3946,-4.3718,-4.3615,-4.3615,-4.3615,-4.3615,-4.3615,-4.3615,-4.3615,-4.3615,-4.3615,-4.3221,-4.2559,-4.1855,-4.1607,-4.1462,-4.1172,-4.1131,-4.1897,-4.1131,-4.1193,-4.1317,-4.1069,-4.0882,-4.1075,-4.2678,-4.3562,-4.4389,-4.5799,-4.7032,-4.7364,-4.7497,-4.7497,-4.7497,-4.7497,-4.7497,-4.7497,-4.7497,-4.7497,-4.7497,-4.7497,-4.7497,-4.7497,-4.7497,-4.7497,-4.7497,-4.7497,-4.7497,-4.7497,-4.7497,-4.7497,-4.7497,-4.7497,-4.7563,-4.7696,-4.796,-4.8158,-4.8551,-4.8942,-4.9202,-4.9332,-4.9525,-4.959,-4.959,-4.959,-4.959,-4.959,-4.959,-4.959,-4.959,-4.959,-4.959,-4.959,-4.959,-4.959,-4.959,-4.959,-4.959,-4.959,-4.959,-4.959,-4.959,-4.959,-4.959,-4.959,-4.959,-4.959,-4.9389,-4.9264,-4.8611,-4.7908,-4.7154,-4.6426,-4.6326,-4.6326,-4.6326,-4.6326,-4.6326,-4.6326,-4.6326,-4.6326,-4.6326,-4.6326,-4.6326,-4.6326,-4.6326,-4.6815,-4.7475,-4.8647,-4.9901,-5.1181,-4.5788,-4.5126,-4.4919,-4.4422,-4.3801,-4.3635,-4.3615,-4.3615,-4.3615,-4.3615,-4.3615,-4.3615,-4.3615,-4.3553,-4.3346,-4.3035,-4.26,-4.1731,-4.1421,-4.1317,-4.1069,-4.0924,-4.1078,-4.0924,-4.1007,-4.1214,-4.0944,-4.0882,-4.1289,-4.3006,-4.3976,-4.4755,-4.6405,-4.7497,-4.7497,-4.7497,-4.7497,-4.7497,-4.7497,-4.7497,-4.7497,-4.7497,-4.7497,-4.7497,-4.7497,-4.7497,-4.7497,-4.7497,-4.7497,-4.7497,-4.7497,-4.7497,-4.7497,-4.7497,-4.7497,-4.7497,-4.7497,-4.7696,-4.7894,-4.8092,-4.842,-4.8942,-4.9137,-4.9332,-4.9461,-4.9525,-4.959,-4.959,-4.959,-4.959,-4.959,-4.959,-4.959,-4.959,-4.959,-4.959,-4.959,-4.959,-4.959,-4.959,-4.959,-4.959,-4.959,-4.959,-4.959,-4.959,-4.959,-4.959,-4.959,-4.959,-4.9515,-4.9163,-4.8812,-4.8259,-4.7657,-4.7154,-4.6577,-4.6326,-4.6326,-4.6326,-4.6326,-4.6326,-4.6326,-4.6351,-4.6326,-4.6326,-4.6326,-4.6326,-4.6326,-4.6326,-4.6326,-4.6934,-4.821,-4.9204,-5.0271,-4.5705,-4.5519,-4.4733,-4.4319,-4.4132,-4.378,-4.3615,-4.3615,-4.3615,-4.3615,-4.3615,-4.3615,-4.3594,-4.3408,-4.2725,-4.2207,-4.1731,-4.1317,-4.1048,-4.1027,-4.0944,-4.1048,-4.1317,-4.1027,-4.1089,-4.1193,-4.1007,-4.0903,-4.1502,-4.3214,-4.4183,-4.4664,-4.6248,-4.7497,-4.7497,-4.7497,-4.7497,-4.7497,-4.7497,-4.7497,-4.7497,-4.7497,-4.7497,-4.7497,-4.7497,-4.7497,-4.7497,-4.7497,-4.7497,-4.7497,-4.7497,-4.7497,-4.7497,-4.7497,-4.7497,-4.7497,-4.7497,-4.763,-4.8026,-4.8313,-4.8641,-4.9072,-4.9332,-4.9525,-4.959,-4.959,-4.959,-4.959,-4.959,-4.959,-4.959,-4.959,-4.959,-4.959,-4.959,-4.959,-4.959,-4.959,-4.959,-4.959,-4.959,-4.959,-4.959,-4.959,-4.959,-4.959,-4.959,-4.959,-4.954,-4.949,-4.9389,-4.9038,-4.836,-4.7757,-4.7456,-4.6954,-4.6652,-4.6326,-4.6326,-4.6326,-4.6326,-4.6326,-4.6376,-4.6376,-4.6376,-4.6426,-4.6476,-4.6476,-4.6376,-4.6326,-4.6326,-4.6993,-4.7919,-4.8782,-4.961,-4.5064,-4.5229,-4.4567,-4.4132,-4.3884,-4.3698,-4.3615,-4.3615,-4.3615,-4.3615,-4.3615,-4.3615,-4.347,-4.3056,-4.2269,-4.1793,-4.1483,-4.1089,-4.0882,-4.0882,-4.0882,-4.0986,-4.1069,-4.0986,-4.1048,-4.1069,-4.115,-4.1381,-4.2116,-4.3167,-4.4183,-4.4595,-4.6338,-4.7497,-4.7497,-4.7497,-4.7497,-4.7497,-4.7497,-4.7497,-4.7497,-4.7497,-4.7497,-4.7497,-4.7497,-4.7497,-4.7497,-4.7497,-4.7497,-4.7497,-4.7497,-4.7497,-4.7497,-4.7497,-4.7497,-4.7497,-4.7497,-4.7762,-4.8248,-4.851,-4.8837,-4.9202,-4.9525,-4.959,-4.959,-4.959,-4.959,-4.959,-4.959,-4.959,-4.959,-4.959,-4.959,-4.959,-4.959,-4.959,-4.959,-4.959,-4.959,-4.959,-4.959,-4.959,-4.959,-4.959,-4.959,-4.959,-4.959,-4.9565,-4.9414,-4.9213,-4.9063,-4.8862,-4.8083,-4.7218,-4.7079,-4.6778,-4.6552,-4.6326,-4.6326,-4.6326,-4.6326,-4.6326,-4.6401,-4.6627,-4.6778,-4.6803,-4.6728,-4.6552,-4.6426,-4.6351,-4.6326,-4.6815,-4.739,-4.8456,-4.9282,-4.4505,-4.4774,-4.4319,-4.3925,-4.3615,-4.3615,-4.3615,-4.3615,-4.3615,-4.3553,-4.3428,-4.3284,-4.2973,-4.2538,-4.1917,-4.1524,-4.1358,-4.1027,-4.0903,-4.0882,-4.0882,-4.0882,-4.0924,-4.0882,-4.0882,-4.0882,-4.0903,-4.1431,-4.2468,-4.3562,-4.4321,-4.4686,-4.654,-4.7364,-4.7497,-4.7497,-4.7497,-4.7497,-4.7497,-4.7497,-4.7497,-4.7497,-4.7497,-4.7497,-4.7497,-4.7497,-4.7497,-4.7497,-4.7497,-4.7497,-4.7497,-4.7497,-4.7497,-4.7497,-4.7497,-4.7497,-4.7497,-4.7762,-4.8182,-4.8576,-4.8967,-4.9357,-4.959,-4.959,-4.959,-4.959,-4.959,-4.959,-4.959,-4.959,-4.959,-4.959,-4.959,-4.959,-4.959,-4.959,-4.959,-4.959,-4.959,-4.959,-4.959,-4.959,-4.959,-4.959,-4.959,-4.959,-4.9565,-4.9515,-4.9213,-4.8887,-4.8535,-4.8259,-4.7581,-4.6792,-4.6728,-4.6552,-4.6376,-4.6326,-4.6326,-4.6326,-4.6326,-4.6401,-4.6502,-4.6753,-4.7104,-4.7004,-4.6828,-4.6652,-4.6451,-4.6376,-4.6326,-4.6326,-4.6841,-4.7955,-4.9035,-4.4319,-4.4319,-4.3863,-4.3656,-4.3615,-4.3615,-4.3615,-4.3615,-4.3615,-4.3366,-4.2994,-4.2559,-4.2166,-4.1772,-4.1607,-4.1296,-4.0944,-4.0882,-4.0882,-4.0882,-4.0882,-4.0882,-4.0882,-4.0882,-4.0882,-4.0882,-4.0954,-4.1502,-4.2538,-4.37,-4.4755,-4.5799,-4.6965,-4.7364,-4.7497,-4.7497,-4.7497,-4.7497,-4.7497,-4.7497,-4.7497,-4.7497,-4.7497,-4.7497,-4.7497,-4.7497,-4.7497,-4.7497,-4.7497,-4.7497,-4.7497,-4.7497,-4.7497,-4.7497,-4.7497,-4.7497,-4.7497,-4.7696,-4.8092,-4.8445,-4.8967,-4.9357,-4.959,-4.959,-4.959,-4.959,-4.959,-4.959,-4.959,-4.959,-4.959,-4.959,-4.959,-4.959,-4.959,-4.959,-4.959,-4.959,-4.959,-4.959,-4.959,-4.959,-4.959,-4.959,-4.959,-4.959,-4.9339,-4.9264,-4.8736,-4.836,-4.7857,-4.7431,-4.6878,-4.6476,-4.6426,-4.6326,-4.6326,-4.6326,-4.6326,-4.6326,-4.6326,-4.6426,-4.6677,-4.7004,-4.7305,-4.7129,-4.7004,-4.7029,-4.6903,-4.6502,-4.6336,-4.644,-4.6667,-4.7566,-4.8643,-4.4049,-4.4256,-4.3801,-4.3615,-4.3615,-4.3615,-4.3615,-4.3615,-4.3615,-4.3346,-4.287,-4.2186,-4.1731,-4.1524,-4.1234,-4.1069,-4.0882,-4.0882,-4.0882,-4.0882,-4.0882,-4.0882,-4.0882,-4.0882,-4.0882,-4.0882,-4.1025,-4.1905,-4.3492,-4.4114,-4.5369,-4.654,-4.7298,-4.7431,-4.7497,-4.7497,-4.7497,-4.7497,-4.7497,-4.7497,-4.7497,-4.7497,-4.7497,-4.7497,-4.7497,-4.7497,-4.7497,-4.7497,-4.7497,-4.7497,-4.7497,-4.7497,-4.7497,-4.7497,-4.7497,-4.7497,-4.7497,-4.763,-4.796,-4.8379,-4.8902,-4.9421,-4.959,-4.959,-4.959,-4.959,-4.959,-4.959,-4.959,-4.959,-4.959,-4.959,-4.959,-4.959,-4.959,-4.959,-4.959,-4.959,-4.959,-4.959,-4.959,-4.959,-4.959,-4.959,-4.959,-4.9565,-4.9264,-4.8912,-4.841,-4.7908,-4.7456,-4.7079,-4.6602,-4.6376,-4.6326,-4.6326,-4.6326,-4.6326,-4.6326,-4.6376,-4.6426,-4.6753,-4.7029,-4.733,-4.7606,-4.7581,-4.7581,-4.7606,-4.7255,-4.6577,-4.6475,-4.6662,-4.6976,-4.7449,-4.8387,-4.3801,-4.4049,-4.3739,-4.3615,-4.3615,-4.3615,-4.3615,-4.3615,-4.3615,-4.3346,-4.287,-4.2104,-4.1742,-4.1576,-4.1276,-4.0986,-4.0924,-4.0882,-4.0882,-4.0882,-4.0882,-4.0882,-4.0882,-4.0882,-4.0882,-4.0933,-4.1431,-4.2468,-4.4045,-4.4481,-4.5775,-4.6941,-4.7497,-4.7497,-4.7497,-4.7497,-4.7497,-4.7497,-4.7497,-4.7497,-4.7497,-4.7497,-4.7497,-4.7497,-4.7497,-4.7497,-4.7497,-4.7497,-4.7497,-4.7497,-4.7497,-4.7497,-4.7497,-4.7497,-4.7497,-4.7497,-4.7497,-4.763,-4.7894,-4.8445,-4.8967,-4.9461,-4.959,-4.959,-4.959,-4.959,-4.959,-4.959,-4.959,-4.959,-4.959,-4.959,-4.959,-4.959,-4.959,-4.959,-4.959,-4.959,-4.959,-4.959,-4.959,-4.959,-4.959,-4.959,-4.959,-4.949,-4.9138,-4.8711,-4.8159,-4.7657,-4.7179,-4.6828,-4.6527,-4.6376,-4.6326,-4.6326,-4.6326,-4.6326,-4.6351,-4.6502,-4.6652,-4.6954,-4.7456,-4.7933,-4.8134,-4.8159,-4.7857,-4.7456,-4.6979,-4.6451,-4.6628,-4.6964,-4.7592,-4.8138,-4.8674,-4.3635,-4.3615,-4.3615,-4.3615,-4.3615,-4.3615,-4.3615,-4.3594,-4.3553,-4.3304,-4.287,-4.2352,-4.197,-4.1607,-4.14,-4.1151,-4.0924,-4.0882,-4.0882,-4.0882,-4.0882,-4.0882,-4.0882,-4.0882,-4.0882,-4.1147,-4.1764,-4.2818,-4.4183,-4.5119,-4.6338,-4.7141,-4.7497,-4.7497,-4.7497,-4.7497,-4.7497,-4.7497,-4.7497,-4.7497,-4.7497,-4.7497,-4.7497,-4.7497,-4.7497,-4.7497,-4.7497,-4.7497,-4.7497,-4.7497,-4.7497,-4.7497,-4.7497,-4.7497,-4.7497,-4.7497,-4.7497,-4.7497,-4.763,-4.8551,-4.9137,-4.9525,-4.959,-4.959,-4.959,-4.959,-4.959,-4.959,-4.959,-4.959,-4.959,-4.959,-4.959,-4.959,-4.959,-4.959,-4.959,-4.959,-4.959,-4.959,-4.959,-4.959,-4.959,-4.959,-4.959,-4.9439,-4.9038,-4.8535,-4.7908,-4.7355,-4.6853,-4.6677,-4.6426,-4.6376,-4.6326,-4.6326,-4.6326,-4.6326,-4.6376,-4.6527,-4.6753,-4.6968,-4.7606,-4.836,-4.8259,-4.7933,-4.7506,-4.7079,-4.6677,-4.6411,-4.7069,-4.7502,-4.8101,-4.8566,-4.8902,-4.3615,-4.3615,-4.3615,-4.3615,-4.3615,-4.3615,-4.3615,-4.3553,-4.3304,-4.3056,-4.2787,-4.2145,-4.1752,-4.1524,-4.1348,-4.1069,-4.0924,-4.0882,-4.0882,-4.0882,-4.0954,-4.0882,-4.0954,-4.0954,-4.0954,-4.1218,-4.1975,-4.3167,-4.4252,-4.546,-4.6496,-4.7232,-4.7497,-4.7497,-4.7497,-4.7497,-4.7497,-4.7497,-4.7497,-4.7497,-4.7497,-4.7497,-4.7497,-4.7497,-4.7521,-4.7497,-4.7497,-4.7497,-4.7497,-4.7497,-4.7497,-4.7497,-4.7497,-4.7497,-4.7497,-4.7497,-4.7497,-4.763,-4.7828,-4.8486,-4.9032,-4.9357,-4.959,-4.959,-4.959,-4.959,-4.959,-4.959,-4.959,-4.959,-4.959,-4.959,-4.959,-4.959,-4.959,-4.959,-4.959,-4.959,-4.959,-4.959,-4.959,-4.959,-4.959,-4.959,-4.959,-4.9264,-4.8862,-4.8209,-4.7581,-4.6979,-4.6476,-4.6451,-4.6351,-4.6326,-4.6326,-4.6326,-4.6326,-4.6326,-4.6401,-4.6552,-4.6803,-4.7093,-4.7556,-4.8184,-4.7908,-4.7581,-4.7179,-4.6803,-4.6527,-4.6491,-4.69,-4.7522,-4.8257,-4.8409,-4.8489,-4.3615,-4.3615,-4.3615,-4.3615,-4.3615,-4.3615,-4.3615,-4.3553,-4.3284,-4.3077,-4.2807,-4.2269,-4.1835,-4.1565,-4.1276,-4.0965,-4.0903,-4.0882,-4.0882,-4.0954,-4.136,-4.1218,-4.1075,-4.1289,-4.1573,-4.1785,-4.2608,-4.3722,-4.4892,-4.5934,-4.6831,-4.7364,-4.7497,-4.7497,-4.7497,-4.7497,-4.7497,-4.7497,-4.7497,-4.7617,-4.7666,-4.769,-4.7593,-4.7666,-4.7642,-4.7497,-4.7497,-4.7497,-4.7497,-4.7497,-4.7497,-4.7497,-4.7497,-4.7497,-4.7497,-4.7497,-4.7497,-4.7696,-4.796,-4.8182,-4.8641,-4.9097,-4.9396,-4.959,-4.959,-4.959,-4.959,-4.959,-4.959,-4.959,-4.959,-4.959,-4.959,-4.959,-4.959,-4.959,-4.959,-4.959,-4.959,-4.959,-4.959,-4.959,-4.959,-4.959,-4.959,-4.9138,-4.8636,-4.7983,-4.7355,-4.6778,-4.6326,-4.6326,-4.6326,-4.6326,-4.6326,-4.6326,-4.6326,-4.6326,-4.6401,-4.6527,-4.7029,-4.7344,-4.7707,-4.7857,-4.7631,-4.733,-4.6928,-4.6577,-4.6401,-4.625,-4.6305,-4.7095,-4.8136,-4.8299,-4.821,-4.3615,-4.3615,-4.3615,-4.3615,-4.3615,-4.3615,-4.3615,-4.3615,-4.3553,-4.3304,-4.289,-4.2787,-4.2375,-4.1794,-4.1576,-4.1378,-4.1209,-4.1096,-4.1025,-4.136,-4.1975,-4.1714,-4.1785,-4.2067,-4.2468,-4.2958,-4.3653,-4.4686,-4.589,-4.6697,-4.7298,-4.7497,-4.7497,-4.7497,-4.7497,-4.7497,-4.7497,-4.7497,-4.7521,-4.7738,-4.7954,-4.7834,-4.7954,-4.805,-4.8026,-4.7786,-4.7714,-4.7642,-4.7569,-4.7521,-4.7497,-4.7497,-4.7497,-4.7497,-4.7497,-4.7497,-4.7497,-4.7696,-4.7828,-4.7984,-4.8248,-4.8706,-4.9162,-4.9396,-4.9461,-4.9357,-4.9357,-4.9396,-4.9396,-4.9461,-4.9525,-4.959,-4.959,-4.959,-4.959,-4.959,-4.959,-4.959,-4.959,-4.959,-4.959,-4.959,-4.959,-4.959,-4.9565,-4.9213,-4.8736,-4.8159,-4.7481,-4.6753,-4.6401,-4.6326,-4.6326,-4.6326,-4.6326,-4.6326,-4.6326,-4.6326,-4.6351,-4.6502,-4.7079,-4.7431,-4.7456,-4.7456,-4.7355,-4.7079,-4.6677,-4.6451,-4.6351,-4.6225,-4.6175,-4.6798,-4.7916,-4.7956,-4.7947,-4.3615,-4.3615,-4.3615,-4.3615,-4.3615,-4.3615,-4.3615,-4.3573,-4.3284,-4.3014,-4.289,-4.2228,-4.2293,-4.2606,-4.1644,-4.1578,-4.1827,-4.1926,-4.1431,-4.1834,-4.2888,-4.2748,-4.2818,-4.3097,-4.3562,-4.4068,-4.4755,-4.5528,-4.6092,-4.7032,-4.7497,-4.7497,-4.7497,-4.7497,-4.7497,-4.7497,-4.7497,-4.7497,-4.7497,-4.7834,-4.8147,-4.8098,-4.8339,-4.8531,-4.8603,-4.8339,-4.8122,-4.8074,-4.793,-4.7593,-4.7521,-4.7497,-4.7497,-4.7497,-4.7497,-4.7497,-4.7497,-4.7563,-4.7696,-4.7894,-4.8026,-4.8182,-4.8641,-4.8772,-4.8902,-4.8902,-4.8902,-4.9032,-4.9137,-4.9202,-4.9267,-4.9332,-4.9396,-4.9525,-4.9461,-4.9461,-4.9461,-4.9525,-4.9525,-4.959,-4.959,-4.959,-4.959,-4.959,-4.954,-4.9264,-4.8862,-4.8284,-4.7606,-4.6853,-4.6426,-4.6326,-4.6326,-4.6326,-4.6326,-4.6326,-4.6326,-4.6326,-4.6351,-4.6476,-4.6928,-4.7179,-4.7129,-4.7054,-4.6954,-4.6728,-4.6426,-4.6326,-4.6326,-4.6326,-4.6311,-4.6925,-4.7399,-4.7403,-4.7684,-4.3615,-4.3615,-4.3615,-4.3615,-4.3691,-4.4146,-4.4352,-4.4214,-4.3531,-4.3056,-4.2621,-4.2124,-4.228,-4.2664,-4.2054,-4.2138,-4.3167,-4.3167,-4.2888,-4.3027,-4.3999,-4.3791,-4.393,-4.4206,-4.4755,-4.5187,-4.5528,-4.6092,-4.6496,-4.6965,-4.7497,-4.7497,-4.7497,-4.7497,-4.7497,-4.7497,-4.7497,-4.7497,-4.7569,-4.7834,-4.8098,-4.8315,-4.8628,-4.8988,-4.9109,-4.8916,-4.8676,-4.8603,-4.8315,-4.7906,-4.781,-4.769,-4.7593,-4.7497,-4.7497,-4.7497,-4.7497,-4.7497,-4.7563,-4.7696,-4.7762,-4.7828,-4.805,-4.8116,-4.8313,-4.8445,-4.8576,-4.8706,-4.8837,-4.8902,-4.9032,-4.9072,-4.9202,-4.9396,-4.9357,-4.9357,-4.9396,-4.9396,-4.9461,-4.959,-4.959,-4.959,-4.959,-4.959,-4.954,-4.9364,-4.8987,-4.841,-4.7682,-4.6903,-4.6502,-4.6326,-4.6326,-4.6326,-4.6326,-4.6326,-4.6326,-4.6326,-4.6326,-4.6502,-4.6853,-4.6853,-4.6753,-4.6652,-4.6552,-4.6401,-4.6326,-4.6326,-4.6326,-4.6326,-4.6326,-4.6585,-4.6764,-4.6557,-4.7059,-4.3615,-4.3615,-4.3615,-4.3615,-4.3767,-4.4805,-4.5287,-4.5266,-4.428,-4.3431,-4.2795,-4.2512,-4.272,-4.3202,-4.2888,-4.3284,-4.4045,-4.4343,-4.4137,-4.4252,-4.5392,-4.5392,-4.496,-4.5392,-4.5934,-4.6001,-4.6227,-4.663,-4.7232,-4.7497,-4.7497,-4.7497,-4.7497,-4.7497,-4.7497,-4.7497,-4.7497,-4.7497,-4.7569,-4.7738,-4.8171,-4.8387,-4.8579,-4.9084,-4.9253,-4.9229,-4.9157,-4.9012,-4.8844,-4.8459,-4.8122,-4.7882,-4.7666,-4.7497,-4.7497,-4.7497,-4.7497,-4.7497,-4.7497,-4.7563,-4.7563,-4.7563,-4.7497,-4.763,-4.7828,-4.805,-4.8182,-4.8313,-4.8379,-4.851,-4.8551,-4.8772,-4.8902,-4.9032,-4.8967,-4.9032,-4.9162,-4.9227,-4.9292,-4.9332,-4.9461,-4.9461,-4.959,-4.959,-4.959,-4.9464,-4.9088,-4.851,-4.7857,-4.7054,-4.6652,-4.6376,-4.6326,-4.6326,-4.6326,-4.6326,-4.6326,-4.6326,-4.6326,-4.6401,-4.6677,-4.6577,-4.6351,-4.6351,-4.6401,-4.6376,-4.6326,-4.6326,-4.6326,-4.6326,-4.6326,-4.6326,-4.6185,-4.6087,-4.6693,-4.3615,-4.3615,-4.3615,-4.3615,-4.3767,-4.488,-4.519,-4.4866,-4.5508,-4.5427,-4.4832,-4.4172,-4.4219,-4.4686,-4.4068,-4.4412,-4.5233,-4.546,-4.496,-4.5233,-4.6204,-4.6429,-4.5866,-4.6405,-4.6965,-4.7098,-4.7165,-4.7165,-4.7431,-4.7497,-4.7497,-4.7497,-4.7497,-4.7497,-4.7497,-4.7497,-4.7497,-4.7497,-4.7617,-4.7834,-4.8219,-4.8748,-4.9133,-4.9614,-4.9854,-4.9878,-4.9686,-4.9253,-4.8844,-4.8363,-4.7882,-4.7642,-4.7521,-4.7497,-4.7497,-4.7497,-4.7497,-4.7497,-4.7497,-4.7497,-4.7497,-4.7497,-4.7497,-4.7497,-4.7563,-4.7696,-4.7786,-4.7918,-4.7984,-4.8116,-4.8182,-4.8379,-4.8576,-4.8576,-4.86,-4.8706,-4.8837,-4.8967,-4.9032,-4.9162,-4.9267,-4.9332,-4.9461,-4.9525,-4.959,-4.9389,-4.9038,-4.856,-4.8058,-4.738,-4.6853,-4.6577,-4.6351,-4.6326,-4.6326,-4.6326,-4.6326,-4.6326,-4.6326,-4.6426,-4.6527,-4.6426,-4.6326,-4.6326,-4.6326,-4.6326,-4.6326,-4.6326,-4.6326,-4.6326,-4.6326,-4.6326,-4.6326,-4.616,-4.6908,-4.3615,-4.3615,-4.3615,-4.3615,-4.3877,-4.5168,-4.5647,-4.5654,-4.6666,-4.7097,-4.6611,-4.5414,-4.505,-4.5845,-4.5187,-4.5504,-4.6429,-4.663,-4.6338,-4.6405,-4.654,-4.6898,-4.7098,-4.7165,-4.7298,-4.7497,-4.7497,-4.7431,-4.7497,-4.7497,-4.7497,-4.7497,-4.7497,-4.7497,-4.7497,-4.7497,-4.7497,-4.7497,-4.769,-4.7954,-4.8315,-4.8796,-4.9157,-4.9638,-4.9902,-5.0022,-4.9878,-4.9373,-4.8844,-4.8315,-4.781,-4.7569,-4.7497,-4.7497,-4.7497,-4.7497,-4.7497,-4.7497,-4.7497,-4.7497,-4.7497,-4.7497,-4.7497,-4.7497,-4.7497,-4.763,-4.763,-4.7696,-4.7696,-4.7762,-4.7762,-4.796,-4.8116,-4.8248,-4.8116,-4.8116,-4.8379,-4.8641,-4.8706,-4.8837,-4.8902,-4.8902,-4.9097,-4.9267,-4.9267,-4.9396,-4.906,-4.8887,-4.8335,-4.7707,-4.7205,-4.6753,-4.6502,-4.6326,-4.6326,-4.6326,-4.6326,-4.6326,-4.6326,-4.6351,-4.6426,-4.6376,-4.6326,-4.6326,-4.6326,-4.6326,-4.6326,-4.6326,-4.6326,-4.6326,-4.6326,-4.6326,-4.6301,-4.6456,-4.7177,-4.3449,-4.3511,-4.3594,-4.3553,-4.3849,-4.5603,-4.624,-4.6352,-4.7673,-4.8199,-4.7857,-4.6058,-4.5691,-4.5938,-4.616,-4.6764,-4.7165,-4.7165,-4.7232,-4.7298,-4.7364,-4.7364,-4.7364,-4.7431,-4.7497,-4.7497,-4.7497,-4.7497,-4.7497,-4.7497,-4.7497,-4.7497,-4.7497,-4.7497,-4.7497,-4.7497,-4.7497,-4.7593,-4.7762,-4.805,-4.8411,-4.8772,-4.9012,-4.9277,-4.9469,-4.9734,-4.9614,-4.9253,-4.8724,-4.8315,-4.781,-4.7593,-4.7497,-4.7497,-4.7497,-4.7497,-4.7497,-4.7497,-4.7497,-4.7497,-4.7497,-4.7497,-4.7497,-4.7497,-4.7497,-4.7497,-4.7497,-4.7497,-4.7497,-4.7497,-4.7563,-4.7563,-4.7762,-4.7828,-4.7696,-4.7696,-4.805,-4.8248,-4.8379,-4.851,-4.8576,-4.86,-4.8772,-4.8942,-4.9072,-4.9202,-4.9207,-4.9124,-4.8786,-4.8083,-4.7481,-4.6979,-4.6577,-4.6451,-4.6326,-4.6326,-4.6326,-4.6326,-4.6326,-4.6326,-4.6326,-4.6326,-4.6326,-4.6326,-4.6326,-4.6326,-4.6326,-4.6326,-4.6326,-4.6326,-4.6326,-4.6301,-4.6481,-4.6679,-4.7412,-4.2725,-4.3077,-4.3449,-4.3408,-4.3431,-4.5428,-4.5976,-4.5611,-4.7436,-4.8074,-4.7628,-4.7466,-4.7146,-4.7165,-4.7232,-4.7431,-4.7364,-4.7497,-4.7497,-4.7497,-4.7497,-4.7497,-4.7497,-4.7497,-4.7497,-4.7497,-4.7497,-4.7497,-4.7497,-4.7497,-4.7497,-4.7497,-4.7497,-4.7497,-4.7497,-4.7497,-4.7497,-4.7593,-4.7666,-4.7834,-4.805,-4.8459,-4.8988,-4.9133,-4.9157,-4.9229,-4.9084,-4.87,-4.8459,-4.8171,-4.7834,-4.7569,-4.7497,-4.7497,-4.7497,-4.7497,-4.7497,-4.7497,-4.7497,-4.7497,-4.7497,-4.7497,-4.7497,-4.7497,-4.7497,-4.7497,-4.7497,-4.7497,-4.7497,-4.7497,-4.7497,-4.7497,-4.763,-4.763,-4.7563,-4.7696,-4.7894,-4.7918,-4.7984,-4.8116,-4.8313,-4.851,-4.8812,-4.9007,-4.9202,-4.9267,-4.9461,-4.9314,-4.8987,-4.8385,-4.7757,-4.7255,-4.6753,-4.6451,-4.6326,-4.6326,-4.6326,-4.6326,-4.6326,-4.6326,-4.6326,-4.6326,-4.6326,-4.6326,-4.6326,-4.6326,-4.6326,-4.6326,-4.6326,-4.6326,-4.6326,-4.6361,-4.6541,-4.6959,-4.7649]}]]